[[{"header":{"parameterUnit":"m.s-1","parameterCategory":1,"la1":30.6,"la2":29.2853,"lo1":-89.7004,"lo2":-87.6739,"dy":0.0162,"dx":0.0183,"nx":112,"ny":82,"refTime":"2023-10-22T12:00:00:Z","depth":0,"parameterNumber":2,"parameterNumberName":"U-component_of_WINDS"},"data":[0.0,0.0,0.0,0.0,0.0,0.0,0.0,0.0,0.0,0.0,0.0,0.0,0.0,0.0,0.0,0.0,0.0,0.0,0.0,0.0,0.0,0.0,0.0,0.0,0.0,0.0,0.0,0.0,0.0,0.0,0.0,0.0,0.0,0.0,0.0,0.0,0.0,0.0,0.0,0.0,0.0,0.0,0.0,0.0,0.0,0.0,0.0,0.0,0.0,0.0,0.0,0.0,0.0,0.0,0.0,0.0,0.0,0.0,0.0,0.0,0.0,0.0,0.0,0.0,0.0,0.0,0.0,0.0,0.0,0.0,0.0,0.0,0.0,0.0,0.0,0.0,0.0,0.0,0.0,0.0,0.0,0.0,0.0,0.0,0.0,0.0,0.0,0.0,0.0,0.0,-1.0062,-1.0082,-1.0256,-0.978,-0.8383,-0.8258,-0.8169,-0.8025,0.0,0.0,0.0,0.0,0.0,0.0,0.0,0.0,0.0,0.0,0.0,0.0,0.0,0.0,0.0,0.0,0.0,0.0,0.0,0.0,0.0,0.0,0.0,0.0,0.0,0.0,0.0,0.0,0.0,0.0,0.0,0.0,0.0,0.0,0.0,0.0,0.0,0.0,0.0,0.0,0.0,0.0,0.0,0.0,0.0,0.0,0.0,0.0,0.0,0.0,0.0,0.0,0.0,0.0,0.0,0.0,0.0,0.0,0.0,0.0,0.0,0.0,0.0,0.0,0.0,0.0,0.0,0.0,0.0,0.0,0.0,0.0,0.0,0.0,0.0,0.0,0.0,0.0,0.0,0.0,0.0,0.0,0.0,0.0,0.0,0.0,0.0,0.0,0.0,0.0,0.0,0.0,0.0,0.0,0.0,0.0,0.0,0.0,0.0,0.0,0.0,0.0,0.0,0.0,-1.029,-1.0412,-1.0561,-1.0531,-1.0287,-1.0254,-0.9624,-0.8097,0.0,0.0,0.0,0.0,0.0,0.0,0.0,0.0,0.0,0.0,0.0,0.0,0.0,0.0,0.0,0.0,0.0,0.0,0.0,0.0,0.0,0.0,0.0,0.0,0.0,0.0,0.0,0.0,0.0,0.0,0.0,0.0,0.0,0.0,0.0,0.0,0.0,0.0,0.0,0.0,0.0,0.0,0.0,0.0,0.0,0.0,0.0,0.0,0.0,0.0,0.0,0.0,0.0,0.0,0.0,0.0,0.0,0.0,0.0,0.0,0.0,0.0,0.0,0.0,0.0,0.0,0.0,0.0,0.0,0.0,0.0,0.0,0.0,0.0,0.0,0.0,0.0,0.0,0.0,0.0,0.0,0.0,0.0,0.0,0.0,0.0,0.0,0.0,0.0,0.0,0.0,0.0,0.0,0.0,0.0,0.0,0.0,0.0,0.0,0.0,0.0,0.0,0.0,-1.0351,-1.0453,-1.0602,-1.0644,-1.0684,-1.0684,-1.0684,-1.0352,-0.951,-0.9477,0.0,0.0,0.0,0.0,0.0,0.0,0.0,0.0,0.0,0.0,0.0,0.0,0.0,0.0,0.0,0.0,0.0,0.0,0.0,0.0,0.0,0.0,0.0,0.0,0.0,0.0,0.0,0.0,0.0,0.0,0.0,0.0,0.0,0.0,0.0,0.0,0.0,0.0,0.0,0.0,0.0,0.0,0.0,0.0,0.0,0.0,0.0,0.0,0.0,0.0,0.0,0.0,0.0,0.0,0.0,0.0,0.0,0.0,0.0,0.0,0.0,0.0,0.0,0.0,0.0,0.0,0.0,0.0,0.0,0.0,0.0,0.0,0.0,0.0,0.0,0.0,0.0,0.0,0.0,0.0,0.0,0.0,0.0,0.0,0.0,0.0,0.0,0.0,0.0,0.0,0.0,0.0,0.0,0.0,0.0,0.0,0.0,0.0,0.0,0.0,0.0,0.0,-1.0548,-1.0588,-1.0677,-1.0684,-1.0684,-1.0684,-1.0684,-1.0684,-1.0684,-1.0684,0.0,0.0,0.0,0.0,0.0,0.0,0.0,0.0,0.0,0.0,0.0,0.0,0.0,0.0,0.0,0.0,0.0,0.0,0.0,0.0,0.0,0.0,0.0,0.0,0.0,0.0,0.0,0.0,0.0,0.0,0.0,0.0,0.0,0.0,0.0,0.0,0.0,0.0,0.0,0.0,0.0,0.0,0.0,0.0,0.0,0.0,0.0,0.0,0.0,0.0,0.0,0.0,0.0,0.0,0.0,0.0,0.0,0.0,0.0,0.0,0.0,0.0,0.0,0.0,0.0,0.0,0.0,0.0,0.0,0.0,0.0,0.0,0.0,0.0,0.0,0.0,0.0,0.0,0.0,0.0,0.0,0.0,0.0,0.0,0.0,0.0,0.0,0.0,0.0,0.0,0.0,0.0,0.0,0.0,0.0,0.0,0.0,0.0,0.0,0.0,0.0,0.0,-1.0704,-1.0677,-1.0684,-1.0684,-1.0684,-1.0684,-1.0684,-1.0684,-1.0684,-1.0684,0.0,0.0,0.0,0.0,0.0,0.0,0.0,0.0,0.0,0.0,0.0,0.0,0.0,0.0,0.0,0.0,0.0,0.0,0.0,0.0,0.0,0.0,0.0,0.0,0.0,0.0,0.0,0.0,0.0,0.0,0.0,0.0,0.0,0.0,0.0,0.0,0.0,0.0,0.0,0.0,0.0,0.0,0.0,0.0,0.0,0.0,0.0,0.0,0.0,0.0,0.0,0.0,0.0,0.0,0.0,0.0,0.0,0.0,0.0,0.0,0.0,0.0,0.0,0.0,0.0,0.0,0.0,0.0,0.0,0.0,0.0,0.0,0.0,0.0,0.0,0.0,0.0,0.0,0.0,0.0,0.0,0.0,0.0,0.0,0.0,0.0,0.0,0.0,0.0,0.0,0.0,0.0,0.0,0.0,0.0,0.0,0.0,0.0,0.0,0.0,0.0,0.0,-1.0772,-1.0826,0.0,-1.0941,-1.0995,-1.0995,-1.0995,-1.0995,-1.0995,0.0,0.0,0.0,0.0,0.0,0.0,0.0,0.0,0.0,0.0,0.0,0.0,0.0,0.0,0.0,0.0,0.0,0.0,0.0,0.0,0.0,0.0,0.0,0.0,0.0,0.0,0.0,0.0,0.0,0.0,0.0,0.0,0.0,0.0,0.0,0.0,0.0,0.0,0.0,0.0,0.0,0.0,0.0,0.0,0.0,0.0,0.0,0.0,0.0,0.0,0.0,0.0,0.0,0.0,0.0,0.0,0.0,0.0,0.0,0.0,0.0,0.0,0.0,0.0,0.0,0.0,0.0,0.0,0.0,0.0,0.0,0.0,0.0,0.0,0.0,0.0,0.0,0.0,0.0,0.0,0.0,0.0,0.0,0.0,0.0,0.0,0.0,0.0,0.0,0.0,0.0,0.0,0.0,0.0,0.0,0.0,0.0,0.0,0.0,0.0,0.0,0.0,-1.0853,-1.0948,-1.1016,0.0,-1.1104,-1.12,-1.12,-1.12,-1.12,-1.12,0.0,0.0,0.0,0.0,0.0,0.0,0.0,0.0,0.0,0.0,0.0,0.0,0.0,0.0,0.0,0.0,0.0,0.0,0.0,0.0,0.0,0.0,0.0,0.0,0.0,0.0,0.0,0.0,0.0,0.0,0.0,0.0,0.0,0.0,0.0,0.0,0.0,0.0,0.0,0.0,0.0,0.0,0.0,0.0,0.0,0.0,0.0,0.0,0.0,0.0,0.0,0.0,0.0,0.0,0.0,0.0,0.0,0.0,0.0,0.0,0.0,0.0,0.0,0.0,0.0,0.0,0.0,0.0,0.0,0.0,0.0,0.0,0.0,0.0,0.0,0.0,0.0,0.0,0.0,0.0,0.0,0.0,0.0,0.0,0.0,0.0,0.0,0.0,0.0,0.0,0.0,0.0,0.0,0.0,0.0,0.0,0.0,0.0,0.0,0.0,0.0,0.0,-1.1179,-1.12,-1.12,-1.12,-1.12,-1.12,-1.12,-1.12,-1.12,0.0,0.0,0.0,0.0,0.0,0.0,0.0,0.0,0.0,0.0,0.0,0.0,0.0,0.0,0.0,0.0,0.0,0.0,0.0,0.0,0.0,0.0,0.0,0.0,0.0,0.0,0.0,0.0,0.0,0.0,0.0,0.0,0.0,0.0,0.0,0.0,0.0,0.0,0.0,0.0,0.0,0.0,0.0,0.0,0.0,0.0,0.0,0.0,0.0,0.0,0.0,0.0,0.0,0.0,0.0,0.0,0.0,0.0,0.0,0.0,0.0,0.0,0.0,0.0,0.0,0.0,0.0,0.0,0.0,0.0,0.0,0.0,0.0,0.0,0.0,0.0,0.0,0.0,0.0,0.0,0.0,0.0,0.0,0.0,0.0,0.0,0.0,0.0,0.0,0.0,0.0,0.0,0.0,0.0,0.0,0.0,0.0,0.0,0.0,0.0,0.0,0.0,0.0,-1.1193,-1.1295,-1.1321,-1.1321,-1.1423,-1.1484,-1.1484,-1.1484,-1.1484,-1.1484,0.0,0.0,0.0,0.0,0.0,0.0,0.0,0.0,0.0,0.0,0.0,0.0,0.0,0.0,0.0,0.0,0.0,0.0,0.0,0.0,0.0,0.0,0.0,0.0,0.0,0.0,0.0,0.0,0.0,0.0,0.0,0.0,0.0,0.0,0.0,0.0,0.0,0.0,0.0,0.0,0.0,0.0,0.0,0.0,0.0,0.0,0.0,0.0,0.0,0.0,0.0,0.0,0.0,0.0,0.0,0.0,0.0,0.0,0.0,0.0,0.0,0.0,0.0,0.0,0.0,0.0,0.0,0.0,0.0,0.0,0.0,0.0,0.0,0.0,0.0,0.0,0.0,0.0,0.0,0.0,0.0,0.0,0.0,0.0,0.0,0.0,0.0,0.0,0.0,0.0,0.0,0.0,0.0,0.0,0.0,0.0,0.0,0.0,0.0,0.0,0.0,0.0,-1.3573,-1.3021,-1.2596,-1.2596,-1.1987,-1.1584,-1.1584,-1.1584,-1.1584,-1.1584,0.0,0.0,0.0,0.0,0.0,0.0,0.0,0.0,0.0,0.0,0.0,0.0,0.0,0.0,0.0,0.0,0.0,0.0,0.0,0.0,0.0,0.0,0.0,0.0,0.0,0.0,0.0,0.0,0.0,0.0,0.0,0.0,0.0,0.0,0.0,0.0,0.0,0.0,0.0,0.0,0.0,0.0,0.0,0.0,0.0,0.0,0.0,0.0,0.0,0.0,0.0,0.0,0.0,0.0,0.0,0.0,0.0,0.0,0.0,0.0,0.0,0.0,0.0,0.0,0.0,0.0,0.0,0.0,0.0,0.0,0.0,0.0,0.0,0.0,0.0,0.0,0.0,0.0,0.0,0.0,0.0,0.0,0.0,0.0,0.0,0.0,0.0,0.0,0.0,0.0,0.0,0.0,0.0,0.0,0.0,0.0,0.0,0.0,0.0,0.0,0.0,0.0,-1.7193,-1.5698,-1.4645,-1.4645,-1.3146,-1.2172,-1.2172,-1.2187,-1.2194,-1.2194,0.0,0.0,0.0,0.0,0.0,0.0,0.0,0.0,0.0,0.0,0.0,0.0,0.0,0.0,0.0,0.0,0.0,0.0,0.0,0.0,0.0,0.0,0.0,0.0,0.0,0.0,0.0,0.0,0.0,0.0,0.0,0.0,0.0,0.0,0.0,0.0,0.0,0.0,0.0,0.0,0.0,0.0,0.0,0.0,0.0,0.0,0.0,0.0,0.0,0.0,0.0,0.0,0.0,0.0,0.0,0.0,0.0,0.0,0.0,0.0,-0.3233,-0.3081,0.0,0.0,0.0,0.0,0.0,0.0,0.0,0.0,0.0,0.0,0.0,0.0,0.0,0.0,0.0,0.0,0.0,0.0,0.0,0.0,0.0,0.0,0.0,0.0,0.0,0.0,0.0,0.0,0.0,0.0,0.0,0.0,0.0,0.0,0.0,0.0,0.0,0.0,0.0,0.0,-1.7213,-1.6861,-1.6615,-1.6615,-1.6486,-1.6413,-1.6413,-1.6591,-1.6722,-1.6722,-1.5126,0.0,0.0,0.0,0.0,0.0,0.0,0.0,0.0,0.0,0.0,0.0,0.0,0.0,0.0,0.0,0.0,0.0,0.0,0.0,0.0,0.0,0.0,0.0,0.0,0.0,0.0,0.0,0.0,0.0,0.0,0.0,0.0,0.0,0.0,0.0,0.0,0.0,0.0,0.0,0.0,0.0,0.0,0.0,0.0,0.0,0.0,0.0,0.0,0.0,0.0,0.0,0.0,0.0,0.0,0.0,0.0,0.0,0.0,0.0,-0.4741,-0.5036,0.0,0.0,0.0,0.0,0.0,0.0,0.0,0.0,0.0,0.0,0.0,0.0,0.0,0.0,0.0,0.0,0.0,0.0,0.0,0.0,0.0,0.0,0.0,0.0,0.0,0.0,0.0,0.0,0.0,0.0,0.0,0.0,0.0,0.0,0.0,0.0,0.0,0.0,0.0,0.0,-2.0122,-1.9362,-1.8831,-1.8951,-1.8319,-1.7888,-1.7888,-1.8026,-1.8097,-1.8097,-1.7042,0.0,0.0,0.0,0.0,0.0,0.0,0.0,0.0,0.0,0.0,0.0,0.0,0.0,0.0,0.0,0.0,0.0,0.0,0.0,0.0,0.0,0.0,0.0,0.0,0.0,0.0,0.0,0.0,0.0,0.0,0.0,0.0,0.0,0.0,0.0,0.0,0.0,0.0,0.0,0.0,0.0,0.0,0.0,0.0,0.0,0.0,0.0,0.0,0.0,0.0,0.0,0.0,0.0,-0.6416,-0.5743,-0.5743,-0.5743,-0.6508,-0.7728,-0.6355,-0.7307,-0.97,-0.8374,0.0,0.0,0.0,0.0,0.0,0.0,0.0,0.0,0.0,0.0,0.0,0.0,0.0,0.0,0.0,0.0,0.0,0.0,0.0,0.0,0.0,0.0,-2.0905,-1.9793,-2.0629,-2.0903,-1.805,0.0,0.0,0.0,0.0,0.0,0.0,0.0,0.0,0.0,0.0,0.0,-2.3367,-2.2019,-2.116,-2.1378,-2.0066,-1.918,-1.918,-1.9213,-1.9234,-1.9234,-1.8874,-1.8659,0.0,0.0,0.0,0.0,0.0,0.0,0.0,0.0,0.0,0.0,0.0,0.0,0.0,0.0,0.0,0.0,0.0,0.0,0.0,0.0,0.0,0.0,0.0,0.0,0.0,0.0,0.0,0.0,0.0,0.0,0.0,0.0,-0.8933,-0.9138,0.0,0.0,0.0,0.0,0.0,0.0,0.0,0.0,0.0,0.0,0.0,0.0,0.0,-0.9765,-0.9765,-0.9596,-0.9481,-0.9481,-0.9268,-0.9147,-0.9147,-0.9147,-0.9268,-0.9481,-0.9238,0.0,-0.9792,-0.9572,0.0,0.0,0.0,0.0,0.0,0.0,0.0,0.0,0.0,0.0,0.0,0.0,0.0,0.0,0.0,0.0,0.0,0.0,0.0,0.0,0.0,0.0,-2.1531,-2.1595,-2.1793,-2.1892,-2.1664,-2.16,-2.1608,-2.1649,-2.1848,-2.2041,0.0,0.0,0.0,0.0,0.0,0.0,-2.375,-2.3523,-2.3394,-2.3398,-2.3406,-2.3404,-2.3404,-2.3624,-2.373,-2.373,-2.1995,-2.0972,-2.0972,-1.9114,0.0,0.0,0.0,0.0,0.0,0.0,0.0,0.0,0.0,0.0,0.0,0.0,0.0,0.0,0.0,0.0,0.0,0.0,0.0,0.0,0.0,0.0,0.0,0.0,0.0,0.0,0.0,0.0,0.0,-0.9137,-0.9211,-0.9301,-0.9308,-0.9369,0.0,0.0,0.0,0.0,0.0,0.0,0.0,0.0,0.0,-0.9792,-0.9792,-0.9792,-0.9792,-0.9792,-0.9832,-0.992,-0.992,-0.9967,-1.008,-1.008,-1.008,-1.008,-1.008,-1.0032,-0.9913,-0.9825,-0.9792,-0.9792,0.0,0.0,0.0,0.0,-0.9846,-1.0036,-1.1034,-1.1924,-1.2754,-1.3883,0.0,0.0,0.0,0.0,0.0,0.0,0.0,-2.1462,-2.1756,-2.1823,-2.1903,-2.2164,-2.2231,-2.2352,-2.2798,-2.2798,-2.2726,-2.2672,-2.2806,-2.2932,-2.31,-2.338,0.0,0.0,0.0,-2.387,-2.3995,-2.4155,-2.4315,-2.4526,-2.477,-2.4943,-2.4943,-2.5064,-2.5026,-2.489,-2.4,-2.34,-2.3198,-2.2252,-2.175,0.0,0.0,0.0,0.0,0.0,0.0,0.0,0.0,0.0,0.0,0.0,0.0,0.0,0.0,0.0,0.0,0.0,0.0,0.0,0.0,0.0,0.0,0.0,0.0,0.0,0.0,0.0,0.0,-0.9335,-0.9424,-0.9435,-0.9442,-0.9496,0.0,0.0,0.0,0.0,0.0,0.0,-0.9792,-0.9792,-0.9805,-0.9846,-0.9846,-0.9866,-0.9937,-0.9937,-0.9967,-1.0076,-1.0076,-1.0168,-1.0315,-1.0315,-1.0315,-1.0315,-1.0315,-1.0215,-1.0069,-0.9913,-0.9825,-0.9792,-0.9832,-0.9846,-0.9852,-0.9924,-1.0284,-1.0935,-1.2223,-1.3332,-1.4404,-1.5763,-1.7351,-1.8772,-1.9073,0.0,0.0,0.0,0.0,-2.1783,-2.2144,-2.2238,-2.2331,-2.2672,-2.2766,-2.2886,-2.334,-2.3447,-2.338,-2.3174,-2.3287,-2.3447,-2.3447,-2.3688,0.0,-2.3981,-2.4098,-2.4245,-2.4502,-2.473,-2.4943,-2.517,-2.5384,-2.5518,-2.5518,-2.5518,-2.5424,-2.5197,-2.5197,-2.509,-2.4826,-2.4826,-2.4826,-2.4826,0.0,0.0,0.0,0.0,0.0,0.0,0.0,0.0,0.0,0.0,0.0,0.0,0.0,0.0,0.0,0.0,0.0,0.0,0.0,0.0,0.0,0.0,0.0,0.0,0.0,0.0,0.0,0.0,0.0,-0.9585,-0.9598,0.0,0.0,0.0,0.0,-0.9792,-0.9792,-0.9792,-0.9792,-0.9792,-0.9859,-0.997,-0.9977,-1.0076,-1.0256,-1.0256,-1.0295,-1.027,-1.027,-1.0308,-1.0315,-1.0315,-1.0315,-1.0315,-1.0315,-1.0276,-1.0256,-1.0069,-0.992,-0.9805,-0.9947,-0.9977,-1.0021,-1.0202,-1.1325,-1.2767,-1.2852,-1.4967,-1.7711,-1.805,-1.9424,-2.0996,-2.132,-2.151,0.0,0.0,-2.1964,-2.2098,-2.2706,-2.2853,-2.3,-2.3603,-2.3736,-2.375,-2.3777,-2.379,-2.3777,-2.3763,-2.3777,-2.379,-2.379,0.0,-2.4275,-2.4519,-2.4836,-2.5117,-2.5411,-2.5464,-2.5478,-2.5491,-2.5504,-2.5518,-2.5518,-2.5518,-2.5504,-2.5491,-2.5491,-2.5478,-2.5464,-2.5464,-2.5464,-2.5464,-2.5108,0.0,0.0,0.0,0.0,0.0,0.0,0.0,0.0,0.0,0.0,0.0,0.0,0.0,0.0,0.0,0.0,0.0,0.0,0.0,0.0,0.0,0.0,0.0,0.0,0.0,0.0,0.0,0.0,-0.971,-0.9717,0.0,-0.9785,-0.9792,-0.9792,-0.9792,-0.9879,-0.994,-0.994,-1.0059,-1.0141,-1.0195,-1.029,-1.0358,-1.0419,-1.0514,-1.0616,-1.0677,-1.0677,-1.0758,-1.088,-1.088,-1.088,-1.088,-1.088,-1.0792,-1.0671,-1.0617,-1.0393,-1.012,-1.0175,-1.0202,-1.0328,-1.1539,-1.2545,-1.3605,-1.5862,-1.761,-1.9071,-2.0282,-2.1123,-2.1697,-2.1836,-2.1997,-2.2164,-2.2505,-2.2699,-2.2939,-2.3375,-2.3616,-2.3781,-2.3995,-2.4195,-2.4382,-2.4606,-2.4646,-2.47,-2.485,-2.4583,-2.4382,-2.4619,-2.485,-2.5077,-2.5146,-2.5291,-2.5398,-2.5504,-2.5678,-2.5837,-2.5837,-2.5972,-2.6079,-2.6079,-2.6079,-2.5999,-2.585,-2.5837,-2.5718,-2.5518,-2.5518,-2.5518,-2.5518,-2.5411,-2.5358,0.0,0.0,0.0,0.0,0.0,0.0,0.0,0.0,0.0,0.0,0.0,0.0,0.0,0.0,0.0,0.0,0.0,0.0,0.0,0.0,0.0,0.0,0.0,0.0,0.0,-1.0891,-1.0604,-1.0604,-1.0168,-0.9866,-0.9866,-0.9944,-0.9978,-0.9978,-1.0035,-1.0116,-1.0163,-1.0297,-1.0399,-1.05,-1.0595,-1.067,-1.075,-1.0819,-1.0921,-1.0988,-1.0988,-1.107,-1.12,-1.12,-1.12,-1.12,-1.12,-1.1482,-1.1901,-1.1317,-1.169,-1.2547,-1.1795,-1.1498,-1.1692,-1.3541,-1.4758,-1.5916,-1.8918,-2.0158,-2.0613,-2.1898,-2.2318,-2.2331,-2.2405,-2.2565,-2.2772,-2.3207,-2.346,-2.3714,-2.4151,-2.4356,-2.4529,-2.4623,-2.4759,-2.4946,-2.5184,-2.5224,-2.5317,-2.5611,-2.5264,-2.4959,-2.5197,-2.5384,-2.5545,-2.5651,-2.5665,-2.5692,-2.5798,-2.5985,-2.6145,-2.6145,-2.6279,-2.6386,-2.6386,-2.6386,-2.6306,-2.6158,-2.6145,-2.6051,-2.5812,-2.5812,-2.5812,-2.5812,-2.5705,-2.5611,-2.5518,0.0,0.0,0.0,0.0,0.0,0.0,0.0,0.0,0.0,0.0,0.0,0.0,0.0,0.0,0.0,0.0,0.0,0.0,0.0,0.0,0.0,0.0,0.0,-1.4837,-1.3267,-1.2286,-1.2286,-1.1026,-1.0177,-1.0184,-1.0321,-1.0385,-1.0385,-1.0424,-1.0422,-1.05,-1.0572,-1.0715,-1.0914,-1.0928,-1.0995,-1.12,-1.1213,-1.122,-1.122,-1.1227,-1.1227,-1.1227,-1.1227,-1.1227,-1.1227,-1.1296,-1.2352,-1.3899,-1.2287,-1.3838,-1.6997,-1.4711,-1.3864,-1.4149,-1.6183,-1.8016,-1.9793,-2.1768,-2.2425,-2.2512,-2.2827,-2.2934,-2.3,-2.326,-2.3332,-2.3465,-2.4075,-2.4235,-2.4382,-2.4943,-2.5104,-2.5184,-2.5464,-2.5531,-2.5545,-2.5545,-2.5545,-2.5625,-2.5957,-2.5732,-2.5545,-2.5545,-2.5545,-2.5638,-2.5971,-2.6011,0.0,-2.636,-2.64,-2.6413,-2.6413,-2.6413,-2.6413,-2.6413,-2.6413,-2.6413,-2.6413,-2.6413,-2.6413,-2.6413,-2.6413,-2.6413,-2.64,-2.6158,-2.5864,-2.5545,0.0,0.0,0.0,0.0,0.0,0.0,0.0,0.0,0.0,0.0,0.0,0.0,0.0,0.0,0.0,0.0,0.0,0.0,0.0,0.0,0.0,-1.8904,-1.7998,-1.5016,-1.438,-1.4237,-1.4237,-1.4083,-1.4054,-1.4266,-1.3095,-1.2419,-1.2613,-1.2742,-1.2252,-1.0853,-1.222,-1.2462,-1.1166,-1.1212,-1.1287,-1.1328,-1.1538,-1.1647,-1.1647,-1.1798,-1.1853,-1.1853,-1.1853,-1.1853,-1.1926,-1.3398,-1.4324,-1.4866,-1.5858,-1.6887,-1.7627,-1.529,-1.5302,-1.6837,-1.866,-2.0555,-2.2324,-2.3147,-2.3429,-2.3407,-2.3536,-2.3661,-2.3848,-2.3941,-2.4262,-2.4636,-2.4796,-2.4983,-2.5184,-2.5358,-2.5558,-2.577,-2.585,-2.5999,-2.6146,-2.6146,-2.6146,-2.6172,-2.6253,-2.6199,-2.6146,-2.6146,-2.6146,-2.6172,-2.6305,-2.6266,-2.6373,-2.6667,-2.6707,-2.6787,-2.7041,-2.7068,-2.7068,-2.7068,-2.7068,-2.7068,-2.7068,-2.7068,-2.7068,-2.7068,-2.7068,-2.6921,-2.6707,-2.6413,-2.6226,0.0,0.0,0.0,0.0,0.0,0.0,0.0,0.0,0.0,0.0,0.0,0.0,0.0,0.0,0.0,0.0,0.0,0.0,0.0,0.0,0.0,0.0,-1.9693,-1.9188,-1.7395,-1.66,-1.6269,-1.6367,-1.6024,-1.5874,-1.6175,-1.5261,-1.4711,-1.4855,-1.4985,-1.4591,-1.3491,-1.4732,-1.4979,-1.3949,-1.4096,-1.3802,-1.2949,-1.3101,-1.2765,-1.1932,-1.2896,-1.3349,-1.3386,-1.4223,-1.4629,-1.4666,-1.5837,-1.6819,-1.755,-1.8006,-1.9247,-2.0585,0.0,0.0,0.0,0.0,-2.2563,-2.3741,-2.4035,-2.4222,-2.4379,-2.4499,-2.4609,-2.4756,-2.4756,-2.4983,-2.5291,-2.5449,-2.561,-2.5732,-2.5852,-2.6012,-2.6172,-2.6172,-2.6305,-2.6386,-2.6386,-2.648,-2.6573,-2.6573,-2.6667,0.0,-2.68,-2.6653,-2.6613,-2.6774,-2.68,-2.6814,-2.6987,-2.7001,-2.7068,-2.7282,-2.7309,-2.7309,-2.7309,-2.7309,0.0,0.0,0.0,-2.7309,-2.7309,-2.7309,0.0,0.0,0.0,-2.68,-2.68,-2.68,0.0,0.0,-2.5919,-2.5785,0.0,0.0,0.0,0.0,0.0,0.0,0.0,0.0,0.0,0.0,0.0,0.0,0.0,0.0,0.0,0.0,-1.9907,-2.0134,-2.0686,-1.9379,-1.845,-1.8654,-1.7556,-1.6892,-1.7213,-1.717,-1.7128,-1.7159,-1.718,-1.7182,-1.7078,-1.7582,0.0,0.0,0.0,-1.7258,-1.5469,-1.545,-1.458,-1.282,-1.4642,-1.5493,-1.5567,-1.7392,-1.821,-1.821,-1.8487,-1.9522,-2.0978,-1.9667,-2.1324,-2.4491,-2.2287,-2.1438,-2.1619,-2.3366,-2.4128,-2.4382,-2.4613,0.0,0.0,-2.5424,-2.5531,-2.5558,-2.5558,-2.5585,-2.5665,-2.5971,-2.6051,-2.6105,-2.6319,-2.6386,-2.6386,-2.6386,-2.6413,-2.644,-2.644,-2.6667,-2.6867,-2.6867,-2.7081,-2.7322,-2.7349,-2.7068,-2.6961,-2.7269,-2.7309,-2.7322,-2.7349,-2.7362,-2.7389,-2.7456,-2.7456,0.0,-2.7496,-2.751,-2.751,-2.751,-2.751,-2.751,-2.751,-2.7483,-2.7456,-2.7456,-2.7429,-2.7403,-2.7403,-2.7403,-2.7403,-2.7389,-2.676,-2.6493,0.0,0.0,0.0,0.0,0.0,0.0,0.0,0.0,0.0,0.0,0.0,0.0,0.0,0.0,0.0,-2.0077,-2.0517,-2.0895,-2.1002,-2.112,-2.1143,-2.0972,-2.0903,-2.0976,-2.127,-1.9941,-1.9164,-1.9439,-1.9669,-1.914,-1.7628,-1.9275,-1.9573,-1.8062,-1.8077,-1.7915,-1.7514,-1.7635,-1.7501,-1.7093,-1.7639,0.0,-1.7925,-1.8547,-1.8818,-1.8942,-2.0823,-2.188,-2.23,-2.3592,-2.4581,-2.5293,-2.4781,-2.4629,-2.4666,-2.502,-2.5211,-2.5264,-2.5317,-2.5384,-2.5438,-2.5491,-2.5678,-2.5904,-2.5904,-2.6039,0.0,-2.6293,-2.6306,-2.6319,-2.6373,-2.6386,-2.6386,-2.6386,-2.6573,-2.6734,-2.6734,-2.6974,-2.7175,-2.7175,-2.7269,-2.7389,-2.7575,-2.7375,-2.7242,-2.7296,-2.7309,-2.7389,-2.7589,-2.7615,-2.7802,-2.8297,-2.835,-2.8444,-2.8628,-2.8655,-2.8655,-2.8655,-2.8655,-2.8655,-2.8655,-2.847,-2.835,-2.835,-2.8138,-2.8018,-2.8018,-2.8018,-2.8018,-2.8005,-2.7416,-2.7135,0.0,0.0,0.0,0.0,0.0,0.0,0.0,0.0,0.0,0.0,0.0,-1.9679,-1.996,0.0,-2.0334,-2.0628,-2.1042,-2.143,-2.1724,-2.2017,-2.2151,-2.2004,-2.2111,-2.2325,-2.2605,-2.1803,-2.1371,-2.1694,-2.1833,-2.1583,-2.0781,-2.1906,-2.2126,-2.1171,-2.1301,-2.0883,-1.9878,-1.9914,-1.9447,-1.8475,-1.973,-2.0304,-2.0342,-2.1666,-2.2254,-2.233,-2.3485,-2.4022,-2.4099,-2.528,-2.5732,-2.5745,-2.5892,-2.5772,-2.5518,-2.5518,-2.5611,-2.5732,-2.5732,-2.5825,-2.5945,-2.5945,-2.6052,-2.6212,-2.6212,-2.6279,-2.6386,-2.6386,-2.6386,-2.6426,-2.6573,-2.66,-2.664,-2.68,-2.6934,-2.7041,-2.7041,-2.7268,-2.7482,-2.7482,-2.7643,-2.7844,-2.8096,-2.803,-2.7936,-2.7936,-2.7936,-2.8043,-2.8337,-2.8364,-2.8484,-2.8791,-2.8775,-2.8841,-2.8988,-2.9001,-2.9001,-2.9001,-2.9001,-2.9001,-2.9001,-2.8855,-2.8775,-2.8775,-2.8671,-2.8591,-2.8591,-2.8591,-2.8591,-2.8577,-2.8297,-2.7989,0.0,0.0,0.0,0.0,0.0,0.0,0.0,-1.9481,-1.9562,-1.9826,-1.9933,-2.0054,-2.0317,-2.0641,-2.0967,-2.1229,-2.1555,-2.1917,-2.2352,-2.2472,-2.2498,-2.2498,-2.2498,-2.2605,-2.288,-2.2947,-2.306,-2.3278,-2.3399,-2.3607,-2.3848,-2.4128,-2.4289,-2.4289,-2.4479,-2.3833,-2.2198,-2.2259,-2.1484,-1.9892,-2.1779,-2.2669,-2.2757,-2.4712,-2.5598,-2.5598,-2.5665,-2.5678,-2.5705,-2.5984,-2.6078,-2.6105,-2.6346,-2.6106,-2.5678,-2.5678,-2.5838,-2.6078,-2.6078,-2.6238,-2.6386,-2.6386,-2.6386,-2.6386,-2.6386,-2.6386,-2.64,-2.6453,-2.6466,-2.6547,-2.6827,-2.6907,-2.6974,-2.7255,-2.7349,-2.7389,-2.7389,-2.7575,-2.7802,-2.7856,-2.8112,-2.8379,-2.8644,-2.8684,-2.8684,-2.8684,-2.8684,-2.8778,-2.8961,-2.9001,-2.9015,-2.9081,-2.9081,-2.9108,-2.9161,-2.9215,-2.9255,-2.9255,-2.9308,-2.9308,-2.9255,-2.9255,-2.9228,-2.9161,-2.9161,-2.9161,-2.9161,-2.9161,-2.9202,-2.9255,-2.9255,-2.8938,-1.7889,-1.8369,-1.881,-1.8876,-1.9118,-1.9428,0.0,-1.976,-1.9826,-2.009,-2.0388,-2.0668,-2.0962,-2.1256,-2.1582,-2.1877,-2.2138,-2.2338,-2.2371,-2.2645,-2.2853,-2.2853,-2.2853,-2.2853,-2.2893,-2.3113,-2.3252,-2.3292,-2.3808,-2.4115,-2.4155,-2.4399,-2.4559,-2.4559,-2.4586,-2.4488,-2.4253,-2.4554,-2.4611,-2.4372,-2.4862,-2.5107,-2.5121,-2.5694,-2.5944,-2.5957,-2.6225,-2.6293,-2.6293,-2.6333,-2.6346,-2.6346,-2.6373,-2.6346,-2.6293,-2.6293,-2.6306,-2.6346,-2.6346,-2.636,-2.6386,-2.6386,-2.6386,-2.6386,-2.6386,-2.6386,-2.644,-2.6694,-2.6774,-2.6841,-2.7134,-2.7255,-2.7269,-2.7296,-2.7468,-2.7655,-2.7655,-2.7924,-2.8219,-2.8457,-2.8537,-2.8644,-2.8895,-2.8948,-2.8948,-2.8948,-2.8948,-2.8961,-2.8988,-2.9001,-2.9095,-2.9406,-2.9432,-2.9539,-2.9793,-3.006,-3.0253,-3.0253,-3.0461,-3.0474,-3.0266,-3.0253,-3.0087,-2.982,-2.982,-2.982,-2.982,-2.982,-2.9953,-3.0253,-3.0253,-2.9753,-1.8449,-1.8703,-1.897,-1.9345,-1.9533,-1.9693,-1.9987,-2.0187,-2.0388,-2.0681,-2.0975,-2.1301,-2.1563,-2.1857,-2.2098,-2.2218,-2.2485,-2.2672,-2.2672,-2.2813,-2.2893,-2.2893,-2.2893,-2.2893,-2.2893,-2.314,-2.3394,-2.3567,-2.3968,-2.4275,-2.4412,-2.4532,-2.4599,-2.4599,-2.4599,-2.4679,-2.489,-2.5024,-2.517,-2.5331,-2.5625,-2.5772,-2.5785,-2.6118,-2.6252,-2.6252,-2.6333,-2.6386,-2.6386,-2.6386,-2.6386,-2.6386,-2.6386,-2.6386,-2.6386,-2.6386,-2.6386,-2.6386,-2.6386,-2.6386,-2.6386,-2.6386,-2.6386,-2.6426,-2.6587,-2.664,-2.6707,-2.7001,-2.7081,-2.7148,-2.7442,-2.7522,-2.7562,-2.7777,-2.7911,-2.8045,-2.819,-2.8323,-2.8497,-2.8761,-2.8815,-2.8951,-2.9245,-2.9299,-2.9352,-2.9482,-2.9406,-2.9366,-2.9482,-2.97,-2.9913,-3.0207,-3.0247,-3.0287,-3.0421,-3.0541,-3.0608,-3.0608,-3.0728,-3.0742,-3.0667,-3.0608,-3.0555,-3.0434,-3.0421,-3.0421,-3.0421,-3.0421,-3.0488,-3.0608,-3.0608,-3.0408,-1.8971,-1.9105,-1.925,-1.9786,-1.9987,-2.012,-2.0384,-2.0708,-2.1034,-2.1296,-2.159,-2.189,-2.2071,-2.2338,-2.2539,-2.2539,-2.276,-2.2893,-2.2893,-2.2893,-2.2893,-2.2893,-2.2893,-2.2934,-2.2979,-2.3273,-2.3541,-2.379,-2.4115,-2.4422,-2.4586,-2.4599,-2.4599,-2.4599,-2.4679,-2.4863,-2.5115,-2.5275,-2.5462,-2.5638,-2.5971,-2.6118,-2.6118,-2.6293,-2.6386,-2.6386,-2.6386,-2.6386,-2.6386,-2.6386,-2.6386,-2.6386,-2.6386,-2.6386,-2.6386,-2.6386,-2.6386,-2.6386,-2.6386,-2.6386,-2.64,-2.648,-2.6507,-2.656,-2.6854,-2.6947,-2.7001,-2.7295,-2.7429,-2.7496,-2.7749,-2.7816,-2.7938,-2.8245,-2.8312,-2.8393,-2.8657,-2.8724,-2.8818,-2.9055,-2.9121,-2.9259,-2.9553,-2.9673,-2.9793,-3.0007,-2.9927,-2.9887,-3.002,-3.0301,-3.0555,-3.0768,-3.0795,-3.0795,-3.0795,-3.0862,-3.0915,-3.0915,-3.0996,-3.0996,-3.0915,-3.0915,-3.0875,-3.0795,-3.0795,-3.0795,-3.0795,-3.0795,-3.0835,-3.0915,-3.0915,-3.0955,-1.9308,-1.9559,-1.984,-2.0117,-2.0441,-2.0722,-2.1015,-2.1341,-2.1649,-2.193,-2.2191,-2.2392,-2.2405,-2.2645,-2.288,-2.288,-2.2893,-2.2893,-2.2893,-2.2893,-2.2893,-2.2893,-2.2893,-2.3014,-2.3252,-2.3581,-2.379,-2.3803,-2.4302,-2.4586,-2.4599,-2.4599,-2.4599,-2.4599,-2.4917,-2.5077,-2.5115,-2.569,-2.5971,-2.5984,-2.6279,-2.6373,-2.6373,-2.6386,-2.6386,-2.6386,-2.6386,-2.6386,-2.6386,-2.6386,-2.6386,-2.6386,-2.6386,-2.6386,-2.6386,-2.6386,-2.6386,-2.6386,-2.6386,-2.6386,-2.644,-2.672,-2.6814,-2.6867,-2.7161,-2.7296,-2.7349,-2.7602,-2.7682,-2.7749,-2.8098,-2.8165,-2.8245,-2.8524,-2.8591,-2.8671,-2.8921,-2.8988,-2.9068,-2.9419,-2.9472,-2.9566,-2.9847,-3.014,-3.0386,-3.0386,-3.0581,-3.0662,-3.0426,-3.0595,-3.0782,-3.0795,-3.0795,-3.0795,-3.0795,-3.1049,-3.1209,-3.1209,-3.149,-3.1517,-3.1176,-3.1209,-3.1076,-3.0795,-3.0795,-3.0795,-3.0795,-3.0795,-3.0942,-3.1209,-3.1209,-3.137,-1.9626,-1.9867,-2.017,-2.0664,-2.0895,-2.1096,-2.1577,-2.1911,-2.2151,-2.2258,-2.2512,-2.2712,-2.2712,-2.2827,-2.2893,-2.2893,-2.2893,-2.2893,-2.2893,-2.2893,-2.2893,-2.2893,-2.2893,-2.3014,-2.3265,-2.3594,-2.3884,-2.4048,-2.4422,-2.4599,-2.4599,-2.4599,-2.4693,-2.493,-2.5024,-2.5302,-2.569,-2.5891,-2.6091,-2.6279,-2.6346,-2.6386,-2.6386,-2.6386,-2.6386,-2.6386,-2.6386,-2.6386,-2.6386,-2.6386,-2.6386,-2.6386,-2.6386,-2.6386,-2.6413,-2.66,-2.668,-2.668,-2.668,-2.668,-2.672,-2.7014,-2.7121,-2.7175,-2.7468,-2.7549,-2.7615,-2.7951,-2.8031,-2.8476,-3.0238,-2.9592,-2.8937,-3.0752,-2.9979,-2.8935,-2.9272,-2.9339,-2.9419,-2.9713,-2.9927,-3.0145,-3.0239,-3.0448,-3.0715,-3.0902,-3.0849,-3.0822,-3.0929,-3.1022,-3.1156,-3.1356,-3.1417,-3.1417,-3.1417,-3.1463,-3.1517,-3.1517,-3.1657,-3.1671,-3.153,-3.1517,-3.1476,-3.1383,-3.1417,-3.1417,-3.1417,-3.1417,-3.1423,-3.1517,-3.1517,-3.157,-2.0187,-2.0401,-2.065,-2.1283,-2.1496,-2.1683,-2.2058,-2.2285,-2.2385,-2.2385,-2.2485,-2.2612,-2.2686,-2.2699,-2.2773,-2.288,-2.2893,-2.2893,-2.2893,-2.2893,-2.2893,-2.2893,-2.2893,-2.3067,-2.3447,-2.3661,-2.3924,-2.4182,-2.4439,-2.4599,-2.4599,-2.4693,-2.489,-2.5077,-2.5329,-2.561,-2.5998,-2.6105,-2.6238,-2.6386,-2.6386,-2.6386,-2.6386,-2.6386,-2.6386,-2.6386,-2.6386,-2.6386,-2.6386,-2.6386,-2.6386,-2.6386,-2.6386,-2.6453,-2.656,-2.6747,-2.6894,-2.6987,-2.6987,-2.6987,-2.7028,-2.7321,-2.7415,-2.7523,-2.7804,-2.7898,-2.7938,-2.8125,-2.8878,-2.9734,-3.0565,-3.0383,-3.0424,-3.2213,-3.0849,-2.9491,-3.0657,-3.0889,-3.0721,-3.0187,-3.093,-3.1412,-3.067,-3.0755,-3.1049,-3.1343,-3.1223,-3.1169,-3.1356,-3.1383,-3.1463,-3.1698,-3.1711,-3.1711,-3.1711,-3.1711,-3.1711,-3.1711,-3.1711,-3.1711,-3.1711,-3.1711,-3.1711,-3.1711,-3.1711,-3.1711,-3.1711,-3.1711,-3.1711,-3.1711,-3.1711,-3.1711,-2.0882,-2.1136,-2.1296,-2.1871,-2.2218,-2.2385,-2.2385,-2.2385,-2.2418,-2.2371,-2.2178,-2.2071,-2.2352,-2.2392,-2.2498,-2.2827,-2.288,-2.288,-2.2893,-2.2893,-2.2893,-2.2893,-2.2907,-2.3148,-2.375,-2.3817,-2.3915,-2.4209,-2.4439,-2.4599,-2.4599,-2.4917,-2.5128,-2.5104,-2.569,-2.5998,-2.6011,-2.6253,-2.6386,-2.6386,-2.6386,-2.6386,-2.6386,-2.6386,-2.6386,-2.6386,-2.6386,-2.6386,-2.6386,-2.6386,-2.6386,-2.6386,-2.6413,-2.6587,-2.6787,-2.6814,-2.7041,-2.7336,-2.7349,-2.7349,-2.7376,-2.7629,-2.7722,-2.7776,-2.8098,-2.8276,-2.8374,-2.8374,-3.0141,-3.1579,-2.9673,-3.0823,-3.2641,-3.3172,-3.151,-3.0569,-3.3087,-3.3498,-3.2852,-3.0981,-3.2377,-3.3229,-3.1367,-3.1248,-3.1484,-3.1671,-3.1711,-3.1711,-3.1711,-3.1711,-3.1711,-3.1711,-3.1711,-3.1711,-3.1711,-3.1711,-3.1711,-3.1711,-3.1711,-3.1711,-3.1711,-3.1711,-3.1711,-3.1711,-3.1711,-3.1711,-3.1711,-3.1711,-3.1711,-3.1711,-3.1711,-3.1711,-2.1042,-2.143,-2.1844,-2.2218,-2.2365,-2.2385,-2.2385,-2.2385,-2.2352,-2.2138,-2.2031,-2.2004,-2.2084,-2.2098,-2.2191,-2.2485,-2.2539,-2.2605,-2.2867,-2.2893,-2.2893,-2.2893,-2.3073,-2.3354,-2.3763,-2.3968,-2.4209,-2.4466,-2.4559,-2.4599,-2.4599,-2.4917,-2.5184,-2.5398,-2.5797,-2.6105,-2.6319,-2.636,-2.6386,-2.6386,-2.6386,-2.6386,-2.6386,-2.6386,-2.6386,-2.6386,-2.6386,-2.6386,-2.6386,-2.6386,-2.6386,-2.6413,-2.6627,-2.676,-2.684,-2.7308,-2.7522,-2.7615,-2.7884,-2.7817,-2.7642,-2.7978,-2.8072,-2.8085,-2.8165,-2.9523,-3.1011,-3.1011,-3.1667,-3.3083,-3.6132,-3.4886,-3.3733,-3.7538,-3.6639,-3.5198,-3.6245,-3.5007,-3.3621,-3.3421,-3.4078,-3.4528,-3.4207,-3.4199,-3.3679,-3.1982,-3.1711,-3.1711,-3.1711,-3.1711,-3.1711,-3.1711,-3.1711,-3.1711,-3.1711,-3.1711,-3.1711,-3.1711,-3.1711,-3.1711,-3.1711,-3.1711,-3.1711,-3.1711,-3.1711,-3.1711,-3.1711,-3.1711,-3.1711,-3.1711,-3.1711,-3.1711,-2.1416,-2.183,-2.2245,-2.2539,-2.2512,-2.2385,-2.2385,-2.2218,-2.2024,-2.1863,-2.1729,-2.1643,-2.181,-2.1823,-2.193,-2.2178,-2.2338,-2.2472,-2.2645,-2.2813,-2.2947,-2.3046,-2.322,-2.3487,-2.3915,-2.4115,-2.4329,-2.4572,-2.4599,-2.4653,-2.4823,-2.5104,-2.5411,-2.5692,-2.6038,-2.6265,-2.6386,-2.6386,-2.6386,-2.6386,-2.6386,-2.6386,-2.6386,-2.6386,-2.6386,-2.6386,-2.6386,-2.6386,-2.6465,-2.7345,-2.727,-2.6666,-2.7733,-2.8356,-2.8663,-2.9015,-2.9241,-2.9492,-3.0644,-3.031,-2.9215,-2.8461,-2.8838,-2.9635,-2.9803,-3.1527,-3.3474,-3.3672,-3.4686,-3.6106,-3.7839,-3.7251,-3.6865,-3.9638,-3.8666,-3.7431,-3.8734,-3.806,-3.7324,-3.7667,-3.6322,-3.5114,-3.5247,-3.4406,-3.3276,-3.1901,-3.1711,-3.1711,-3.1711,-3.1711,-3.1711,-3.1711,-3.1711,-3.1711,-3.1711,-3.1711,-3.1711,-3.1711,-3.1711,-3.1711,-3.1711,-3.1711,-3.1711,-3.1711,-3.1711,-3.1711,-3.1711,-3.1711,-3.1711,-3.1711,-3.1711,-3.1711,-2.1844,-2.2231,-2.2525,-2.2786,-2.2605,-2.2392,-2.2325,-2.1884,-2.1515,-2.1475,-2.1203,-2.1145,-2.1696,-2.1622,-2.1633,-2.2198,-2.2297,-2.2378,-2.2371,-2.2672,-2.3014,-2.3252,-2.3332,-2.3607,-2.4155,-2.4235,-2.4369,-2.4586,-2.4639,-2.481,-2.5064,-2.5358,-2.5665,-2.6038,-2.6305,-2.6386,-2.6386,-2.6386,-2.6386,-2.6386,-2.6386,-2.6386,-2.6386,-2.6386,-2.6544,-2.6768,-2.6505,-2.6702,-2.7305,-2.8491,-2.8286,-2.7416,-2.925,-3.0415,-3.1036,-3.1366,-3.1644,-3.2093,-3.4042,-3.3431,-3.1516,-2.9648,-3.0372,-3.1967,-3.2324,-3.4046,-3.5973,-3.6333,-3.8066,-3.9486,-3.7808,-3.881,-4.0403,-4.0753,-3.962,-3.8976,-4.1102,-4.1644,-4.1807,-4.2018,-3.8943,-3.6282,-3.6282,-3.4514,-3.3041,-3.2725,-3.2408,-3.2171,-3.2171,-3.1901,-3.1711,-3.1711,-3.1711,-3.1711,-3.1711,-3.1711,-3.1711,-3.1711,-3.1711,-3.1711,-3.1711,-3.1711,-3.1711,-3.1711,-3.1711,-3.1711,-3.1711,-3.1711,-3.1711,-3.1711,-3.1711,-3.1711,-2.1951,-2.2412,-2.2773,-2.2539,-2.2458,-2.2298,-2.185,-2.143,-2.1122,-2.0913,-2.0588,-2.0866,-2.2526,-2.1734,-2.146,-2.3354,-2.2758,-2.2151,-2.2392,-2.2672,-2.3014,-2.3252,-2.3541,-2.3821,-2.4168,-2.4386,-2.4546,-2.4599,-2.4863,-2.5024,-2.5115,-2.5358,-2.5758,-2.6293,-2.636,-2.6386,-2.6386,-2.6386,-2.6386,-2.6386,-2.6386,-2.6386,-2.6386,-2.6386,-2.7305,-2.8803,-2.7109,-2.831,-3.1207,-2.8193,-2.7866,-2.9418,-3.0107,-3.065,-3.1228,-3.3321,-3.4075,-3.4164,-3.457,-3.4449,-3.4083,-3.3676,-3.4032,-3.4645,-3.471,-3.6729,-3.9033,-3.9104,-3.9659,-4.057,-4.2046,-4.1356,-4.0855,-4.3136,-4.3457,-4.3537,-4.463,-4.3553,-4.2441,-4.2469,-4.1852,-4.1349,-4.1349,-4.0988,-4.0022,-3.8033,-3.5974,-3.4686,-3.4686,-3.2913,-3.1711,-3.1711,-3.1711,-3.1711,-3.1711,-3.1711,-3.1711,-3.1711,-3.1711,-3.1711,-3.1711,-3.1711,-3.1711,-3.1711,-3.1711,-3.1711,-3.1711,-3.1711,-3.1711,-3.1711,-3.1711,-3.1711,-2.1991,-2.2452,-2.2827,-2.2485,-2.2311,-2.2044,-2.1456,-2.1127,-2.0802,-2.0508,-2.0304,-2.048,-2.1423,-2.1115,-2.1041,-2.2128,-2.2125,-2.2031,-2.2178,-2.2612,-2.3067,-2.35,-2.3688,-2.3941,-2.4382,-2.4519,-2.4599,-2.4599,-2.4917,-2.5144,-2.5291,-2.5732,-2.6092,-2.6386,-2.6386,-2.6386,-2.6386,-2.6386,-2.6386,-2.6386,-2.6386,-2.6386,-2.6386,-2.6386,-2.6925,-2.7801,-2.6807,-2.8115,-3.0839,-3.0173,-3.0667,-3.1992,-3.3474,-3.4273,-3.4742,-3.5932,-3.6362,-3.6522,-3.7657,-3.7463,-3.6858,-3.8002,-3.7748,-3.7067,-3.7507,-3.9439,-4.1575,-4.1782,-4.1948,-4.2326,-4.3402,-4.3058,-4.2766,-4.4084,-4.4746,-4.5234,-4.5859,-4.5239,-4.4517,-4.4517,-4.3504,-4.2577,-4.2577,-4.1573,-4.0356,-3.9175,-3.6883,-3.5277,-3.5277,-3.3182,-3.1711,-3.1711,-3.1711,-3.1711,-3.1711,-3.1711,-3.1711,-3.1711,-3.1711,-3.1711,-3.1711,-3.1711,-3.1711,-3.1711,-3.1711,-3.1711,-3.1711,-3.1711,-3.1711,-3.1724,-3.1824,-3.1891,-2.193,-2.2305,-2.2639,-2.2311,-2.2017,-2.1657,-2.1136,-2.0748,-2.0428,-2.0157,-2.0064,-2.0157,-2.0558,-2.0618,-2.0725,-2.1149,-2.1659,-2.1991,-2.1991,-2.2532,-2.3121,-2.3736,-2.3803,-2.3995,-2.4546,-2.4599,-2.4599,-2.4599,-2.497,-2.5304,-2.5585,-2.6106,-2.6386,-2.6386,-2.6386,-2.6386,-2.6386,-2.6386,-2.6386,-2.6386,-2.6386,-2.6386,-2.6426,-2.6847,-2.7305,-2.7698,-2.7698,-2.9099,-3.1453,-3.2615,-3.3559,-3.4435,-3.6532,-3.7553,-3.7975,-3.8429,-3.8587,-3.8843,-4.0588,-4.0327,-3.9533,-4.132,-4.0819,-3.9601,-4.0308,-4.1758,-4.3281,-4.3613,-4.3711,-4.373,-4.3828,-4.4121,-4.4453,-4.4629,-4.5254,-4.5898,-4.623,-4.6308,-4.6308,-4.6308,-4.4738,-4.3415,-4.3415,-4.1816,-4.0582,-4.0582,-3.8017,-3.6113,-3.6113,-3.3497,-3.1711,-3.1711,-3.1711,-3.1711,-3.1711,-3.1711,-3.1711,-3.1711,-3.1711,-3.1711,-3.1711,-3.1778,-3.1805,-3.1805,-3.1872,-3.1898,-3.1898,-3.1898,-3.1898,-3.1912,-3.2091,-3.2198,-2.1622,-2.1863,-2.2037,-2.1743,-2.1448,-2.1109,-2.0788,-2.0281,-1.9867,-1.984,-1.9626,-2.0002,-2.1686,-2.1058,-2.0835,-2.258,-2.238,-2.1991,-2.1991,-2.2532,-2.3121,-2.3736,-2.3803,-2.3995,-2.4546,-2.4599,-2.4599,-2.4599,-2.5157,-2.5598,-2.5944,-2.6252,-2.6386,-2.6386,-2.6386,-2.6386,-2.6386,-2.6386,-2.6386,-2.6386,-2.6386,-2.6386,-2.6465,-2.8296,-3.0168,-3.1934,-3.1934,-3.4169,-3.7494,-3.4377,-3.4372,-3.6412,-3.7156,-3.7632,-3.8134,-4.0138,-4.088,-4.0919,-4.1133,-4.1328,-4.1578,-4.2166,-4.2516,-4.2665,-4.2762,-4.3176,-4.3652,-4.3691,-4.3711,-4.3808,-4.4219,-4.4355,-4.459,-4.5371,-4.5918,-4.625,-4.6289,-4.6308,-4.6308,-4.6308,-4.6114,-4.5983,-4.5983,-4.5788,-4.5612,-4.5612,-4.1636,-3.8674,-3.8674,-3.4607,-3.1711,-3.1711,-3.1711,-3.1711,-3.1711,-3.1711,-3.1711,-3.1711,-3.1711,-3.1711,-3.1711,-3.1917,-3.2064,-3.2064,-3.238,-3.2514,-3.2514,-3.2514,-3.2514,-3.2514,-3.2541,-3.2554,-2.1283,-2.163,-2.1903,-2.1435,-2.1203,-2.0935,-2.0294,-1.9973,-1.9746,-1.9573,-1.9481,-1.9631,-2.0381,-2.0353,-2.0449,-2.1227,-2.1579,-2.1823,-2.1997,-2.2338,-2.2886,-2.371,-2.3803,-2.3995,-2.4546,-2.4599,-2.4746,-2.5093,-2.5346,-2.5718,-2.6225,-2.6333,-2.6386,-2.6386,-2.6386,-2.6386,-2.6386,-2.6386,-2.7004,-2.8179,-2.6965,-2.7698,-3.0068,-2.9604,-2.9859,-3.0708,-3.1972,-3.3415,-3.4934,-3.5211,-3.6617,-3.8652,-3.943,-3.9791,-3.9982,-4.088,-4.1211,-4.125,-4.1465,-4.1816,-4.2246,-4.2676,-4.3105,-4.3457,-4.3457,-4.3574,-4.3711,-4.3711,-4.3906,-4.416,-4.4355,-4.4785,-4.5312,-4.5918,-4.6191,-4.6308,-4.6308,-4.6308,-4.6308,-4.6308,-4.6308,-4.6308,-4.6308,-4.6308,-4.6308,-4.6308,-4.3371,-4.1169,-4.1169,-3.8216,-3.5524,-3.4046,-3.2583,-3.1711,-3.1711,-3.1711,-3.1711,-3.1711,-3.1837,-3.1931,-3.1931,-3.226,-3.242,-3.242,-3.2541,-3.2594,-3.2594,-3.2594,-3.2594,-3.2594,-3.2781,-3.2848,-2.0824,-2.1149,-2.1363,-2.0949,-2.0788,-2.0561,-1.9947,-1.9733,-1.9642,-1.9441,-1.9401,-1.9401,-1.9401,-1.9773,-2.0104,-2.0184,-2.0909,-2.1582,-2.197,-2.2231,-2.2752,-2.3696,-2.3803,-2.3995,-2.4546,-2.4599,-2.4839,-2.5464,-2.5518,-2.5772,-2.636,-2.6386,-2.6386,-2.6386,-2.6386,-2.6386,-2.6386,-2.7004,-2.7997,-2.9371,-2.7958,-2.9099,-3.2467,-3.0977,-3.0615,-3.1344,-3.3398,-3.4319,-3.4501,-3.678,-3.8576,-3.998,-4.0878,-4.1211,-4.1211,-4.1211,-4.1211,-4.1269,-4.166,-4.207,-4.25,-4.293,-4.3359,-4.3711,-4.3711,-4.3711,-4.3711,-4.3711,-4.4121,-4.4609,-4.4746,-4.5312,-4.5937,-4.623,-4.6308,-4.6308,-4.6308,-4.6308,-4.6308,-4.6308,-4.6308,-4.6308,-4.6308,-4.6308,-4.6308,-4.6308,-4.4188,-4.2577,-4.2577,-4.0492,-3.8353,-3.656,-3.4233,-3.2489,-3.1758,-3.1711,-3.1751,-3.1797,-3.1984,-3.2144,-3.2225,-3.2567,-3.2728,-3.2728,-3.2808,-3.2848,-3.2848,-3.2848,-3.2848,-3.2848,-3.3013,-3.3106,-2.021,-2.021,-2.0224,-2.021,-1.9997,-1.9813,-1.98,-1.9573,-1.9401,-1.9401,-1.9401,-1.9401,-1.9401,-1.9599,-1.9893,-2.0157,-2.0704,-2.1323,-2.193,-2.2231,-2.2752,-2.3696,-2.3803,-2.3995,-2.4546,-2.4599,-2.4839,-2.5464,-2.5518,-2.5772,-2.636,-2.6386,-2.6386,-2.6386,-2.6386,-2.6386,-2.6386,-2.8374,-2.9371,-2.941,-2.9371,-3.0477,-3.2505,-3.2467,-3.3549,-3.5534,-3.7621,-3.8538,-3.8616,-3.9494,-3.9902,-3.998,-4.0878,-4.1211,-4.1211,-4.1211,-4.1211,-4.1269,-4.166,-4.207,-4.25,-4.293,-4.3359,-4.3711,-4.3711,-4.3711,-4.3711,-4.3711,-4.4336,-4.5117,-4.5547,-4.5976,-4.6289,-4.6308,-4.6308,-4.6308,-4.6308,-4.6308,-4.6308,-4.6308,-4.6308,-4.6308,-4.6308,-4.6308,-4.6308,-4.6308,-4.4188,-4.2577,-4.2577,-4.0492,-3.8977,-3.8947,-3.6745,-3.428,-3.1901,-3.1711,-3.1797,-3.2078,-3.2104,-3.2238,-3.2581,-3.2875,-3.2973,-3.2973,-3.3253,-3.34,-3.34,-3.34,-3.34,-3.34,-3.34,-3.3414,-1.9933,-2.005,-2.0157,-1.9957,-1.9867,-1.9746,-1.9575,-1.9468,-1.9401,-1.9401,-1.9401,-1.9401,-1.9401,-1.9773,-2.009,-2.0184,-2.0691,-2.1309,-2.193,-2.2071,-2.2458,-2.3354,-2.3821,-2.4222,-2.4559,-2.4599,-2.4839,-2.5464,-2.5518,-2.5772,-2.636,-2.6386,-2.7044,-2.8413,-2.7122,-2.7083,-2.8452,-2.906,-3.0091,-3.1513,-3.1513,-3.3322,-3.6627,-3.5217,-3.49,-3.5626,-3.7695,-3.7805,-3.6645,-3.8931,-3.9902,-3.998,-4.0878,-4.1211,-4.1211,-4.1211,-4.1211,-4.1308,-4.1992,-4.2265,-4.2499,-4.3281,-4.3594,-4.3711,-4.3711,-4.3711,-4.3828,-4.4433,-4.5019,-4.5566,-4.5996,-4.6211,-4.6308,-4.6308,-4.6308,-4.6308,-4.6308,-4.6308,-4.6308,-4.6308,-4.6308,-4.6308,-4.6308,-4.6308,-4.6308,-4.6308,-4.5612,-4.5153,-4.5153,-4.4473,-4.3327,-4.1618,-3.9295,-3.6837,-3.4373,-3.263,-3.1797,-3.2078,-3.234,-3.2581,-3.2875,-3.312,-3.328,-3.328,-3.336,-3.3414,-3.3414,-3.3414,-3.3414,-3.3414,-3.3414,-3.3414,-1.9639,-1.9773,-1.9867,-1.9679,-1.9639,-1.9615,-1.9441,-1.9401,-1.9401,-1.9401,-1.9401,-1.9401,-1.9401,-1.976,-2.0077,-2.0184,-2.0641,-2.1189,-2.1884,-2.1991,-2.2365,-2.338,-2.3915,-2.4315,-2.4572,-2.4599,-2.4839,-2.5464,-2.5518,-2.5772,-2.636,-2.7109,-2.8452,-3.0515,-2.7841,-2.7723,-3.0554,-3.0554,-3.1207,-3.2505,-3.3247,-3.4956,-3.7382,-3.6072,-3.5924,-3.6737,-3.8024,-3.7878,0.0,-3.9025,-3.9902,-3.998,-4.0878,-4.1211,-4.1211,-4.1211,-4.1211,-4.1328,-4.2129,-4.2382,-4.2518,-4.3418,-4.3711,-4.373,-4.3906,-4.3965,-4.4121,-4.4782,-4.5332,-4.5781,-4.6191,-4.6308,-4.6308,-4.6308,-4.6308,-4.6308,-4.6308,-4.6308,-4.6308,-4.6308,-4.6308,-4.6308,-4.6308,-4.6308,-4.6308,-4.6308,-4.6308,-4.6308,-4.6308,-4.6308,-4.57,-4.4144,-4.0988,-3.8399,-3.6837,-3.3638,-3.1885,-3.2238,-3.2487,-3.2781,-3.3133,-3.332,-3.3414,-3.3414,-3.3414,-3.3414,-3.3414,-3.3414,-3.3414,-3.3414,-3.3414,-3.3414,0.0,-1.9401,-1.9401,-1.9401,-1.9401,-1.9401,-1.9401,-1.9401,0.0,-1.9401,-1.9401,-1.9401,-1.9401,-1.9626,-1.992,-2.0157,-2.0494,-2.1034,-2.1871,-2.205,-2.2505,-2.3669,-2.4008,-2.4289,-2.4572,-2.4599,-2.4839,-2.5464,-2.5518,-2.5772,-2.636,-2.8179,-3.013,-3.2201,-2.8466,-2.8349,-3.2467,-3.2505,-3.2505,-3.2543,-3.4676,-3.5738,-3.5738,-3.5738,-3.6756,-3.8611,-3.8611,-3.8611,-3.8689,-3.9531,-3.9902,-3.998,-4.0878,-4.1211,-4.1211,-4.1211,-4.1211,-4.1328,-4.2129,-4.2382,-4.2518,-4.3418,-4.3711,-4.3789,-4.4258,-4.4414,-4.4531,-4.4961,-4.5391,-4.582,-4.6191,-4.6308,-4.6308,-4.6308,-4.6308,-4.6308,-4.6308,-4.6308,-4.6308,-4.6308,-4.6308,-4.6308,-4.6308,-4.6308,-4.6308,-4.6308,-4.6308,-4.6308,-4.6308,-4.6308,-4.6308,-4.6308,-4.1905,-3.8993,-3.8993,-3.4514,-3.1965,-3.2554,-3.2594,-3.2848,-3.3387,-3.3414,-3.3414,-3.3414,-3.3414,-3.3414,-3.3414,-3.3414,-3.3414,-3.3414,-3.3414,-3.3414,-1.9401,0.0,-1.9401,-1.9401,-1.9401,-1.9401,0.0,-1.9401,-1.9401,-1.9401,-1.9401,-1.9401,-1.9401,-1.9786,-2.0117,-2.0197,-2.0637,-2.1243,-2.1897,-2.2412,-2.2974,-2.3723,-2.387,-2.4075,-2.4546,-2.4599,-2.4839,-2.5464,-2.5518,-2.5772,-2.636,-2.6847,-2.8036,-3.0053,-2.7698,-2.8349,-3.2467,-3.2505,-3.2505,-3.2543,-3.6127,-3.7878,-3.7878,-3.7878,-3.8153,-3.8611,-3.8611,-3.8611,-3.8689,-3.9531,-3.9902,-3.998,-4.0878,-4.1211,-4.1211,-4.1211,-4.1211,-4.1328,-4.2129,-4.2382,-4.2518,-4.3418,-4.3711,-4.3789,-4.4258,-4.4629,-4.4961,-4.5391,-4.582,-4.6172,-4.6289,-4.6308,-4.6308,-4.6308,-4.6308,-4.6308,-4.6308,-4.6308,-4.6308,-4.6308,-4.6308,-4.6308,-4.6308,-4.6308,-4.6308,-4.6308,-4.6308,-4.6308,-4.6308,-4.6308,-4.6308,-4.6308,-4.1905,-3.8993,-3.8993,-3.4514,-3.1965,-3.2554,-3.2594,-3.2848,-3.3387,-3.3414,-3.3414,-3.3414,-3.3414,-3.3414,-3.3414,-3.3414,-3.3414,-3.3414,-3.3414,-3.3414,-1.9401,-1.9401,-1.9401,-1.9401,-1.9401,-1.9401,-1.9401,-1.9401,-1.9401,-1.9401,-1.9401,-1.9441,-1.9575,-1.9933,-2.025,-2.0414,-2.0935,-2.151,-2.2098,-2.2699,-2.3247,-2.375,-2.3924,-2.4142,-2.4559,-2.4599,-2.4786,-2.5277,-2.5438,-2.5705,-2.6198,-2.7197,-2.8296,-2.9371,-2.8335,-2.9743,-3.385,-3.2944,-3.2944,-3.3926,-3.7088,-3.8117,-3.7235,-3.8153,-3.8611,-3.8611,-3.8611,-3.8611,-3.8689,-3.9531,-3.9902,-3.998,-4.0878,-4.1211,-4.1211,-4.1211,-4.1328,-4.1562,-4.2167,-4.2635,-4.3086,-4.3555,-4.3711,-4.3828,-4.4492,-4.4844,-4.5117,-4.5547,-4.5976,-4.6308,-4.6308,-4.6308,-4.6308,-4.6308,-4.6308,-4.6308,-4.6308,-4.6308,-4.6308,-4.6308,-4.6308,-4.6308,-4.6308,-4.6308,-4.6308,-4.6308,-4.6308,-4.6308,-4.6308,-4.6308,-4.6308,-4.6308,-4.1905,-3.8993,-3.8993,-3.4645,-3.2112,-3.2567,-3.2728,-3.2946,-3.3387,-3.3414,-3.3414,-3.3414,-3.3414,-3.3414,-3.3414,-3.3414,-3.3414,-3.3414,-3.3414,-3.3414,-1.9401,-1.9401,-1.9401,-1.9401,-1.9401,-1.9401,-1.9401,-1.9401,-1.9401,-1.9401,-1.9401,-1.9481,-1.9746,-2.001,-2.0304,-2.0659,-2.1234,-2.1836,-2.2338,-2.2905,-2.3434,-2.3763,-2.4022,-2.4315,-2.4572,-2.4599,-2.4756,-2.5064,-2.5344,-2.5638,-2.5984,-2.8162,-2.9255,-2.8944,-2.9255,-3.1229,-3.5012,-3.336,-3.3511,-3.5534,-3.7621,-3.7695,-3.6035,-3.7805,-3.8611,-3.8611,-3.8611,-3.8611,-3.8689,-3.9531,-3.9902,-3.998,-4.0878,-4.1211,-4.1211,-4.1211,-4.1445,-4.1875,-4.2363,-4.3047,-4.3711,-4.3711,-4.3711,-4.3867,-4.4766,-4.4977,-4.5137,-4.5625,-4.6035,-4.6308,-4.6308,-4.6308,-4.6308,-4.6308,-4.6308,-4.6308,-4.6308,-4.6308,-4.6308,-4.6308,-4.6308,-4.6308,-4.6308,-4.6308,-4.6308,-4.6308,-4.6308,-4.6308,-4.6308,-4.6308,-4.6308,-4.6308,-4.1905,-3.8993,-3.8993,-3.4802,-3.2278,-3.2581,-3.2875,-3.3106,-3.34,-3.3414,-3.3414,-3.3414,-3.3414,-3.3414,-3.3414,-3.3414,-3.3414,-3.3414,-3.3414,-3.3414,-1.9401,-1.9401,-1.9401,-1.9401,-1.9401,-1.9401,-1.9401,-1.9401,-1.9401,-1.9401,-1.9401,-1.9481,-1.9746,-2.001,-2.0304,-2.0659,-2.1408,-2.2031,-2.2378,-2.2905,-2.3434,-2.3763,-2.4022,-2.4315,-2.4572,-2.4599,-2.4756,-2.5064,-2.5344,-2.5638,-2.5984,-2.8162,-2.8608,-2.6925,-2.853,-3.0554,-3.2944,-3.2657,-3.3511,-3.5534,-3.7621,-3.8428,-3.8153,-3.8465,-3.8611,-3.8611,-3.8611,-3.8611,-3.8689,-3.9531,-3.9902,-3.998,-4.0878,-4.1211,-4.1211,-4.1211,-4.1445,-4.1914,-4.2715,-4.3301,-4.3711,-4.3711,-4.3711,-4.3867,-4.4766,-4.4977,-4.5195,-4.5976,-4.625,-4.6308,-4.6308,-4.6308,-4.6308,-4.6308,-4.6308,-4.6308,-4.6308,-4.6308,-4.6308,-4.6308,-4.6308,-4.6308,-4.6308,-4.6308,-4.6308,-4.6308,-4.6308,-4.6308,-4.6308,-4.6308,-4.6308,-4.6308,-4.1905,-3.8993,-3.8993,-3.5006,-3.2541,-3.2594,-3.2875,-3.3106,-3.34,-3.3414,-3.3414,-3.3414,-3.3414,-3.3414,-3.3414,-3.3414,-3.3414,-3.3414,-3.3414,-3.3414,-1.9401,-1.9401,-1.9401,-1.9401,-1.9401,-1.9401,-1.9401,-1.9401,-1.9401,-1.9401,-1.9522,-1.9693,-1.9987,-2.0281,-2.0668,-2.1315,-2.1724,-2.2171,-2.2592,-2.318,-2.3621,-2.379,-2.4168,-2.4452,-2.4586,-2.4599,-2.4653,-2.4823,-2.5264,-2.5571,-2.5705,-2.8076,-2.8491,-2.6465,-2.8335,-3.04,-3.2467,-3.2505,-3.4093,-3.7198,-3.8153,-3.8611,-3.8611,-3.8611,-3.8611,-3.8611,-3.8611,-3.8611,-3.8689,-3.9531,-3.9902,-3.998,-4.0878,-4.1211,-4.1269,-4.168,-4.1973,-4.2266,-4.3125,-4.3555,-4.3711,-4.3711,-4.3867,-4.4199,-4.4824,-4.5195,-4.5508,-4.6133,-4.6308,-4.6308,-4.6308,-4.6308,-4.6308,-4.6308,-4.6308,-4.6308,-4.6308,-4.6308,-4.6308,-4.6308,-4.6308,-4.6308,-4.6308,-4.6308,-4.6308,-4.6308,-4.6308,-4.6308,-4.6308,-4.6308,-4.6308,-4.6308,-4.1905,-3.8993,-3.8993,-3.505,-3.2728,-3.2986,-3.3133,-3.3267,-3.34,-3.3414,-3.3414,-3.3414,-3.3414,-3.3414,-3.3414,-3.3414,-3.3414,-3.3414,-3.3414,-3.3414,-1.9401,-1.9401,-1.9401,-1.9401,-1.9401,-1.9401,-1.9401,-1.9401,-1.9415,-1.9481,-1.9639,-1.9907,-2.0237,-2.0628,-2.1154,-2.1871,-2.2044,-2.2271,-2.2827,-2.3415,-2.3803,-2.3803,-2.4289,-2.4599,-2.4599,-2.4599,-2.4599,-2.4599,-2.5117,-2.5438,-2.5504,-2.8379,-2.8909,-2.6465,-2.8842,-3.09,-3.2467,-3.201,-3.4093,-3.8611,-3.8611,-3.8611,-3.8611,-3.8611,-3.8611,-3.8611,-3.8611,-3.8669,-3.8826,-3.957,-3.9961,-4.0117,-4.0917,-4.1211,-4.1308,-4.2109,-4.2382,-4.2499,-4.3418,-4.3711,-4.3711,-4.3711,-4.4023,-4.4473,-4.4902,-4.5332,-4.5762,-4.6191,-4.6308,-4.6308,-4.6308,-4.6308,-4.6308,-4.6308,-4.6308,-4.6308,-4.6308,-4.6308,-4.6308,-4.6308,-4.6308,-4.6308,-4.6308,-4.6308,-4.6308,-4.6308,-4.6308,-4.6308,-4.6308,-4.6308,-4.6308,-4.6308,-4.1905,-3.8602,-3.7565,-3.4483,-3.2848,-3.3374,-3.3414,-3.3414,-3.3414,-3.3414,-3.3414,-3.3414,-3.3414,-3.3414,-3.3414,-3.3414,-3.3414,-3.3414,-3.3414,-3.3414,-1.9401,-1.9401,-1.9401,-1.9401,-1.9401,-1.9401,-1.9401,-1.9401,-1.9468,-1.972,-1.9786,-1.9973,-2.0579,-2.1141,-2.1636,-2.197,-2.2218,-2.2498,-2.2853,-2.3415,-2.3803,-2.3803,-2.4289,-2.4599,-2.4599,-2.4599,-2.4599,-2.4599,-2.493,-2.5224,-2.5504,-2.951,-3.0152,-2.6491,-3.0207,-3.2353,-3.2505,-3.0592,-3.2641,-3.8611,-3.8611,-3.8611,-3.8611,-3.8611,-3.8611,-3.8611,-3.8611,-3.8789,-3.9199,-3.9687,-4.0117,-4.0527,-4.0996,-4.1211,-4.1308,-4.2109,-4.2382,-4.2499,-4.3418,-4.3711,-4.3711,-4.3711,-4.4023,-4.4473,-4.4902,-4.5332,-4.5762,-4.6191,-4.6308,-4.6308,-4.6308,-4.6308,-4.6308,-4.6308,-4.6308,-4.6308,-4.6308,-4.6308,-4.6308,-4.6308,-4.6308,-4.6308,-4.6308,-4.6308,-4.6308,-4.6308,-4.6308,-4.6308,-4.6308,-4.6308,-4.6308,-4.6308,-4.1905,-3.7381,-3.3381,-3.2762,-3.2848,-3.3374,-3.3414,-3.3414,-3.3414,-3.3414,-3.3414,-3.3414,-3.3414,-3.3414,-3.3414,-3.3414,-3.3414,-3.3414,-3.3414,-3.3414,-1.9401,-1.9401,-1.9401,-1.9401,-1.9535,-1.9639,-1.9639,-1.9639,-1.972,-1.9983,-2.0214,-2.0552,-2.1141,-2.1435,-2.1743,-2.2178,-2.2352,-2.2525,-2.2853,-2.3415,-2.3803,-2.3803,-2.4289,-2.4599,-2.4599,-2.4599,-2.4599,-2.4599,-2.4917,-2.5211,-2.5504,-2.8449,-2.899,-2.6491,-2.9099,-3.1207,-3.2505,-3.0438,-3.2489,-3.8574,-3.7309,-3.7345,-3.8611,-3.8611,-3.8611,-3.8611,-3.8611,-3.8809,-3.9238,-3.9707,-4.0137,-4.0566,-4.0996,-4.1211,-4.1308,-4.2109,-4.2382,-4.2499,-4.3418,-4.3711,-4.3711,-4.3711,-4.4199,-4.4824,-4.4938,-4.5508,-4.6094,-4.625,-4.6308,-4.6308,-4.6308,-4.6308,-4.6308,-4.6308,-4.6308,-4.6308,-4.6308,-4.6308,-4.6308,-4.6308,-4.6308,-4.6308,-4.6308,-4.6308,-4.6308,-4.6308,-4.6308,-4.6308,-4.6308,-4.6308,-4.6308,-4.6308,-4.1905,-3.7257,-3.2965,-3.2594,-3.2848,-3.3374,-3.3414,-3.3414,-3.3414,-3.3414,-3.3414,-3.3414,-3.3414,-3.3414,-3.3414,-3.3414,-3.3414,-3.3414,-3.3414,-3.3414,-1.9401,-1.9401,-1.9401,-1.9401,-1.9615,-1.9826,-1.992,-1.9933,-2.0027,-2.0307,-2.0681,-2.11,-2.1515,-2.1743,-2.1951,-2.2352,-2.2498,-2.2632,-2.2867,-2.3415,-2.3803,-2.3803,-2.4289,-2.4599,-2.4599,-2.4599,-2.4599,-2.4599,-2.4823,-2.5064,-2.5358,-2.7597,-2.8052,-2.6318,-2.8331,-3.0091,-3.1513,-2.9487,-3.1536,-3.7602,-3.5552,-3.5979,-3.8611,-3.8611,-3.8611,-3.8611,-3.8611,-3.8887,-3.9453,-3.9766,-4.0215,-4.0762,-4.1055,-4.1289,-4.1465,-4.2168,-4.2479,-4.2734,-4.3457,-4.3711,-4.3711,-4.3711,-4.4297,-4.4977,-4.4977,-4.5625,-4.6308,-4.6308,-4.6308,-4.6308,-4.6308,-4.6308,-4.6308,-4.6308,-4.6308,-4.6308,-4.6308,-4.6308,-4.6308,-4.6308,-4.6308,-4.6308,-4.6308,-4.6308,-4.6308,-4.6308,-4.6308,-4.6308,-4.6308,-4.6308,-4.57,-4.4144,-4.0311,-3.6434,-3.2916,-3.2594,-3.2848,-3.3374,-3.3414,-3.3414,-3.3414,-3.3414,-3.3414,-3.3414,-3.3414,-3.3414,-3.3414,-3.3414,-3.3414,-3.3414,-3.3414,-3.3414,-1.9401,-1.9401,-1.9401,-1.9401,-1.9615,-1.988,-2.0144,-2.021,-2.029,-2.0628,-2.1181,-2.1582,-2.1628,-2.2031,-2.2385,-2.2385,-2.2672,-2.2893,-2.2893,-2.3415,-2.3803,-2.3803,-2.4275,-2.4599,-2.4599,-2.4599,-2.4599,-2.4599,-2.4599,-2.477,-2.5064,-2.7303,-2.7772,-2.6062,-2.8177,-2.9371,-2.941,-2.7423,-2.9472,-3.546,-3.3473,-3.4619,-3.8611,-3.8611,-3.8611,-3.8611,-3.8611,-3.9082,-3.9902,-3.9902,-4.041,-4.1211,-4.1211,-4.1426,-4.1855,-4.2226,-4.2695,-4.3144,-4.3555,-4.3711,-4.3711,-4.3711,-4.4297,-4.4977,-4.4977,-4.5625,-4.6308,-4.6308,-4.6308,-4.6308,-4.6308,-4.6308,-4.6308,-4.6308,-4.6308,-4.6308,-4.6308,-4.6308,-4.6308,-4.6308,-4.6308,-4.6308,-4.6308,-4.6308,-4.6308,-4.6308,-4.6308,-4.6308,-4.6308,-4.6265,-4.4384,-3.954,-3.6791,-3.4588,-3.2735,-3.2594,-3.2848,-3.3374,-3.3414,-3.3414,-3.3414,-3.3414,-3.3414,-3.3414,-3.3414,-3.3414,-3.3414,-3.3414,-3.3414,-3.3414,-3.3414,-3.3414,-1.9401,-1.9401,-1.9441,-1.9626,-1.9893,-2.0144,-2.0481,-2.0548,-2.0681,-2.1221,-2.1462,-2.1716,-2.2084,-2.2298,-2.2485,-2.2699,-2.284,-2.2893,-2.2893,-2.3207,-2.3541,-2.3777,-2.4102,-2.4372,-2.4586,-2.4599,-2.4599,-2.4599,-2.4599,-2.477,-2.5064,-2.5951,-2.629,-2.6023,-2.6854,-2.7958,-2.941,-2.7423,-2.9472,-3.546,-3.3473,-3.4619,-3.8611,-3.8611,-3.8611,-3.8611,-3.8611,-3.9082,-3.9941,-4.0547,-4.0996,-4.1211,-4.1211,-4.1426,-4.1855,-4.2226,-4.2695,-4.3144,-4.3555,-4.3711,-4.3711,-4.3711,-4.4297,-4.4977,-4.4977,-4.5625,-4.6308,-4.6308,-4.6308,-4.6308,-4.6308,-4.6308,-4.6308,-4.6308,-4.6308,-4.6308,-4.6308,-4.6308,-4.6308,-4.6308,-4.6308,-4.6308,-4.6308,-4.6308,-4.6308,-4.6308,-4.6308,-4.6308,-4.6308,-4.4782,-4.2487,-3.9358,-3.7009,-3.4835,-3.2749,-3.2781,-3.3013,-3.3387,-3.3414,-3.3414,-3.3414,-3.3414,-3.3414,-3.3414,-3.3414,-3.3414,-3.3414,-3.3414,-3.3414,-3.3414,-3.3414,-3.3414,-1.9401,-1.9401,-1.9468,-1.9733,-1.9983,-2.0304,-2.0748,-2.0855,-2.1007,-2.1489,-2.1676,-2.1903,-2.2338,-2.2512,-2.2659,-2.2867,-2.2893,-2.2893,-2.2893,-2.3126,-2.3434,-2.3763,-2.4022,-2.4315,-2.4572,-2.4599,-2.4599,-2.4599,-2.4599,-2.4679,-2.489,-2.5291,-2.5598,-2.5772,-2.6172,-2.6965,-2.8179,-2.7004,-2.906,-3.4301,-3.3058,-3.4619,-3.8611,-3.8611,-3.8611,-3.863,-3.8982,-3.9394,-3.9961,-4.0859,-4.1211,-4.1211,-4.1211,-4.1523,-4.207,-4.2304,-4.2812,-4.3359,-4.3613,-4.3711,-4.3711,-4.3711,-4.4297,-4.4977,-4.4977,-4.5625,-4.6308,-4.6308,-4.6308,-4.6308,-4.6308,-4.6308,-4.6308,-4.6308,-4.6308,-4.6308,-4.6308,-4.6308,-4.6308,-4.6308,-4.6308,-4.6308,-4.6308,-4.6308,-4.6308,-4.6308,-4.6308,-4.6308,-4.6308,-4.3327,-4.0627,-3.9175,-3.6184,-3.3867,-3.2713,-3.2862,-3.3106,-3.3387,-3.3414,-3.3414,-3.3414,-3.3414,-3.3414,-3.3414,-3.3414,-3.3414,-3.3414,-3.3414,-3.3414,-3.3414,-3.3414,-3.3414,-1.9401,-1.9401,-1.9468,-1.976,-2.005,-2.0424,-2.0957,-2.1136,-2.1229,-2.1569,-2.185,-2.2111,-2.2405,-2.2686,-2.2893,-2.2893,-2.2893,-2.2893,-2.2893,-2.31,-2.3407,-2.3763,-2.4008,-2.4289,-2.4572,-2.4599,-2.4599,-2.4599,-2.4599,-2.4599,-2.4599,-2.5159,-2.5518,-2.5518,-2.6079,-2.6386,-2.6386,-2.6386,-2.8349,-3.2239,-3.2429,-3.4544,-3.8299,-3.8501,-3.8611,-3.8669,-3.9512,-3.9902,-3.9961,-4.0859,-4.1211,-4.1211,-4.1211,-4.168,-4.2382,-4.2382,-4.2969,-4.3711,-4.3711,-4.3711,-4.3711,-4.3711,-4.4297,-4.4977,-4.4977,-4.5625,-4.6308,-4.6308,-4.6308,-4.6308,-4.6308,-4.6308,-4.6308,-4.6308,-4.6308,-4.6308,-4.6308,-4.6308,-4.6308,-4.6308,-4.6308,-4.6308,-4.6308,-4.6308,-4.6308,-4.6308,-4.6308,-4.6308,-4.6308,-4.204,-3.8993,-3.8993,-3.4867,-3.2251,-3.2567,-3.2888,-3.3133,-3.3387,-3.3414,-3.3414,-3.3414,-3.3414,-3.3414,-3.3414,-3.3414,-3.3414,-3.3414,-3.3414,-3.3414,-3.3414,-3.3414,-3.3414,-1.9401,-1.9401,-1.9522,-1.9983,-2.0504,-2.0949,-2.1082,-2.1296,-2.1569,-2.1863,-2.2124,-2.2418,-2.2746,-2.2853,-2.2893,-2.2893,-2.2893,-2.2893,-2.2893,-2.296,-2.3201,-2.3736,-2.3857,-2.4062,-2.4546,-2.4599,-2.4599,-2.4599,-2.4599,-2.4599,-2.4599,-2.5159,-2.5518,-2.5518,-2.6079,-2.6386,-2.6386,-2.6386,-2.7619,-3.0091,-3.1743,-3.3775,-3.622,-3.7841,-3.8611,-3.8669,-3.9512,-3.9902,-3.9961,-4.0859,-4.1211,-4.1211,-4.1211,-4.168,-4.2382,-4.2382,-4.2969,-4.3711,-4.3711,-4.3711,-4.3711,-4.3711,-4.4297,-4.4977,-4.4977,-4.5625,-4.6308,-4.6308,-4.6308,-4.6308,-4.6308,-4.6308,-4.6308,-4.6308,-4.6308,-4.6308,-4.6308,-4.6308,-4.6308,-4.6308,-4.6308,-4.6308,-4.6308,-4.6308,-4.6308,-4.6308,-4.6308,-4.6308,-4.6308,-4.204,-3.8993,-3.8993,-3.5119,-3.2527,-3.2594,-3.3026,-3.3347,-3.3414,-3.3414,-3.3414,-3.3414,-3.3414,-3.3414,-3.3414,-3.3414,-3.3414,-3.3414,-3.3414,-3.3414,-3.3414,-3.3414,-3.3414,-1.9401,-1.9401,-1.9535,-2.0064,-2.0637,-2.1109,-2.1109,-2.1368,-2.1662,-2.1924,-2.2218,-2.2512,-2.284,-2.2893,-2.2893,-2.2893,-2.2893,-2.2893,-2.2893,-2.2893,-2.3067,-2.35,-2.3688,-2.3941,-2.4382,-2.4519,-2.4599,-2.4599,-2.4599,-2.4599,-2.4599,-2.5064,-2.5371,-2.5504,-2.5945,-2.6292,-2.6386,-2.6386,-2.7423,-2.9395,-3.0515,-3.2603,-3.5571,-3.7658,-3.8728,-3.8906,-3.959,-4.0019,-4.0254,-4.0898,-4.1211,-4.1211,-4.1211,-4.168,-4.2382,-4.2382,-4.2969,-4.3711,-4.3711,-4.3711,-4.3711,-4.3711,-4.4297,-4.4977,-4.4977,-4.5625,-4.6308,-4.6308,-4.6308,-4.6308,-4.6308,-4.6308,-4.6308,-4.6308,-4.6308,-4.6308,-4.6308,-4.6308,-4.6308,-4.6308,-4.6308,-4.6308,-4.6308,-4.6308,-4.6308,-4.6308,-4.6308,-4.5895,-4.4693,-4.1304,-3.8536,-3.7344,-3.4431,-3.2594,-3.2594,-3.308,-3.3414,-3.3414,-3.3414,-3.3414,-3.3414,-3.3414,-3.3414,-3.3414,-3.3414,-3.3414,-3.3414,-3.3414,-3.3414,-3.3414,-3.3414,-3.3414,-1.9401,-1.9468,-1.9626,-2.0077,-2.0637,-2.1109,-2.1109,-2.1368,-2.1662,-2.1924,-2.2218,-2.2512,-2.284,-2.2893,-2.2893,-2.2893,-2.2893,-2.2893,-2.2893,-2.2893,-2.3014,-2.3252,-2.3594,-2.3924,-2.4168,-2.4426,-2.4599,-2.4599,-2.4599,-2.4599,-2.4599,-2.4917,-2.5211,-2.5504,-2.5837,-2.6131,-2.6386,-2.6386,-2.7227,-2.8866,-2.9589,-3.1901,-3.5571,-3.7658,-3.8809,-3.9219,-3.9687,-4.0137,-4.0566,-4.0996,-4.1211,-4.1211,-4.1289,-4.1758,-4.2401,-4.25,-4.3027,-4.3711,-4.3711,-4.3711,-4.3711,-4.3789,-4.4375,-4.5039,-4.5117,-4.5683,-4.6308,-4.6308,-4.6308,-4.6308,-4.6308,-4.6308,-4.6308,-4.6308,-4.6308,-4.6308,-4.6308,-4.6308,-4.6308,-4.6308,-4.6308,-4.6308,-4.6308,-4.6308,-4.6308,-4.6308,-4.6308,-4.5373,-4.2907,-4.0492,-3.8049,-3.5631,-3.3723,-3.2621,-3.2661,-3.3106,-3.3414,-3.3414,-3.3414,-3.3414,-3.3414,-3.3414,-3.3414,-3.3414,-3.3414,-3.3414,-3.3414,-3.3414,-3.3414,-3.3414,-3.3414,-3.3414,-1.9401,-1.9733,-2.0104,-2.0184,-2.0637,-2.1109,-2.1109,-2.1368,-2.1662,-2.1924,-2.2218,-2.2512,-2.284,-2.2893,-2.2893,-2.2893,-2.2893,-2.2893,-2.2893,-2.2893,-2.3014,-2.3252,-2.3594,-2.3924,-2.4168,-2.4426,-2.4599,-2.4599,-2.4599,-2.4599,-2.4599,-2.4917,-2.5211,-2.5504,-2.5837,-2.6131,-2.6386,-2.6386,-2.6544,-2.6847,-3.04,-3.3285,-3.5571,-3.7658,-3.8809,-3.9219,-3.9687,-4.0137,-4.0566,-4.0996,-4.1211,-4.125,-4.1562,-4.2012,-4.244,-4.2851,-4.3301,-4.3711,-4.3711,-4.3711,-4.3769,-4.418,-4.4629,-4.5098,-4.5469,-4.5918,-4.6308,-4.6308,-4.6308,-4.6308,-4.6308,-4.6308,-4.6308,-4.6308,-4.6308,-4.6308,-4.6308,-4.6308,-4.6308,-4.6308,-4.6308,-4.6308,-4.6308,-4.6308,-4.6308,-4.6308,-4.6308,-4.5373,-4.2907,-4.0492,-3.8145,-3.5962,-3.3849,-3.2701,-3.2955,-3.3227,-3.3414,-3.3414,-3.3414,-3.3414,-3.3414,-3.3414,-3.3414,-3.3414,-3.3414,-3.3414,-3.3414,-3.3414,-3.3414,-3.3414,-3.3414,-3.3414,-1.9589,-1.992,-2.0237,-2.0441,-2.0802,-2.1109,-2.1109,-2.1203,-2.1422,-2.1716,-2.1977,-2.2311,-2.2813,-2.2893,-2.2893,-2.2893,-2.2893,-2.2893,-2.2893,-2.2893,-2.2947,-2.3046,-2.3522,-2.3857,-2.3941,-2.4332,-2.4599,-2.4599,-2.4599,-2.4599,-2.4599,-2.4917,-2.5211,-2.5504,-2.5837,-2.6131,-2.6386,-2.6386,-2.6386,-2.6465,-3.1689,-3.4038,-3.3926,-3.7125,-3.8945,-3.9609,-3.9805,-4.0273,-4.0898,-4.1094,-4.1211,-4.125,-4.1641,-4.2051,-4.244,-4.291,-4.334,-4.3711,-4.3711,-4.3711,-4.3789,-4.4258,-4.4687,-4.5117,-4.5547,-4.5976,-4.6308,-4.6308,-4.6308,-4.6308,-4.6308,-4.6308,-4.6308,-4.6308,-4.6308,-4.6308,-4.6308,-4.6308,-4.6308,-4.6308,-4.6308,-4.6308,-4.6308,-4.6308,-4.6308,-4.6308,-4.6308,-4.4933,-4.1079,-3.9676,-3.7655,-3.4112,-3.3022,-3.2714,-3.3009,-3.324,-3.3414,-3.3414,-3.3414,-3.3414,-3.3414,-3.3414,-3.3414,-3.3414,-3.3414,-3.3414,-3.3414,-3.3414,-3.3414,-3.3414,-3.3414,-3.3414,-1.972,-2.0013,-2.0277,-2.0632,-2.0895,-2.1109,-2.1109,-2.1109,-2.1189,-2.1529,-2.181,-2.2171,-2.2693,-2.284,-2.2893,-2.2893,-2.2893,-2.2893,-2.2893,-2.2893,-2.2893,-2.2893,-2.3429,-2.3803,-2.3803,-2.4302,-2.4599,-2.4599,-2.4599,-2.4599,-2.4599,-2.4917,-2.5211,-2.5504,-2.5837,-2.6131,-2.6386,-2.6386,-2.6386,-2.6465,-3.2054,-3.3963,-3.2657,-3.6756,-3.9099,-3.9902,-3.9902,-4.0391,-4.1211,-4.1211,-4.1211,-4.1269,-4.1758,-4.2148,-4.246,-4.3027,-4.3437,-4.3711,-4.3711,-4.3711,-4.3789,-4.4375,-4.4766,-4.5117,-4.5664,-4.6055,-4.6308,-4.6308,-4.6308,-4.6308,-4.6308,-4.6308,-4.6308,-4.6308,-4.6308,-4.6308,-4.6308,-4.6308,-4.6308,-4.6308,-4.6308,-4.6308,-4.6308,-4.6308,-4.6308,-4.6308,-4.6308,-4.4517,-3.963,-3.9059,-3.7334,-3.2701,-3.2527,-3.2822,-3.3066,-3.3293,-3.3414,-3.3414,-3.3414,-3.3414,-3.3414,-3.3414,-3.3414,-3.3414,-3.3414,-3.3414,-3.3414,-3.3414,-3.3414,-3.3414,-3.3414,-3.3414,-1.972,-2.0013,-2.0277,-2.0632,-2.0895,-2.1109,-2.1109,-2.1109,-2.1189,-2.1529,-2.181,-2.2084,-2.2392,-2.2672,-2.2893,-2.2893,-2.2893,-2.2893,-2.2893,-2.2893,-2.2893,-2.2893,-2.3429,-2.3803,-2.3803,-2.4302,-2.4599,-2.4599,-2.4599,-2.4599,-2.4599,-2.4917,-2.5211,-2.5504,-2.5837,-2.6131,-2.6386,-2.6386,-2.6386,-2.6465,-3.0669,-3.2619,-3.2657,-3.6756,-3.9099,-3.9902,-3.9902,-4.0391,-4.1211,-4.1211,-4.1211,-4.1289,-4.207,-4.2362,-4.2479,-4.3359,-4.3691,-4.3711,-4.3711,-4.3711,-4.3848,-4.4707,-4.4957,-4.5133,-4.6016,-4.6289,-4.6308,-4.6308,-4.6308,-4.6308,-4.6308,-4.6308,-4.6308,-4.6308,-4.6308,-4.6308,-4.6308,-4.6308,-4.6308,-4.6308,-4.6308,-4.6308,-4.6308,-4.6308,-4.6308,-4.6308,-4.6308,-4.4517,-3.963,-3.9244,-3.7633,-3.3062,-3.2835,-3.3066,-3.336,-3.34,-3.3414,-3.3414,-3.3414,-3.3414,-3.3414,-3.3414,-3.3414,-3.3414,-3.3414,-3.3414,-3.3414,-3.3414,-3.3414,-3.3414,-3.3414,-3.3414,-1.997,-2.0294,-2.0588,-2.0882,-2.1029,-2.1109,-2.1109,-2.1109,-2.1136,-2.1243,-2.1542,-2.1836,-2.2084,-2.2572,-2.2893,-2.2893,-2.2893,-2.2893,-2.2893,-2.2893,-2.2893,-2.2893,-2.3429,-2.3803,-2.3803,-2.4302,-2.4599,-2.4599,-2.4599,-2.4599,-2.4599,-2.509,-2.5411,-2.5504,-2.5985,-2.6279,-2.6386,-2.7684,-2.7684,-2.6465,-3.1825,-3.3058,-3.0708,-3.6127,-3.8358,-3.7986,-3.9335,-4.0391,-4.1211,-4.1211,-4.1211,-4.1289,-4.209,-4.2382,-4.2499,-4.3398,-4.3711,-4.3711,-4.3711,-4.3711,-4.3848,-4.4746,-4.4977,-4.5153,-4.6035,-4.6308,-4.6308,-4.6308,-4.6308,-4.6308,-4.6308,-4.6308,-4.6308,-4.6308,-4.6308,-4.6308,-4.6308,-4.6308,-4.6308,-4.6308,-4.6308,-4.6308,-4.6308,-4.6308,-4.6308,-4.6308,-4.6308,-4.4517,-3.963,-3.9244,-3.8257,-3.5337,-3.3802,-3.3773,-3.5755,-3.4386,-3.3414,-3.3414,-3.3414,-3.3414,-3.3414,-3.3414,-3.3414,-3.3414,-3.3414,-3.3414,-3.3414,-3.3414,-3.3414,-3.3414,-3.3414,-3.3414,-2.0307,-2.0521,-2.0748,-2.1042,-2.1109,-2.1109,-2.1109,-2.1109,-2.1109,-2.1109,-2.1381,-2.1676,-2.197,-2.2412,-2.2786,-2.288,-2.2893,-2.2893,-2.2893,-2.2893,-2.2893,-2.2893,-2.3348,-2.3696,-2.379,-2.4209,-2.4492,-2.4586,-2.4599,-2.4599,-2.4599,-2.5159,-2.5598,-2.5798,-2.6186,-2.6386,-2.6386,-2.7723,-2.7723,-2.6465,-3.1901,-3.27,-2.9589,-3.5793,-3.793,-3.6916,-3.8975,-4.0391,-4.1211,-4.1211,-4.1211,-4.1289,-4.209,-4.2382,-4.2499,-4.3398,-4.3711,-4.3711,-4.3711,-4.3711,-4.3848,-4.4746,-4.4977,-4.5153,-4.6035,-4.6308,-4.6308,-4.6308,-4.6308,-4.6308,-4.6308,-4.6308,-4.6308,-4.6308,-4.6308,-4.6308,-4.6308,-4.6308,-4.6308,-4.6308,-4.6308,-4.6308,-4.6308,-4.6308,-4.6308,-4.6308,-4.5568,-4.3593,-3.954,-3.936,-3.8806,-3.6614,-3.5987,-3.6192,-3.7218,-3.5684,-3.4336,-3.3464,-3.3414,-3.3414,-3.3414,-3.3414,-3.3414,-3.3414,-3.3414,-3.3414,-3.3414,-3.3414,-3.3414,-3.3414,-3.3414,-3.3414,0.0,0.0,0.0,-2.1042,-2.1109,-2.1109,-2.1109,-2.1109,-2.1109,-2.1109,-2.1368,-2.1662,-2.1957,-2.2205,-2.2498,-2.284,-2.2893,-2.2893,-2.2893,-2.2893,-2.2893,-2.2893,-2.314,-2.3447,-2.3777,-2.4035,-2.4329,-2.4572,-2.4599,-2.4599,-2.4599,-2.5159,-2.5785,-2.6373,-2.6386,-2.6386,-2.6386,-2.6386,-2.6386,-2.6465,-3.0477,-3.1322,-2.9511,-3.5719,-3.7856,-3.6839,-3.8994,-4.0391,-4.1211,-4.1211,-4.1211,-4.1289,-4.209,-4.2382,-4.2499,-4.3398,-4.3711,-4.3711,-4.3711,-4.3711,-4.3848,-4.4746,-4.4977,-4.5153,-4.6035,-4.6308,-4.6308,-4.6308,-4.6308,-4.6308,-4.6308,-4.6308,-4.6308,-4.6308,-4.6308,-4.6308,-4.6308,-4.6308,-4.6308,-4.6308,-4.6308,-4.6308,-4.6308,-4.6308,-4.6308,-4.6308,-4.4188,-4.1753,-3.9403,-3.9713,-3.9221,-3.6868,-3.9372,-4.0174,-3.7625,-3.7331,-3.6164,-3.355,-3.3414,-3.3414,-3.3414,-3.3414,-3.3414,-3.3414,-3.3414,-3.3414,-3.3414,-3.3414,-3.3414,-3.3414,-3.3414,-3.3414,-2.0686,0.0,0.0,0.0,0.0,0.0,-2.1109,-2.1109,-2.1109,-2.1109,-2.1176,-2.1355,-2.1649,-2.1943,-2.2205,-2.2498,-2.276,-2.2893,-2.2893,-2.2893,-2.2893,-2.2893,-2.314,-2.3447,-2.3777,-2.4035,-2.4329,-2.4572,-2.4599,-2.4599,-2.4599,-2.5159,-2.5785,-2.6373,-2.6386,-2.6386,-2.6386,-2.6386,-2.6386,-2.6426,-2.9022,-2.9177,-2.7462,-3.3915,-3.6046,-3.4847,-3.8668,-4.0664,-4.1211,-4.1211,-4.1211,-4.1289,-4.209,-4.2382,-4.2499,-4.3398,-4.3711,-4.3711,-4.3711,-4.3711,-4.3848,-4.4746,-4.4977,-4.5153,-4.6035,-4.6308,-4.6308,-4.6308,-4.6308,-4.6308,-4.6308,-4.6308,-4.6308,-4.6308,-4.6308,-4.6308,-4.6308,-4.6308,-4.6308,-4.6308,-4.6308,-4.6308,-4.6308,-4.6308,-4.6308,-4.6308,-4.4188,-4.2353,-4.1663,-4.0729,-4.0534,-4.1699,-4.147,-4.0898,-4.0094,-3.8344,-3.6164,-3.355,-3.3414,-3.3414,-3.3414,-3.3414,-3.3414,-3.3414,-3.3414,-3.3414,-3.3414,-3.3414,-3.3414,-3.3414,-3.3414,-3.3414,0.0,0.0,0.0,-2.1109,0.0,0.0,-2.1109,-2.1109,-2.1109,-2.1109,-2.1109,-2.1203,-2.1529,-2.1729,-2.197,-2.2352,-2.2565,-2.276,-2.288,-2.2893,-2.2893,-2.2893,-2.302,-2.33,-2.3763,-2.3928,-2.4195,-2.4572,-2.4599,-2.4706,-2.4946,-2.5331,-2.5785,-2.6373,-2.6386,-2.6386,-2.6386,-2.6386,-2.6386,-2.6426,-2.8452,-2.8335,-2.6623,-3.3176,-3.4834,-3.2728,-3.8145,-4.0241,-3.9903,-4.0802,-4.1211,-4.1289,-4.209,-4.2382,-4.2499,-4.3398,-4.3711,-4.3711,-4.3711,-4.3711,-4.3848,-4.4746,-4.4977,-4.5153,-4.6035,-4.6308,-4.6308,-4.6308,-4.6308,-4.6308,-4.6308,-4.6308,-4.6308,-4.6308,-4.6308,-4.6308,-4.6308,-4.6308,-4.6308,-4.6308,-4.6308,-4.6308,-4.6308,-4.6308,-4.6308,-4.6308,-4.4188,-4.2694,-4.2856,-4.2165,-4.2325,-4.3982,-4.3368,-4.2338,-4.1252,-3.8782,-3.6164,-3.355,-3.3414,-3.3414,-3.3414,-3.3414,-3.3414,-3.3414,-3.3414,-3.3414,-3.3414,-3.3414,-3.3414,-3.3414,-3.3414,-3.3414,0.0,0.0,0.0,0.0,-2.1109,0.0,-2.1109,-2.1109,-2.1109,-2.1109,-2.1109,-2.1189,-2.1489,-2.1569,-2.177,-2.2285,-2.2392,-2.2525,-2.2853,-2.2893,-2.2893,-2.2893,-2.2893,-2.3134,-2.375,-2.3803,-2.4008,-2.4559,-2.4599,-2.4853,-2.5478,-2.5518,-2.5785,-2.6373,-2.6386,-2.6386,-2.6386,-2.6386,-2.6386,-2.6426,-2.8218,-2.814,-2.6597,-3.2764,-3.3692,-3.0836,-3.7135,-3.9115,-3.8054,-4.0021,-4.0997,-4.1328,-4.2109,-4.2421,-4.2598,-4.3418,-4.3711,-4.3711,-4.3711,-4.3711,-4.3848,-4.4746,-4.4977,-4.5153,-4.6035,-4.6308,-4.6308,-4.6308,-4.6308,-4.6308,-4.6308,-4.6308,-4.6308,-4.6308,-4.6308,-4.6308,-4.6308,-4.6308,-4.6308,-4.6308,-4.6308,-4.6308,-4.6308,-4.6308,-4.6308,-4.6308,-4.4188,-4.2855,-4.3587,-4.3806,-4.4186,-4.4928,-4.5283,-4.4258,-4.1428,-3.9059,-3.6509,-3.355,-3.3414,-3.3414,-3.3414,-3.3414,-3.3414,-3.3414,-3.3414,-3.3414,-3.3414,-3.3414,-3.3414,-3.3414,-3.3414,-3.3414,0.0,0.0,0.0,0.0,-2.1109,0.0,-2.1109,-2.1109,-2.1109,-2.1109,-2.1109,-2.1122,-2.1189,-2.1422,-2.1703,-2.2017,-2.2271,-2.2525,-2.2853,-2.2893,-2.2893,-2.2893,-2.2893,-2.3134,-2.375,-2.3803,-2.4008,-2.4559,-2.4599,-2.4853,-2.5478,-2.5518,-2.5785,-2.6373,-2.6386,-2.6386,-2.6386,-2.6386,-2.6386,-2.6386,-2.6807,-2.6768,-2.6518,-3.0022,-3.1222,-3.0691,-3.4255,-3.6612,-3.7935,-3.839,-3.9759,-4.1719,-4.2187,-4.2637,-4.3008,-4.3516,-4.3711,-4.3711,-4.3711,-4.3711,-4.3848,-4.4746,-4.4977,-4.5153,-4.6035,-4.6308,-4.6308,-4.6308,-4.6308,-4.6308,-4.6308,-4.6308,-4.6308,-4.6308,-4.6308,-4.6308,-4.6308,-4.6308,-4.6308,-4.6308,-4.6308,-4.6308,-4.6308,-4.6308,-4.6308,-4.6308,-4.4188,-4.3455,-4.5904,-4.4869,-4.4801,-4.7259,-4.7865,-4.6242,-4.162,-4.0706,-3.8441,-3.37,-3.3414,-3.3414,-3.3414,-3.3414,-3.3414,-3.3414,-3.3414,-3.3414,-3.3414,-3.3414,-3.3414,-3.3414,-3.3414,-3.3414,0.0,0.0,0.0,-2.1109,0.0,0.0,0.0,-2.1109,-2.1109,-2.1109,-2.1109,-2.1109,-2.1109,-2.1229,-2.1462,-2.1756,-2.2017,-2.2298,-2.2605,-2.28,-2.2893,-2.2893,-2.2893,-2.3081,-2.35,-2.3723,-2.4008,-2.4559,-2.4599,-2.4853,-2.5478,-2.5518,-2.5785,-2.6373,-2.6386,-2.6386,-2.6386,-2.6386,-2.6386,-2.6386,-2.6386,-2.6386,-2.6479,-2.9261,-2.9913,-2.911,-3.3007,-3.5298,-3.6402,-3.7458,-3.9552,-4.2129,-4.2304,-4.2695,-4.3166,-4.3555,-4.3711,-4.3711,-4.3711,-4.3711,-4.3848,-4.4746,-4.4977,-4.5153,-4.6035,-4.6308,-4.6308,-4.6308,-4.6308,-4.6308,-4.6308,-4.6308,-4.6308,-4.6308,-4.6308,-4.6308,-4.6308,-4.6308,-4.6308,-4.6308,-4.6308,-4.6308,-4.6308,-4.6308,-4.6308,-4.6308,-4.5241,-4.4604,-4.5062,-4.5476,-4.5415,-4.4539,-4.4815,-4.3452,-3.9593,-3.805,-3.6164,-3.355,-3.3414,-3.3414,-3.3414,-3.3414,-3.3414,-3.3414,-3.3414,-3.3414,-3.3414,-3.3414,-3.3414,-3.3414,-3.3414,-3.3414,0.0,0.0,0.0,0.0,0.0,-2.1109,0.0,0.0,0.0,-2.1109,-2.1109,-2.1109,-2.1109,-2.1109,-2.1189,-2.1462,-2.1796,-2.2071,-2.2298,-2.2666,-2.2893,-2.2893,-2.2893,-2.3014,-2.3265,-2.3647,-2.4075,-2.4559,-2.4599,-2.4853,-2.5478,-2.5518,-2.5785,-2.6373,-2.6386,-2.6386,-2.6386,-2.6386,-2.6386,-2.6386,-2.6386,-2.6386,-2.6492,-2.8836,-2.892,-2.754,-3.164,-3.3676,-3.4205,-3.5943,-3.8686,-4.184,-4.2221,-4.2734,-4.3242,-4.3574,-4.3711,-4.3711,-4.3711,-4.3711,-4.3848,-4.4746,-4.5094,-4.541,-4.6094,-4.6308,-4.6308,-4.6308,-4.6308,-4.6308,-4.6308,-4.6308,-4.6308,-4.6308,-4.6308,-4.6308,-4.6308,-4.6308,-4.6308,-4.6308,-4.6308,-4.6308,-4.6308,-4.6308,-4.6308,-4.6308,-4.5895,-4.5022,-4.3497,-4.4978,-4.4756,-4.1082,-4.0925,-4.0094,-3.7527,-3.5352,-3.395,-3.3414,-3.3414,-3.3414,-3.3414,-3.3414,-3.3414,-3.3414,-3.3414,-3.3414,-3.3414,-3.3414,-3.3414,-3.3414,-3.3414,-3.3414,0.0,0.0,0.0,0.0,-2.1109,0.0,-2.1109,0.0,-2.1109,-2.1109,0.0,-2.1109,-2.1109,0.0,0.0,-2.1149,-2.163,-2.1991,-2.2031,-2.2546,-2.2893,-2.2893,-2.2893,-2.3014,-2.3265,-2.3834,-2.4289,-2.4572,-2.4599,-2.4853,-2.5478,-2.5518,-2.5785,-2.6373,-2.6386,-2.6386,-2.6386,-2.6386,-2.6386,-2.6386,-2.6386,-2.6386,-2.6453,-2.727,-2.754,-2.7377,-2.8453,-3.0024,-3.1805,-3.2052,-3.5064,-3.974,-4.1679,-4.291,-4.3633,-4.3691,-4.3711,-4.3711,-4.3711,-4.3711,-4.3848,-4.4746,-4.5527,-4.6172,-4.6269,-4.6308,-4.6308,-4.6308,-4.6308,-4.6308,-4.6308,-4.6308,-4.6308,-4.6308,-4.6308,-4.6308,-4.6308,-4.6308,-4.6308,-4.6308,-4.6308,-4.6308,-4.6308,-4.6308,-4.6308,-4.6308,-4.441,-4.3097,-4.3271,-4.1937,-4.0902,-4.0751,-4.0972,-4.0126,-3.7527,-3.7036,-3.5882,-3.355,-3.3414,-3.3414,-3.3414,-3.3414,-3.3414,-3.3414,-3.3414,-3.3414,-3.3414,-3.3414,-3.3414,-3.3414,-3.3414,-3.3414,0.0,0.0,0.0,0.0,0.0,0.0,-2.1617,0.0,-2.1617,0.0,0.0,0.0,0.0,0.0,0.0,0.0,-2.1964,-2.2231,-2.2231,-2.2626,-2.2893,-2.2893,-2.2893,-2.3094,-2.3541,-2.3808,-2.4142,-2.4559,-2.4599,-2.4853,-2.5478,-2.5518,-2.5785,-2.6373,-2.6386,-2.6386,-2.6386,-2.6386,-2.6386,-2.6386,-2.6386,-2.6386,-2.6413,-2.7041,-2.7309,-2.7336,-2.7924,-2.9411,-3.1392,-3.1392,-3.368,-3.7387,-3.9658,-4.1852,-4.3711,-4.3711,-4.3711,-4.3711,-4.3711,-4.3711,-4.3848,-4.4746,-4.5605,-4.6308,-4.6308,-4.6308,-4.6308,-4.6308,-4.6308,-4.6308,-4.6308,-4.6308,-4.6308,-4.6308,-4.6308,-4.6308,-4.6308,-4.6308,-4.6308,-4.6308,-4.6308,-4.6308,-4.6308,-4.6308,-4.6308,-4.6308,-4.4188,-4.2183,-4.0987,-4.0398,-3.9049,-3.6312,-3.7745,-3.7855,-3.5253,-3.5054,-3.4571,-3.3464,-3.3414,-3.3414,-3.3414,-3.3414,-3.3414,-3.3414,-3.3414,-3.3414,-3.3414,-3.3414,-3.3414,-3.3414,-3.3414,-3.3414,-2.2265,0.0,0.0,0.0,0.0,0.0,0.0,0.0,0.0,0.0,-2.1991,0.0,0.0,0.0,0.0,0.0,0.0,-2.2358,-2.2311,-2.2653,-2.2893,-2.2893,-2.2893,-2.3134,-2.375,-2.3803,-2.4008,-2.4559,-2.4599,-2.4853,-2.5478,-2.5518,-2.5785,-2.6373,-2.6386,-2.6386,-2.6386,-2.6386,-2.6386,-2.6386,-2.6386,-2.6386,-2.6413,-2.7041,-2.7309,-2.7336,-2.7924,-2.9076,-3.0509,-3.0509,-3.224,-3.5054,-3.7404,-4.0153,-4.2844,-4.3485,-4.3711,-4.3711,-4.3711,-4.3867,-4.416,-4.4782,-4.5605,-4.6308,-4.6308,-4.6308,-4.6308,-4.6308,-4.6308,-4.6308,-4.6308,-4.6308,-4.6308,-4.6308,-4.6308,-4.6308,-4.6308,-4.6308,-4.6308,-4.6308,-4.6308,-4.6308,-4.6308,-4.6308,-4.6308,-4.6308,-4.3638,-4.0988,-3.9221,-3.8458,-3.6644,-3.297,-3.4787,-3.5451,-3.3564,-3.3414,-3.3414,-3.3414,-3.3414,-3.3414,-3.3414,-3.3414,-3.3414,-3.3414,-3.3414,-3.3414,-3.3414,-3.3414,-3.3414,-3.3414,-3.3414,-3.3414,0.0,0.0,0.0,-2.1991,0.0,0.0,0.0,0.0,-2.1991,0.0,0.0,0.0,0.0,0.0,0.0,0.0,0.0,0.0,0.0,-2.2532,-2.2893,-2.2893,-2.2893,-2.3134,-2.375,-2.3803,-2.4008,-2.4559,-2.4599,-2.4853,-2.5478,-2.5518,-2.5785,-2.6373,-2.6386,-2.6386,-2.6386,-2.6386,-2.6386,-2.6386,-2.6386,-2.6386,-2.6413,-2.7041,-2.7309,-2.7336,-2.7924,-2.8221,-2.8305,-2.8305,-2.9987,-3.282,-3.5096,-3.7812,-4.068,-4.2886,-4.3711,-4.3711,-4.3711,-4.4258,-4.4938,-4.4977,-4.5605,-4.6308,-4.6308,-4.6308,-4.6308,-4.6308,-4.6308,-4.6308,-4.6308,-4.6308,-4.6308,-4.6308,-4.6308,-4.6308,-4.6308,-4.6308,-4.6308,-4.6308,-4.6308,-4.6308,-4.6308,-4.6308,-4.6308,-4.6308,-4.2174,-3.9084,-3.8993,-3.54,-3.2789,-3.2643,-3.3165,-3.3514,-3.3414,-3.3414,-3.3414,-3.3414,-3.3414,-3.3414,-3.3414,-3.3414,-3.3414,-3.3414,-3.3414,-3.3414,-3.3414,-3.3414,-3.3414,-3.3414,-3.3414,-3.3414,-2.3496,-2.3348,-2.3148,-2.2926,0.0,0.0,0.0,0.0,0.0,0.0,0.0,0.0,0.0,0.0,0.0,0.0,0.0,0.0,0.0,-2.2773,-2.2893,-2.2893,-2.2893,-2.3054,-2.3434,-2.3661,-2.3928,-2.4315,-2.4492,-2.4853,-2.5478,-2.5518,-2.5785,-2.6373,-2.6386,-2.6386,-2.6386,-2.6386,-2.6386,-2.6386,-2.6386,-2.6386,-2.6413,-2.7041,-2.7309,-2.7336,-2.7924,-2.8179,-2.8179,-2.8179,-2.8995,-3.055,-3.4382,-3.5831,-3.6399,-4.1723,-4.3711,-4.3711,-4.3711,-4.4277,-4.4977,-4.4977,-4.5605,-4.6308,-4.6308,-4.6308,-4.6308,-4.6308,-4.6308,-4.6308,-4.6308,-4.6308,-4.6308,-4.6308,-4.6308,-4.6308,-4.6308,-4.6308,-4.6308,-4.6308,-4.6308,-4.6308,-4.6308,-4.6308,-4.6308,-4.6308,-4.2129,-3.8993,-3.8993,-3.5258,-3.2594,-3.2594,-3.3066,-3.3414,-3.3414,-3.3414,-3.3414,-3.3414,-3.3414,-3.3414,-3.3414,-3.3414,-3.3414,-3.3414,-3.3414,-3.3414,-3.3414,-3.3414,-3.3414,-3.3414,-3.3414,-3.3414,-2.3928,-2.3884,-2.3763,-2.3527,-2.3487,0.0,-2.3268,0.0,-2.3033,0.0,0.0,0.0,0.0,0.0,0.0,0.0,0.0,0.0,0.0,-2.2893,-2.2893,-2.2893,-2.2893,-2.3014,-2.3265,-2.3594,-2.3924,-2.4182,-2.4439,-2.4853,-2.5478,-2.5518,-2.5785,-2.6373,-2.6386,-2.6386,-2.6386,-2.6386,-2.6386,-2.6386,-2.6386,-2.6386,-2.6413,-2.7041,-2.7309,-2.7336,-2.7924,-2.8179,-2.8179,-2.8179,-2.854,-2.9453,-3.4087,-3.4869,-3.4242,-4.116,-4.3711,-4.373,-4.3887,-4.4414,-4.5058,-4.5215,-4.5723,-4.6308,-4.6308,-4.6308,-4.6269,-4.6113,-4.6191,-4.6269,-4.6113,-4.6191,-4.6308,-4.6308,-4.6308,-4.6308,-4.6308,-4.6308,-4.6308,-4.6308,-4.6308,-4.6308,-4.6308,-4.6308,-4.5983,-4.5109,-4.1591,-3.8674,-3.7803,-3.4702,-3.2594,-3.2594,-3.3066,-3.3414,-3.3414,-3.3414,-3.3414,-3.3414,-3.3414,-3.3414,-3.3414,-3.3414,-3.3414,-3.3414,-3.3414,-3.3414,-3.3414,-3.3414,-3.3414,-3.3414,-3.3414,-3.3414]},{"header":{"parameterUnit":"m.s-1","parameterCategory":1,"la1":30.6,"la2":29.2853,"lo1":-89.7004,"lo2":-87.6739,"dy":0.0162,"dx":0.0183,"nx":112,"ny":82,"refTime":"2023-10-22T12:00:00:Z","depth":0,"parameterNumber":3,"parameterNumberName":"V-component_of_WINDS"},"data":[0.0,0.0,0.0,0.0,0.0,0.0,0.0,0.0,0.0,0.0,0.0,0.0,0.0,0.0,0.0,0.0,0.0,0.0,0.0,0.0,0.0,0.0,0.0,0.0,0.0,0.0,0.0,0.0,0.0,0.0,0.0,0.0,0.0,0.0,0.0,0.0,0.0,0.0,0.0,0.0,0.0,0.0,0.0,0.0,0.0,0.0,0.0,0.0,0.0,0.0,0.0,0.0,0.0,0.0,0.0,0.0,0.0,0.0,0.0,0.0,0.0,0.0,0.0,0.0,0.0,0.0,0.0,0.0,0.0,0.0,0.0,0.0,0.0,0.0,0.0,0.0,0.0,0.0,0.0,0.0,0.0,0.0,0.0,0.0,0.0,0.0,0.0,0.0,0.0,0.0,5.7247,5.7363,5.8165,5.9039,5.9885,5.9942,6.0269,6.0958,0.0,0.0,0.0,0.0,0.0,0.0,0.0,0.0,0.0,0.0,0.0,0.0,0.0,0.0,0.0,0.0,0.0,0.0,0.0,0.0,0.0,0.0,0.0,0.0,0.0,0.0,0.0,0.0,0.0,0.0,0.0,0.0,0.0,0.0,0.0,0.0,0.0,0.0,0.0,0.0,0.0,0.0,0.0,0.0,0.0,0.0,0.0,0.0,0.0,0.0,0.0,0.0,0.0,0.0,0.0,0.0,0.0,0.0,0.0,0.0,0.0,0.0,0.0,0.0,0.0,0.0,0.0,0.0,0.0,0.0,0.0,0.0,0.0,0.0,0.0,0.0,0.0,0.0,0.0,0.0,0.0,0.0,0.0,0.0,0.0,0.0,0.0,0.0,0.0,0.0,0.0,0.0,0.0,0.0,0.0,0.0,0.0,0.0,0.0,0.0,0.0,0.0,0.0,0.0,5.8357,5.905,5.9896,6.0496,6.0657,6.0663,6.0766,6.0988,0.0,0.0,0.0,0.0,0.0,0.0,0.0,0.0,0.0,0.0,0.0,0.0,0.0,0.0,0.0,0.0,0.0,0.0,0.0,0.0,0.0,0.0,0.0,0.0,0.0,0.0,0.0,0.0,0.0,0.0,0.0,0.0,0.0,0.0,0.0,0.0,0.0,0.0,0.0,0.0,0.0,0.0,0.0,0.0,0.0,0.0,0.0,0.0,0.0,0.0,0.0,0.0,0.0,0.0,0.0,0.0,0.0,0.0,0.0,0.0,0.0,0.0,0.0,0.0,0.0,0.0,0.0,0.0,0.0,0.0,0.0,0.0,0.0,0.0,0.0,0.0,0.0,0.0,0.0,0.0,0.0,0.0,0.0,0.0,0.0,0.0,0.0,0.0,0.0,0.0,0.0,0.0,0.0,0.0,0.0,0.0,0.0,0.0,0.0,0.0,0.0,0.0,0.0,5.8704,5.9281,6.0127,6.0556,6.0787,6.0787,6.0787,6.0844,6.0902,6.0908,0.0,0.0,0.0,0.0,0.0,0.0,0.0,0.0,0.0,0.0,0.0,0.0,0.0,0.0,0.0,0.0,0.0,0.0,0.0,0.0,0.0,0.0,0.0,0.0,0.0,0.0,0.0,0.0,0.0,0.0,0.0,0.0,0.0,0.0,0.0,0.0,0.0,0.0,0.0,0.0,0.0,0.0,0.0,0.0,0.0,0.0,0.0,0.0,0.0,0.0,0.0,0.0,0.0,0.0,0.0,0.0,0.0,0.0,0.0,0.0,0.0,0.0,0.0,0.0,0.0,0.0,0.0,0.0,0.0,0.0,0.0,0.0,0.0,0.0,0.0,0.0,0.0,0.0,0.0,0.0,0.0,0.0,0.0,0.0,0.0,0.0,0.0,0.0,0.0,0.0,0.0,0.0,0.0,0.0,0.0,0.0,0.0,0.0,0.0,0.0,0.0,0.0,5.9819,6.005,6.0748,6.0787,6.0787,6.0787,6.0787,6.0787,6.0787,6.0787,0.0,0.0,0.0,0.0,0.0,0.0,0.0,0.0,0.0,0.0,0.0,0.0,0.0,0.0,0.0,0.0,0.0,0.0,0.0,0.0,0.0,0.0,0.0,0.0,0.0,0.0,0.0,0.0,0.0,0.0,0.0,0.0,0.0,0.0,0.0,0.0,0.0,0.0,0.0,0.0,0.0,0.0,0.0,0.0,0.0,0.0,0.0,0.0,0.0,0.0,0.0,0.0,0.0,0.0,0.0,0.0,0.0,0.0,0.0,0.0,0.0,0.0,0.0,0.0,0.0,0.0,0.0,0.0,0.0,0.0,0.0,0.0,0.0,0.0,0.0,0.0,0.0,0.0,0.0,0.0,0.0,0.0,0.0,0.0,0.0,0.0,0.0,0.0,0.0,0.0,0.0,0.0,0.0,0.0,0.0,0.0,0.0,0.0,0.0,0.0,0.0,0.0,6.0704,6.0748,6.0787,6.0787,6.0787,6.0787,6.0787,6.0787,6.0787,6.0787,0.0,0.0,0.0,0.0,0.0,0.0,0.0,0.0,0.0,0.0,0.0,0.0,0.0,0.0,0.0,0.0,0.0,0.0,0.0,0.0,0.0,0.0,0.0,0.0,0.0,0.0,0.0,0.0,0.0,0.0,0.0,0.0,0.0,0.0,0.0,0.0,0.0,0.0,0.0,0.0,0.0,0.0,0.0,0.0,0.0,0.0,0.0,0.0,0.0,0.0,0.0,0.0,0.0,0.0,0.0,0.0,0.0,0.0,0.0,0.0,0.0,0.0,0.0,0.0,0.0,0.0,0.0,0.0,0.0,0.0,0.0,0.0,0.0,0.0,0.0,0.0,0.0,0.0,0.0,0.0,0.0,0.0,0.0,0.0,0.0,0.0,0.0,0.0,0.0,0.0,0.0,0.0,0.0,0.0,0.0,0.0,0.0,0.0,0.0,0.0,0.0,0.0,6.1287,6.1595,0.0,6.205,6.2358,6.2358,6.2358,6.2358,6.2358,0.0,0.0,0.0,0.0,0.0,0.0,0.0,0.0,0.0,0.0,0.0,0.0,0.0,0.0,0.0,0.0,0.0,0.0,0.0,0.0,0.0,0.0,0.0,0.0,0.0,0.0,0.0,0.0,0.0,0.0,0.0,0.0,0.0,0.0,0.0,0.0,0.0,0.0,0.0,0.0,0.0,0.0,0.0,0.0,0.0,0.0,0.0,0.0,0.0,0.0,0.0,0.0,0.0,0.0,0.0,0.0,0.0,0.0,0.0,0.0,0.0,0.0,0.0,0.0,0.0,0.0,0.0,0.0,0.0,0.0,0.0,0.0,0.0,0.0,0.0,0.0,0.0,0.0,0.0,0.0,0.0,0.0,0.0,0.0,0.0,0.0,0.0,0.0,0.0,0.0,0.0,0.0,0.0,0.0,0.0,0.0,0.0,0.0,0.0,0.0,0.0,0.0,6.155,6.2089,6.2474,0.0,6.2974,6.3314,6.3314,6.3314,6.3314,6.3314,0.0,0.0,0.0,0.0,0.0,0.0,0.0,0.0,0.0,0.0,0.0,0.0,0.0,0.0,0.0,0.0,0.0,0.0,0.0,0.0,0.0,0.0,0.0,0.0,0.0,0.0,0.0,0.0,0.0,0.0,0.0,0.0,0.0,0.0,0.0,0.0,0.0,0.0,0.0,0.0,0.0,0.0,0.0,0.0,0.0,0.0,0.0,0.0,0.0,0.0,0.0,0.0,0.0,0.0,0.0,0.0,0.0,0.0,0.0,0.0,0.0,0.0,0.0,0.0,0.0,0.0,0.0,0.0,0.0,0.0,0.0,0.0,0.0,0.0,0.0,0.0,0.0,0.0,0.0,0.0,0.0,0.0,0.0,0.0,0.0,0.0,0.0,0.0,0.0,0.0,0.0,0.0,0.0,0.0,0.0,0.0,0.0,0.0,0.0,0.0,0.0,0.0,6.3198,6.3314,6.3314,6.3314,6.3314,6.3314,6.3314,6.3314,6.3314,0.0,0.0,0.0,0.0,0.0,0.0,0.0,0.0,0.0,0.0,0.0,0.0,0.0,0.0,0.0,0.0,0.0,0.0,0.0,0.0,0.0,0.0,0.0,0.0,0.0,0.0,0.0,0.0,0.0,0.0,0.0,0.0,0.0,0.0,0.0,0.0,0.0,0.0,0.0,0.0,0.0,0.0,0.0,0.0,0.0,0.0,0.0,0.0,0.0,0.0,0.0,0.0,0.0,0.0,0.0,0.0,0.0,0.0,0.0,0.0,0.0,0.0,0.0,0.0,0.0,0.0,0.0,0.0,0.0,0.0,0.0,0.0,0.0,0.0,0.0,0.0,0.0,0.0,0.0,0.0,0.0,0.0,0.0,0.0,0.0,0.0,0.0,0.0,0.0,0.0,0.0,0.0,0.0,0.0,0.0,0.0,0.0,0.0,0.0,0.0,0.0,0.0,0.0,6.3275,6.3852,6.4205,6.4205,6.4782,6.5128,6.5128,6.5128,6.5128,6.5128,0.0,0.0,0.0,0.0,0.0,0.0,0.0,0.0,0.0,0.0,0.0,0.0,0.0,0.0,0.0,0.0,0.0,0.0,0.0,0.0,0.0,0.0,0.0,0.0,0.0,0.0,0.0,0.0,0.0,0.0,0.0,0.0,0.0,0.0,0.0,0.0,0.0,0.0,0.0,0.0,0.0,0.0,0.0,0.0,0.0,0.0,0.0,0.0,0.0,0.0,0.0,0.0,0.0,0.0,0.0,0.0,0.0,0.0,0.0,0.0,0.0,0.0,0.0,0.0,0.0,0.0,0.0,0.0,0.0,0.0,0.0,0.0,0.0,0.0,0.0,0.0,0.0,0.0,0.0,0.0,0.0,0.0,0.0,0.0,0.0,0.0,0.0,0.0,0.0,0.0,0.0,0.0,0.0,0.0,0.0,0.0,0.0,0.0,0.0,0.0,0.0,0.0,6.3687,6.436,6.4803,6.4803,6.5474,6.5904,6.5904,6.5904,6.5904,6.5904,0.0,0.0,0.0,0.0,0.0,0.0,0.0,0.0,0.0,0.0,0.0,0.0,0.0,0.0,0.0,0.0,0.0,0.0,0.0,0.0,0.0,0.0,0.0,0.0,0.0,0.0,0.0,0.0,0.0,0.0,0.0,0.0,0.0,0.0,0.0,0.0,0.0,0.0,0.0,0.0,0.0,0.0,0.0,0.0,0.0,0.0,0.0,0.0,0.0,0.0,0.0,0.0,0.0,0.0,0.0,0.0,0.0,0.0,0.0,0.0,0.0,0.0,0.0,0.0,0.0,0.0,0.0,0.0,0.0,0.0,0.0,0.0,0.0,0.0,0.0,0.0,0.0,0.0,0.0,0.0,0.0,0.0,0.0,0.0,0.0,0.0,0.0,0.0,0.0,0.0,0.0,0.0,0.0,0.0,0.0,0.0,0.0,0.0,0.0,0.0,0.0,0.0,6.4304,6.4765,6.5051,6.5051,6.553,6.5877,6.5877,6.5954,6.5992,6.5992,0.0,0.0,0.0,0.0,0.0,0.0,0.0,0.0,0.0,0.0,0.0,0.0,0.0,0.0,0.0,0.0,0.0,0.0,0.0,0.0,0.0,0.0,0.0,0.0,0.0,0.0,0.0,0.0,0.0,0.0,0.0,0.0,0.0,0.0,0.0,0.0,0.0,0.0,0.0,0.0,0.0,0.0,0.0,0.0,0.0,0.0,0.0,0.0,0.0,0.0,0.0,0.0,0.0,0.0,0.0,0.0,0.0,0.0,0.0,0.0,5.4318,5.374,0.0,0.0,0.0,0.0,0.0,0.0,0.0,0.0,0.0,0.0,0.0,0.0,0.0,0.0,0.0,0.0,0.0,0.0,0.0,0.0,0.0,0.0,0.0,0.0,0.0,0.0,0.0,0.0,0.0,0.0,0.0,0.0,0.0,0.0,0.0,0.0,0.0,0.0,0.0,0.0,6.4379,6.4472,6.4536,6.4536,6.5214,6.5675,6.5675,6.6235,6.6605,6.6605,6.6344,0.0,0.0,0.0,0.0,0.0,0.0,0.0,0.0,0.0,0.0,0.0,0.0,0.0,0.0,0.0,0.0,0.0,0.0,0.0,0.0,0.0,0.0,0.0,0.0,0.0,0.0,0.0,0.0,0.0,0.0,0.0,0.0,0.0,0.0,0.0,0.0,0.0,0.0,0.0,0.0,0.0,0.0,0.0,0.0,0.0,0.0,0.0,0.0,0.0,0.0,0.0,0.0,0.0,0.0,0.0,0.0,0.0,0.0,0.0,5.5226,5.4808,0.0,0.0,0.0,0.0,0.0,0.0,0.0,0.0,0.0,0.0,0.0,0.0,0.0,0.0,0.0,0.0,0.0,0.0,0.0,0.0,0.0,0.0,0.0,0.0,0.0,0.0,0.0,0.0,0.0,0.0,0.0,0.0,0.0,0.0,0.0,0.0,0.0,0.0,0.0,0.0,6.4185,6.4459,6.4738,6.5151,6.5778,6.618,6.618,6.6547,6.6811,6.6811,6.6645,0.0,0.0,0.0,0.0,0.0,0.0,0.0,0.0,0.0,0.0,0.0,0.0,0.0,0.0,0.0,0.0,0.0,0.0,0.0,0.0,0.0,0.0,0.0,0.0,0.0,0.0,0.0,0.0,0.0,0.0,0.0,0.0,0.0,0.0,0.0,0.0,0.0,0.0,0.0,0.0,0.0,0.0,0.0,0.0,0.0,0.0,0.0,0.0,0.0,0.0,0.0,0.0,0.0,5.604,5.6113,5.6113,5.6113,5.6029,5.5874,5.6047,5.597,5.5724,5.5821,0.0,0.0,0.0,0.0,0.0,0.0,0.0,0.0,0.0,0.0,0.0,0.0,0.0,0.0,0.0,0.0,0.0,0.0,0.0,0.0,0.0,0.0,5.8527,5.9695,5.97,5.9646,6.0571,0.0,0.0,0.0,0.0,0.0,0.0,0.0,0.0,0.0,0.0,0.0,6.42,6.4633,6.5125,6.5794,6.641,6.6752,6.6752,6.6865,6.694,6.694,6.6921,6.6859,0.0,0.0,0.0,0.0,0.0,0.0,0.0,0.0,0.0,0.0,0.0,0.0,0.0,0.0,0.0,0.0,0.0,0.0,0.0,0.0,0.0,0.0,0.0,0.0,0.0,0.0,0.0,0.0,0.0,0.0,0.0,0.0,5.0822,5.1659,0.0,0.0,0.0,0.0,0.0,0.0,0.0,0.0,0.0,0.0,0.0,0.0,0.0,5.5555,5.5555,5.5663,5.5722,5.5722,5.5758,5.5778,5.5778,5.5778,5.5758,5.5722,5.5763,0.0,5.5708,5.5707,0.0,0.0,0.0,0.0,0.0,0.0,0.0,0.0,0.0,0.0,0.0,0.0,0.0,0.0,0.0,0.0,0.0,0.0,0.0,0.0,0.0,0.0,5.9256,6.0147,6.0283,6.0455,6.1283,6.0892,6.0599,6.1454,6.1591,6.1813,0.0,0.0,0.0,0.0,0.0,0.0,6.5141,6.5182,6.527,6.5393,6.6095,6.6551,6.6551,6.7178,6.7596,6.7596,6.7318,6.7153,6.7153,6.6934,0.0,0.0,0.0,0.0,0.0,0.0,0.0,0.0,0.0,0.0,0.0,0.0,0.0,0.0,0.0,0.0,0.0,0.0,0.0,0.0,0.0,0.0,0.0,0.0,0.0,0.0,0.0,0.0,0.0,5.1818,5.2241,5.2582,5.262,5.2967,0.0,0.0,0.0,0.0,0.0,0.0,0.0,0.0,0.0,5.5708,5.5708,5.5708,5.5708,5.5708,5.5939,5.6439,5.6439,5.6709,5.7165,5.7165,5.7165,5.7165,5.7165,5.6896,5.6401,5.5901,5.5708,5.5708,0.0,0.0,0.0,0.0,5.6016,5.6379,5.6113,5.625,5.6508,5.6603,0.0,0.0,0.0,0.0,0.0,0.0,0.0,5.8866,5.9673,5.9857,6.0077,6.0896,6.108,6.141,6.2744,6.2744,6.2438,6.2291,6.2658,6.3111,6.3466,6.4237,0.0,0.0,0.0,6.5472,6.5925,6.6366,6.6806,6.727,6.8054,6.8531,6.8531,6.8862,6.8875,6.8385,6.8247,6.7959,6.7492,6.7357,6.7315,0.0,0.0,0.0,0.0,0.0,0.0,0.0,0.0,0.0,0.0,0.0,0.0,0.0,0.0,0.0,0.0,0.0,0.0,0.0,0.0,0.0,0.0,0.0,0.0,0.0,0.0,0.0,0.0,5.2774,5.3274,5.351,5.3549,5.3857,0.0,0.0,0.0,0.0,0.0,0.0,5.5708,5.5708,5.5785,5.6016,5.6016,5.6132,5.6357,5.6357,5.6709,5.7324,5.7324,5.7665,5.8313,5.8313,5.8313,5.8313,5.8313,5.7934,5.7286,5.6401,5.5901,5.5708,5.5939,5.6016,5.6055,5.628,5.6692,5.7087,5.6745,5.6896,5.7239,5.7082,5.6865,5.6823,5.7629,0.0,0.0,0.0,0.0,5.9747,6.0737,6.0994,6.1251,6.2291,6.2548,6.2879,6.4127,6.442,6.4237,6.3563,6.398,6.442,6.442,6.5081,0.0,6.5888,6.6096,6.6499,6.732,6.7944,6.8531,6.9155,6.9743,7.011,7.011,7.011,6.9853,6.9229,6.9229,6.8935,6.8325,6.8325,6.8325,6.8325,0.0,0.0,0.0,0.0,0.0,0.0,0.0,0.0,0.0,0.0,0.0,0.0,0.0,0.0,0.0,0.0,0.0,0.0,0.0,0.0,0.0,0.0,0.0,0.0,0.0,0.0,0.0,0.0,0.0,5.4357,5.4434,0.0,0.0,0.0,0.0,5.5708,5.5708,5.5708,5.5708,5.5708,5.6093,5.6907,5.6945,5.7324,5.8165,5.8165,5.8198,5.8242,5.8242,5.8275,5.8313,5.8313,5.8313,5.8313,5.8313,5.828,5.8165,5.7286,5.6439,5.5785,5.6593,5.6945,5.7016,5.7857,5.7927,5.7586,5.7527,5.6973,5.6385,5.7139,5.7635,5.8079,5.8876,5.9098,0.0,0.0,6.0346,6.0713,6.2279,6.2683,6.3086,6.4738,6.5105,6.5141,6.5215,6.5251,6.5215,6.5178,6.5215,6.5251,6.5251,0.0,6.6696,6.748,6.8238,6.9009,6.9816,6.9963,7.0,7.0036,7.0073,7.011,7.011,7.011,7.0073,7.0036,7.0036,7.0,6.9963,6.9963,6.9963,6.9963,6.9219,0.0,0.0,0.0,0.0,0.0,0.0,0.0,0.0,0.0,0.0,0.0,0.0,0.0,0.0,0.0,0.0,0.0,0.0,0.0,0.0,0.0,0.0,0.0,0.0,0.0,0.0,0.0,0.0,5.5247,5.5285,0.0,5.567,5.5708,5.5708,5.5708,5.6209,5.6555,5.6555,5.7049,5.7511,5.7819,5.8357,5.8742,5.9088,5.9627,6.0204,6.0748,6.0748,6.1012,6.1506,6.1506,6.1506,6.1506,6.1506,6.1204,6.071,6.0402,5.9132,5.7396,5.7703,5.7857,5.7835,5.7845,5.8394,5.9078,5.8432,5.8745,5.9355,5.9324,5.9444,5.9612,5.9893,6.0334,6.0896,6.1728,6.2365,6.3025,6.4114,6.4774,6.5338,6.5925,6.6476,6.699,6.749,6.76,6.7747,6.8274,6.754,6.699,6.7527,6.8274,6.8898,6.9206,6.9486,6.9779,7.0073,7.055,7.0866,7.0866,7.1358,7.1651,7.1651,7.1651,7.1431,7.0903,7.0866,7.066,7.011,7.011,7.011,7.011,6.9816,6.9669,0.0,0.0,0.0,0.0,0.0,0.0,0.0,0.0,0.0,0.0,0.0,0.0,0.0,0.0,0.0,0.0,0.0,0.0,0.0,0.0,0.0,0.0,0.0,0.0,0.0,5.5066,5.552,5.552,5.5879,5.6132,5.6132,5.6395,5.6588,5.6588,5.7093,5.7555,5.7824,5.8396,5.8973,5.955,6.0089,6.0512,6.0775,6.1358,6.1935,6.2518,6.2518,6.2781,6.3314,6.3314,6.3314,6.3314,6.3314,6.2906,6.2311,6.2777,6.1755,5.9831,5.9466,5.9326,5.9288,5.9093,5.9606,6.0318,5.9773,6.0355,6.1274,6.12,6.1215,6.1251,6.1557,6.1998,6.2671,6.3759,6.4457,6.5154,6.6242,6.6916,6.7393,6.765,6.8141,6.8655,6.9192,6.9302,6.9559,7.0367,6.9412,6.8692,6.9229,6.9743,7.0183,7.0477,7.0513,7.0587,7.0881,7.1394,7.1711,7.1711,7.2202,7.2496,7.2496,7.2496,7.2275,7.1747,7.1711,7.1454,7.0917,7.0917,7.0917,7.0917,7.0624,7.0367,7.011,0.0,0.0,0.0,0.0,0.0,0.0,0.0,0.0,0.0,0.0,0.0,0.0,0.0,0.0,0.0,0.0,0.0,0.0,0.0,0.0,0.0,0.0,0.0,5.442,5.4864,5.5132,5.5132,5.6234,5.6989,5.7027,5.7796,5.834,5.834,5.8373,5.8731,5.955,5.9577,6.0385,6.2095,6.2172,6.2557,6.3314,6.3391,6.3429,6.3429,6.3468,6.3468,6.3468,6.3468,6.3468,6.3468,6.3455,6.3179,6.2856,6.4146,6.4069,6.3021,6.1869,6.1424,6.1439,6.1742,6.1558,6.1257,6.1578,6.1716,6.1851,6.2609,6.2903,6.3086,6.3906,6.4213,6.458,6.6145,6.6586,6.699,6.8531,6.8972,6.9192,6.9963,7.0146,7.0183,7.0183,7.0183,7.0403,7.1197,7.0697,7.0183,7.0183,7.0183,7.044,7.1233,7.1344,0.0,7.2422,7.2532,7.2569,7.2569,7.2569,7.2569,7.2569,7.2569,7.2569,7.2569,7.2569,7.2569,7.2569,7.2569,7.2569,7.2532,7.1747,7.094,7.0183,0.0,0.0,0.0,0.0,0.0,0.0,0.0,0.0,0.0,0.0,0.0,0.0,0.0,0.0,0.0,0.0,0.0,0.0,0.0,0.0,0.0,5.3848,5.4281,5.4492,5.5108,5.5548,5.5548,5.6353,5.7165,5.7756,5.8313,5.89,5.9498,6.0109,6.0729,6.1352,6.1612,6.2121,6.2923,6.3589,6.4012,6.4243,6.5436,6.6051,6.6051,6.6699,6.7006,6.7006,6.7006,6.7006,6.6994,6.6595,6.6322,6.6203,6.6213,6.6039,6.5643,6.4461,6.3736,6.3388,6.312,6.3145,6.337,6.403,6.4261,6.431,6.4554,6.5007,6.5521,6.5778,6.6659,6.7687,6.8128,6.8641,6.9192,6.9669,7.022,7.0683,7.0903,7.1431,7.1835,7.1835,7.1835,7.1908,7.2129,7.1982,7.1835,7.1835,7.1835,7.1908,7.2151,7.2165,7.2459,7.3266,7.3377,7.3597,7.4169,7.4243,7.4243,7.4243,7.4243,7.4243,7.4243,7.4243,7.4243,7.4243,7.4243,7.3964,7.3377,7.2569,7.2055,0.0,0.0,0.0,0.0,0.0,0.0,0.0,0.0,0.0,0.0,0.0,0.0,0.0,0.0,0.0,0.0,0.0,0.0,0.0,0.0,0.0,0.0,5.4106,5.4659,5.5379,5.5704,5.6046,5.6383,5.7294,5.8226,5.9075,5.9681,6.0261,6.0709,6.124,6.1817,6.2466,6.3028,6.3612,6.4245,6.5093,6.5635,6.5848,6.6814,6.7435,6.7667,6.7927,6.8078,6.8071,6.7821,6.7735,6.7727,6.7423,6.7144,6.6957,6.72,6.7261,6.7068,0.0,0.0,0.0,0.0,6.4611,6.5228,6.6035,6.6549,6.6866,6.7197,6.7614,6.8017,6.8017,6.8641,6.9486,6.9802,7.0243,7.0697,7.1027,7.1468,7.1784,7.1784,7.2151,7.2496,7.2496,7.2753,7.301,7.301,7.3266,0.0,7.3509,7.323,7.312,7.3435,7.3509,7.367,7.4147,7.4184,7.4368,7.483,7.4903,7.4903,7.4903,7.4903,0.0,0.0,0.0,7.4903,7.4903,7.4903,0.0,0.0,0.0,7.3509,7.3509,7.3509,0.0,0.0,7.1211,7.0844,0.0,0.0,0.0,0.0,0.0,0.0,0.0,0.0,0.0,0.0,0.0,0.0,0.0,0.0,0.0,0.0,5.4693,5.5317,5.6737,5.6784,5.6888,5.7519,5.868,5.9768,6.0652,6.1394,6.1892,6.2005,6.2081,6.2485,6.3323,6.4077,0.0,0.0,0.0,6.7033,6.7508,6.7593,6.7865,6.8339,6.7972,6.7783,6.7766,6.7401,6.7226,6.7226,6.7231,6.6978,6.666,6.775,6.8148,6.7864,6.6851,6.6472,6.6413,6.5985,6.6292,6.699,6.7737,0.0,0.0,6.9853,7.0146,7.022,7.022,7.0293,7.0513,7.1233,7.1454,7.16,7.2312,7.2496,7.2496,7.2496,7.2569,7.2642,7.2642,7.3266,7.3817,7.3817,7.4404,7.494,7.5014,7.4368,7.4074,7.4793,7.4903,7.494,7.5014,7.505,7.5124,7.5307,7.5307,0.0,7.5417,7.5454,7.5454,7.5454,7.5454,7.5454,7.5454,7.538,7.5307,7.5307,7.5234,7.516,7.516,7.516,7.516,7.5124,7.3523,7.2789,0.0,0.0,0.0,0.0,0.0,0.0,0.0,0.0,0.0,0.0,0.0,0.0,0.0,0.0,0.0,5.5254,5.6466,5.7409,5.7703,5.8823,5.9396,5.8918,5.9646,6.049,6.1338,6.1947,6.256,6.3211,6.3835,6.4485,6.5077,6.5463,6.5945,6.6537,6.6736,6.686,6.6966,6.7581,6.7978,6.8082,6.8669,0.0,6.8999,6.9521,6.9772,6.9779,7.0016,7.0061,6.9929,6.9751,6.9657,6.961,6.9379,6.9309,6.9295,6.921,6.9265,6.9412,6.9559,6.9743,6.9889,7.0036,7.055,7.105,7.105,7.1541,0.0,7.2239,7.2275,7.2312,7.2459,7.2496,7.2496,7.2496,7.301,7.345,7.345,7.4111,7.4661,7.4661,7.4793,7.5124,7.5763,7.5212,7.472,7.4867,7.4903,7.5124,7.5799,7.5873,7.6387,7.7745,7.7892,7.8148,7.8788,7.8862,7.8862,7.8862,7.8862,7.8862,7.8862,7.8222,7.7892,7.7892,7.7179,7.6848,7.6848,7.6848,7.6848,7.6812,7.5197,7.4426,0.0,0.0,0.0,0.0,0.0,0.0,0.0,0.0,0.0,0.0,0.0,5.4069,5.484,0.0,5.5868,5.6675,5.7813,5.8877,5.9685,6.0493,6.086,6.0456,6.075,6.1337,6.2108,6.2435,6.2956,6.3795,6.4202,6.4739,6.5411,6.5949,6.637,6.6639,6.7049,6.7385,6.7648,6.8044,6.8382,6.8651,6.9236,6.9517,6.9506,7.0046,7.0312,7.0288,7.0446,7.0513,7.0486,7.0652,7.0697,7.0734,7.1138,7.0807,7.011,7.011,7.0367,7.0697,7.0697,7.0954,7.1284,7.1284,7.1578,7.1894,7.1894,7.2202,7.2496,7.2496,7.2496,7.2606,7.301,7.3083,7.3193,7.3634,7.4001,7.4294,7.4294,7.4918,7.5506,7.5506,7.5821,7.6371,7.7194,7.7011,7.6754,7.6754,7.6754,7.7047,7.7855,7.7928,7.8259,7.9103,7.9192,7.9376,7.9779,7.9816,7.9816,7.9816,7.9816,7.9816,7.9816,7.9412,7.9192,7.9192,7.8772,7.8552,7.8552,7.8552,7.8552,7.8516,7.7745,7.69,0.0,0.0,0.0,0.0,0.0,0.0,0.0,5.3434,5.3654,5.4473,5.4766,5.5097,5.5915,5.6712,5.7508,5.8327,5.9123,6.0114,6.141,6.1741,6.1814,6.1814,6.1814,6.2108,6.2756,6.2939,6.3356,6.4066,6.4396,6.4861,6.5521,6.6292,6.6733,6.6733,6.737,6.7891,6.832,6.8506,6.8793,6.923,6.9602,6.9769,6.9781,7.0149,7.033,7.033,7.0513,7.055,7.0624,7.127,7.1527,7.16,7.2261,7.1725,7.055,7.055,7.0991,7.1527,7.1527,7.1967,7.2496,7.2496,7.2496,7.2496,7.2496,7.2496,7.2532,7.2679,7.2716,7.2936,7.3707,7.3927,7.4111,7.4757,7.5014,7.5124,7.5124,7.5763,7.6387,7.6533,7.7105,7.7839,7.8699,7.8809,7.8809,7.8809,7.8809,7.9066,7.9706,7.9816,7.9853,8.0036,8.0036,8.011,8.0257,8.0404,8.0514,8.0514,8.0661,8.0661,8.0514,8.0514,8.044,8.0257,8.0257,8.0257,8.0257,8.0257,8.0367,8.0514,8.0514,7.9507,4.9233,5.0555,5.1767,5.195,5.2527,5.3287,0.0,5.4289,5.4473,5.5291,5.6014,5.6785,5.7593,5.84,5.9196,6.0003,6.0823,6.1374,6.1569,6.2218,6.2683,6.2683,6.2683,6.2683,6.2793,6.3503,6.3992,6.4103,6.5411,6.6256,6.6366,6.715,6.759,6.759,6.7664,6.7741,6.7784,6.8506,6.89,6.8944,6.9723,7.005,7.0087,7.0835,7.116,7.1197,7.1931,7.2239,7.2239,7.2349,7.2386,7.2386,7.2459,7.2386,7.2239,7.2239,7.2275,7.2386,7.2386,7.2422,7.2496,7.2496,7.2496,7.2496,7.2496,7.2496,7.2642,7.334,7.356,7.3744,7.4551,7.4757,7.4793,7.4867,7.5469,7.5983,7.5983,7.6592,7.7399,7.8185,7.8405,7.8699,7.9522,7.9669,7.9669,7.9669,7.9669,7.9706,7.9779,7.9816,8.0073,8.0791,8.0865,8.1158,8.1856,8.259,8.2977,8.2977,8.3691,8.3728,8.3014,8.2977,8.2663,8.1929,8.1929,8.1929,8.1929,8.1929,8.2296,8.2977,8.2977,8.1746,5.0775,5.1473,5.2207,5.3151,5.3665,5.4106,5.4913,5.5464,5.6014,5.6822,5.7629,5.8425,5.9245,6.0052,6.0713,6.1043,6.1777,6.2291,6.2291,6.2572,6.2793,6.2793,6.2793,6.2793,6.2793,6.3576,6.4273,6.4751,6.5852,6.6696,6.7187,6.7517,6.77,6.77,6.77,6.7921,6.8385,6.8752,6.9155,6.9596,7.0403,7.0807,7.0844,7.1637,7.2004,7.2004,7.2349,7.2496,7.2496,7.2496,7.2496,7.2496,7.2496,7.2496,7.2496,7.2496,7.2496,7.2496,7.2496,7.2496,7.2496,7.2496,7.2496,7.2606,7.3046,7.3193,7.3377,7.4184,7.4404,7.4588,7.5395,7.5616,7.5726,7.6188,7.6555,7.6922,7.7451,7.7818,7.8295,7.9155,7.9302,7.9543,8.0351,8.0498,8.0645,8.1138,8.0791,8.0681,8.1138,8.1599,8.2186,8.2994,8.3104,8.3214,8.3581,8.3911,8.4095,8.4095,8.4425,8.4462,8.4115,8.4095,8.3948,8.3618,8.3581,8.3581,8.3581,8.3581,8.3765,8.4095,8.4095,8.3544,5.2123,5.2491,5.2978,5.4363,5.4913,5.528,5.6099,5.6895,5.7691,5.851,5.9318,6.004,6.0639,6.1374,6.1924,6.1924,6.2426,6.2793,6.2793,6.2793,6.2793,6.2793,6.2793,6.2903,6.3135,6.3943,6.4677,6.5251,6.6256,6.71,6.7664,6.77,6.77,6.77,6.7921,6.8311,6.8885,6.9325,6.9839,7.044,7.1233,7.1637,7.1637,7.2239,7.2496,7.2496,7.2496,7.2496,7.2496,7.2496,7.2496,7.2496,7.2496,7.2496,7.2496,7.2496,7.2496,7.2496,7.2496,7.2496,7.2532,7.2753,7.2826,7.2973,7.378,7.4037,7.4184,7.4992,7.5234,7.5417,7.624,7.6423,7.6628,7.7472,7.7656,7.7876,7.8736,7.8919,7.9176,7.9963,8.0147,8.0388,8.1195,8.1525,8.1856,8.2443,8.2223,8.2113,8.248,8.3251,8.3948,8.4535,8.4609,8.4609,8.4609,8.4792,8.4939,8.4939,8.5159,8.5159,8.4939,8.4939,8.4829,8.4609,8.4609,8.4609,8.4609,8.4609,8.4719,8.4939,8.4939,8.5049,5.2957,5.3739,5.4509,5.5365,5.6161,5.6932,5.774,5.8535,5.938,6.015,6.097,6.152,6.1557,6.2218,6.2756,6.2756,6.2793,6.2793,6.2793,6.2793,6.2793,6.2793,6.2793,6.3123,6.3992,6.4787,6.5251,6.5288,6.6769,6.7664,6.77,6.77,6.77,6.77,6.8458,6.8898,6.8885,7.0463,7.1233,7.127,7.2078,7.2459,7.2459,7.2496,7.2496,7.2496,7.2496,7.2496,7.2496,7.2496,7.2496,7.2496,7.2496,7.2496,7.2496,7.2496,7.2496,7.2496,7.2496,7.2496,7.2642,7.3413,7.367,7.3817,7.4625,7.4867,7.5014,7.5836,7.6056,7.624,7.7069,7.7252,7.7472,7.8369,7.8552,7.8772,7.9596,7.9779,8.0,8.0828,8.0975,8.1232,8.2003,8.281,8.3344,8.3344,8.4022,8.4242,8.3454,8.4058,8.4572,8.4609,8.4609,8.4609,8.4609,8.5306,8.5747,8.5747,8.6518,8.6591,8.58,8.5747,8.538,8.4609,8.4609,8.4609,8.4609,8.4609,8.5013,8.5747,8.5747,8.6187,5.3922,5.4583,5.5511,5.687,5.7409,5.796,5.9281,6.0199,6.086,6.1153,6.1851,6.2401,6.2401,6.2609,6.2793,6.2793,6.2793,6.2793,6.2793,6.2793,6.2793,6.2793,6.2793,6.3123,6.4029,6.4824,6.5508,6.6072,6.71,6.77,6.77,6.77,6.7958,6.8495,6.8752,6.9398,7.0463,7.1013,7.1564,7.2078,7.2386,7.2496,7.2496,7.2496,7.2496,7.2496,7.2496,7.2496,7.2496,7.2496,7.2496,7.2496,7.2496,7.2496,7.2569,7.3083,7.3303,7.3303,7.3303,7.3303,7.3413,7.4221,7.4515,7.4661,7.5469,7.5689,7.5873,7.6665,7.6885,7.693,7.701,7.7596,7.8175,7.8319,7.8869,7.9633,8.0424,8.0608,8.0828,8.1636,8.2223,8.2684,8.2941,8.3654,8.4389,8.4903,8.4756,8.4682,8.4976,8.5233,8.56,8.6151,8.617,8.617,8.617,8.6444,8.6591,8.6591,8.6831,8.6867,8.6628,8.6591,8.6481,8.6224,8.617,8.617,8.617,8.617,8.6334,8.6591,8.6591,8.6738,5.5464,5.6051,5.6833,5.8474,5.9061,5.9575,6.0603,6.1227,6.1606,6.1606,6.1777,6.2022,6.2328,6.2365,6.2462,6.2756,6.2793,6.2793,6.2793,6.2793,6.2793,6.2793,6.2793,6.327,6.442,6.5007,6.5618,6.6439,6.726,6.77,6.77,6.7958,6.8385,6.8898,6.9472,7.0243,7.1307,7.16,7.1967,7.2496,7.2496,7.2496,7.2496,7.2496,7.2496,7.2496,7.2496,7.2496,7.2496,7.2496,7.2496,7.2496,7.2496,7.2679,7.2973,7.3487,7.3891,7.4147,7.4147,7.4147,7.4258,7.5065,7.5322,7.5491,7.6261,7.6518,7.6628,7.7142,7.7239,7.7207,7.747,7.8003,7.8489,7.8617,7.9456,8.0344,8.0785,8.0864,8.122,8.2378,8.2727,8.3047,8.3698,8.4499,8.5306,8.6114,8.5783,8.5637,8.6151,8.6224,8.6444,8.6941,8.6978,8.6978,8.6978,8.6978,8.6978,8.6978,8.6978,8.6978,8.6978,8.6978,8.6978,8.6978,8.6978,8.6978,8.6978,8.6978,8.6978,8.6978,8.6978,8.6978,5.7373,5.807,5.851,6.0089,6.1043,6.1606,6.1606,6.1606,6.1594,6.1569,6.0933,6.0639,6.141,6.152,6.1814,6.2609,6.2756,6.2756,6.2793,6.2793,6.2793,6.2793,6.2829,6.349,6.5141,6.5325,6.5705,6.6512,6.726,6.77,6.77,6.8458,6.8921,6.8972,7.0463,7.1307,7.1344,7.2129,7.2496,7.2496,7.2496,7.2496,7.2496,7.2496,7.2496,7.2496,7.2496,7.2496,7.2496,7.2496,7.2496,7.2496,7.2569,7.3046,7.3722,7.3795,7.4294,7.4977,7.5014,7.5014,7.5087,7.5909,7.6166,7.6313,7.7069,7.7295,7.7301,7.7301,7.7133,7.7188,7.8192,7.8375,7.844,7.9107,8.012,8.0818,8.0623,8.0622,8.1183,8.3,8.2591,8.2505,8.4315,8.5275,8.6062,8.6867,8.6978,8.6978,8.6978,8.6978,8.6978,8.6978,8.6978,8.6978,8.6978,8.6978,8.6978,8.6978,8.6978,8.6978,8.6978,8.6978,8.6978,8.6978,8.6978,8.6978,8.6978,8.6978,8.6978,8.6978,8.6978,8.6978,5.7813,5.8877,6.0015,6.1043,6.1447,6.1606,6.1606,6.1606,6.141,6.0823,6.0529,6.0456,6.0676,6.0713,6.097,6.1777,6.1924,6.2108,6.2719,6.2793,6.2793,6.2793,6.3392,6.4163,6.5178,6.5852,6.6512,6.7333,6.759,6.77,6.77,6.8458,6.9192,6.9779,7.0756,7.16,7.2188,7.2422,7.2496,7.2496,7.2496,7.2496,7.2496,7.2496,7.2496,7.2496,7.2496,7.2496,7.2496,7.2496,7.2496,7.2569,7.3156,7.3523,7.3868,7.5028,7.5616,7.5873,7.6481,7.6298,7.5946,7.6738,7.6995,7.7032,7.7252,7.7162,7.6997,7.6997,7.7405,7.7703,7.6938,7.7896,7.887,7.8043,7.8684,7.9639,8.0112,8.0873,8.1797,8.2849,8.3298,8.3874,8.4932,8.5315,8.5773,8.6837,8.6978,8.6978,8.6978,8.6978,8.6978,8.6978,8.6978,8.6978,8.6978,8.6978,8.6978,8.6978,8.6978,8.6978,8.6978,8.6978,8.6978,8.6978,8.6978,8.6978,8.6978,8.6978,8.6978,8.6978,8.6978,8.6978,5.8841,5.9979,6.1117,6.1924,6.1851,6.1606,6.1606,6.1043,6.0407,5.9967,5.96,5.9465,5.982,5.9857,6.015,6.0933,6.1374,6.1741,6.2218,6.2572,6.2939,6.3319,6.3796,6.453,6.5705,6.6256,6.6843,6.7627,6.77,6.7847,6.8201,6.8972,6.9816,7.0587,7.1417,7.2041,7.2496,7.2496,7.2496,7.2496,7.2496,7.2496,7.2496,7.2496,7.2496,7.2496,7.2496,7.2496,7.2467,7.2056,7.2335,7.3017,7.3079,7.3509,7.4186,7.5097,7.568,7.596,7.5966,7.5974,7.6109,7.7019,7.7003,7.67,7.7012,7.6703,7.63,7.664,7.7001,7.7209,7.6941,7.7661,7.8277,7.748,7.8406,7.9478,7.9417,8.0131,8.1079,8.1824,8.3411,8.4773,8.5225,8.5695,8.6265,8.6908,8.6978,8.6978,8.6978,8.6978,8.6978,8.6978,8.6978,8.6978,8.6978,8.6978,8.6978,8.6978,8.6978,8.6978,8.6978,8.6978,8.6978,8.6978,8.6978,8.6978,8.6978,8.6978,8.6978,8.6978,8.6978,8.6978,6.0015,6.108,6.1887,6.2499,6.2108,6.152,6.1337,6.0126,5.9013,5.8902,5.8253,5.79,5.8613,5.8807,5.9136,5.9969,6.0848,6.1484,6.1569,6.2291,6.3123,6.3992,6.4213,6.4861,6.6366,6.6586,6.6953,6.7664,6.7811,6.8164,6.8862,6.9669,7.0513,7.1417,7.2151,7.2496,7.2496,7.2496,7.2496,7.2496,7.2496,7.2496,7.2496,7.2496,7.2438,7.2314,7.2452,7.238,7.2071,7.1526,7.2154,7.3448,7.2738,7.3316,7.4581,7.457,7.5004,7.5492,7.4591,7.4867,7.5735,7.6611,7.637,7.5885,7.6498,7.6132,7.5631,7.6281,7.6349,7.6461,7.7304,7.7418,7.7305,7.7254,7.8498,7.9472,7.8747,7.9257,8.0097,8.0824,8.304,8.4832,8.4832,8.5693,8.6356,8.6518,8.6679,8.6767,8.6767,8.6908,8.6978,8.6978,8.6978,8.6978,8.6978,8.6978,8.6978,8.6978,8.6978,8.6978,8.6978,8.6978,8.6978,8.6978,8.6978,8.6978,8.6978,8.6978,8.6978,8.6978,8.6978,8.6978,6.0309,6.1471,6.2462,6.1924,6.1704,6.1263,5.993,5.8877,5.8033,5.7361,5.6565,5.6088,5.6284,5.6804,5.7493,5.8352,5.9675,6.086,6.152,6.2291,6.3123,6.3992,6.4677,6.5448,6.6402,6.7113,6.7554,6.77,6.8311,6.8752,6.8885,6.9669,7.077,7.2239,7.2422,7.2496,7.2496,7.2496,7.2496,7.2496,7.2496,7.2496,7.2496,7.2496,7.2071,7.1401,7.2145,7.164,7.0298,7.1686,7.2358,7.2585,7.3021,7.3769,7.4585,7.4403,7.4447,7.4535,7.4348,7.4404,7.4572,7.4757,7.5111,7.5475,7.5617,7.5831,7.5991,7.613,7.6591,7.6908,7.6245,7.6666,7.7244,7.7025,7.7203,7.7741,7.8783,8.0319,8.1529,8.169,8.2139,8.2481,8.2481,8.2661,8.309,8.4062,8.5006,8.5582,8.5582,8.6446,8.6978,8.6978,8.6978,8.6978,8.6978,8.6978,8.6978,8.6978,8.6978,8.6978,8.6978,8.6978,8.6978,8.6978,8.6978,8.6978,8.6978,8.6978,8.6978,8.6978,8.6978,8.6978,6.0419,6.1582,6.2609,6.1777,6.13,6.0566,5.8951,5.7948,5.7152,5.6345,5.5879,5.5606,5.5627,5.6287,5.694,5.7364,5.9079,6.0529,6.0933,6.2022,6.327,6.4567,6.5081,6.5778,6.699,6.748,6.77,6.77,6.8458,6.9082,6.9486,7.0697,7.1688,7.2496,7.2496,7.2496,7.2496,7.2496,7.2496,7.2496,7.2496,7.2496,7.2496,7.2496,7.2255,7.1839,7.2299,7.1717,7.0503,7.13,7.1812,7.2172,7.2402,7.2978,7.3663,7.3569,7.3532,7.3452,7.2921,7.3328,7.4027,7.349,7.3884,7.4752,7.5536,7.5561,7.539,7.5766,7.6165,7.6358,7.5842,7.6396,7.7052,7.6937,7.7502,7.8348,7.9431,8.0369,8.1039,8.1039,8.1498,8.1898,8.1898,8.2368,8.2972,8.3536,8.4573,8.5297,8.5297,8.6301,8.6978,8.6978,8.6978,8.6978,8.6978,8.6978,8.6978,8.6978,8.6978,8.6978,8.6978,8.6978,8.6978,8.6978,8.6978,8.6978,8.6978,8.6978,8.6978,8.7014,8.7435,8.7619,6.015,6.1178,6.2095,6.13,6.0493,5.9501,5.807,5.7005,5.6124,5.5475,5.5218,5.51,5.5077,5.5888,5.6557,5.6566,5.871,6.0419,6.0419,6.1802,6.3417,6.5105,6.5288,6.5925,6.7554,6.77,6.77,6.77,6.8605,6.9522,7.0293,7.1725,7.2496,7.2496,7.2496,7.2496,7.2496,7.2496,7.2496,7.2496,7.2496,7.2496,7.2481,7.2285,7.2071,7.1921,7.1921,7.1239,7.0232,7.0647,7.1155,7.169,7.1698,7.2139,7.2756,7.2561,7.2477,7.2385,7.1556,7.2285,7.3478,7.2847,7.3263,7.4283,7.5411,7.5333,7.4965,7.554,7.5709,7.5743,7.5912,7.642,7.6995,7.7299,7.8382,7.9498,8.0073,8.0209,8.0209,8.0209,8.0917,8.1545,8.1545,8.229,8.2861,8.2861,8.4026,8.4947,8.4947,8.6138,8.6978,8.6978,8.6978,8.6978,8.6978,8.6978,8.6978,8.6978,8.6978,8.6978,8.6978,8.7161,8.7234,8.7234,8.7418,8.7491,8.7491,8.7491,8.7491,8.7528,8.8169,8.8463,5.9306,5.9967,6.0444,5.9636,5.8829,5.7997,5.7116,5.5721,5.4583,5.4509,5.3922,5.3409,5.3422,5.4679,5.5725,5.58,5.8397,6.0419,6.0419,6.1802,6.3417,6.5105,6.5288,6.5925,6.7554,6.77,6.77,6.77,6.9119,7.033,7.116,7.2004,7.2496,7.2496,7.2496,7.2496,7.2496,7.2496,7.2496,7.2496,7.2496,7.2496,7.2467,7.1604,7.075,6.9971,6.9971,6.8908,6.738,6.9807,7.0766,7.0794,7.1376,7.2098,7.2673,7.1764,7.1434,7.1412,7.1334,7.1853,7.2655,7.3218,7.3918,7.4553,7.4723,7.5161,7.5608,7.5676,7.5709,7.5879,7.6589,7.6826,7.7232,7.8585,7.9532,8.0107,8.0175,8.0209,8.0209,8.0209,8.0276,8.0351,8.0351,8.0417,8.0517,8.0517,8.2381,8.3769,8.3769,8.5656,8.6978,8.6978,8.6978,8.6978,8.6978,8.6978,8.6978,8.6978,8.6978,8.6978,8.6978,8.7692,8.8096,8.8096,8.8812,8.9179,8.9179,8.9179,8.9179,8.9179,8.9253,8.929,5.8474,5.9428,6.0077,5.8792,5.8253,5.7519,5.5757,5.4876,5.4252,5.3775,5.3434,5.3213,5.3181,5.4528,5.5617,5.566,5.7907,5.9857,6.0334,6.1374,6.2879,6.5031,6.5288,6.5925,6.7554,6.77,6.8104,6.9059,6.9756,7.066,7.1931,7.2349,7.2496,7.2496,7.2496,7.2496,7.2496,7.2496,7.2226,7.165,7.2241,7.1921,7.0836,7.1031,7.0881,7.0518,6.9954,6.9276,6.8654,7.0046,7.0248,6.982,7.0951,7.16,7.1851,7.1434,7.1289,7.1357,7.1819,7.2428,7.3172,7.3916,7.4661,7.527,7.527,7.5473,7.5709,7.5709,7.6048,7.6487,7.6826,7.757,7.8483,7.9532,8.0006,8.0209,8.0209,8.0209,8.0209,8.0209,8.0209,8.0209,8.0209,8.0209,8.0209,8.0209,8.1569,8.2571,8.2571,8.3979,8.5237,8.588,8.6571,8.6978,8.6978,8.6978,8.6978,8.6978,8.7472,8.7729,8.7729,8.8482,8.8923,8.8923,8.9253,8.94,8.94,8.94,8.94,8.94,8.9913,9.0097,5.731,5.8107,5.8694,5.7556,5.7116,5.6492,5.4803,5.4216,5.3875,5.3324,5.3214,5.3214,5.3214,5.4326,5.5328,5.5548,5.7446,5.9196,6.026,6.108,6.2511,6.4995,6.5288,6.5925,6.7554,6.77,6.8361,6.9963,7.011,7.0807,7.2422,7.2496,7.2496,7.2496,7.2496,7.2496,7.2496,7.2226,7.1763,7.1127,7.1778,7.1239,6.9725,7.04,7.0516,7.0194,6.9241,6.8833,6.8916,6.9722,6.9683,6.9248,7.0714,7.1289,7.1289,7.1289,7.1289,7.1391,7.2157,7.2868,7.3612,7.4356,7.51,7.5709,7.5709,7.5709,7.5709,7.5709,7.642,7.7266,7.7502,7.8483,7.9566,8.0073,8.0209,8.0209,8.0209,8.0209,8.0209,8.0209,8.0209,8.0209,8.0209,8.0209,8.0209,8.0209,8.1174,8.1898,8.1898,8.2906,8.3916,8.4713,8.5806,8.6607,8.696,8.6978,8.7088,8.7362,8.7876,8.8316,8.8536,8.9326,8.9767,8.9767,8.9987,9.0097,9.0097,9.0097,9.0097,9.0097,9.0702,9.0959,5.5622,5.5622,5.5658,5.5622,5.5034,5.4436,5.4399,5.3775,5.3214,5.3214,5.3214,5.3214,5.3214,5.3849,5.4656,5.5475,5.698,5.8584,6.015,6.108,6.2511,6.4995,6.5288,6.5925,6.7554,6.77,6.8361,6.9963,7.011,7.0807,7.2422,7.2496,7.2496,7.2496,7.2496,7.2496,7.2496,7.1573,7.1127,7.1111,7.1127,7.0618,6.9708,6.9725,6.9168,6.8169,6.7264,6.6833,6.6969,6.8492,6.9113,6.9248,7.0714,7.1289,7.1289,7.1289,7.1289,7.1391,7.2157,7.2868,7.3612,7.4356,7.51,7.5709,7.5709,7.5709,7.5709,7.5709,7.6792,7.8145,7.8889,7.9634,8.0175,8.0209,8.0209,8.0209,8.0209,8.0209,8.0209,8.0209,8.0209,8.0209,8.0209,8.0209,8.0209,8.0209,8.1174,8.1898,8.1898,8.2906,8.3585,8.3642,8.4633,8.5787,8.6908,8.6978,8.7362,8.8133,8.8206,8.8573,8.9363,9.017,9.0592,9.0592,9.1363,9.1767,9.1767,9.1767,9.1767,9.1767,9.1767,9.1803,5.4766,5.5181,5.5475,5.4924,5.4583,5.4252,5.3691,5.3398,5.3214,5.3214,5.3214,5.3214,5.3214,5.4326,5.5291,5.5548,5.6943,5.8547,6.015,6.0639,6.1704,6.4163,6.5448,6.6549,6.759,6.77,6.8361,6.9963,7.011,7.0807,7.2422,7.2496,7.2211,7.1557,7.2182,7.2197,7.1542,7.1255,7.0783,7.0162,7.0162,6.9277,6.7722,6.8378,6.8496,6.8165,6.7223,6.7161,6.7845,6.8723,6.9113,6.9248,7.0714,7.1289,7.1289,7.1289,7.1289,7.1458,7.2732,7.3297,7.3703,7.4965,7.5506,7.5709,7.5709,7.5709,7.5912,7.6961,7.7976,7.8923,7.9667,8.004,8.0209,8.0209,8.0209,8.0209,8.0209,8.0209,8.0209,8.0209,8.0209,8.0209,8.0209,8.0209,8.0209,8.0209,8.0517,8.073,8.073,8.1063,8.1593,8.2346,8.3436,8.4593,8.575,8.6553,8.7362,8.8133,8.8702,8.9363,9.017,9.0996,9.1436,9.1436,9.1657,9.1803,9.1803,9.1803,9.1803,9.1803,9.1803,9.1803,5.3959,5.4326,5.4583,5.4069,5.3959,5.3801,5.3324,5.3214,5.3214,5.3214,5.3214,5.3214,5.3214,5.4289,5.5254,5.5548,5.6712,5.8217,6.0126,6.0419,6.1447,6.4237,6.5705,6.6806,6.7627,6.77,6.8361,6.9963,7.011,7.0807,7.2422,7.2145,7.1542,7.0601,7.1824,7.1869,7.0585,7.0585,7.0298,6.9708,6.9314,6.8512,6.7353,6.7931,6.8009,6.7662,6.7037,6.712,0.0,6.8715,6.9113,6.9248,7.0714,7.1289,7.1289,7.1289,7.1289,7.1492,7.2969,7.35,7.3737,7.5202,7.5709,7.5743,7.6048,7.6149,7.642,7.7662,7.8517,7.9295,8.0006,8.0209,8.0209,8.0209,8.0209,8.0209,8.0209,8.0209,8.0209,8.0209,8.0209,8.0209,8.0209,8.0209,8.0209,8.0209,8.0209,8.0209,8.0209,8.0209,8.0467,8.1198,8.2661,8.3895,8.4593,8.6083,8.7455,8.8573,8.9106,8.9913,9.1033,9.1546,9.1803,9.1803,9.1803,9.1803,9.1803,9.1803,9.1803,9.1803,9.1803,9.1803,0.0,5.3214,5.3214,5.3214,5.3214,5.3214,5.3214,5.3214,0.0,5.3214,5.3214,5.3214,5.3214,5.3922,5.473,5.5475,5.6308,5.7691,6.0089,6.0481,6.1728,6.4921,6.5962,6.6733,6.7627,6.77,6.8361,6.9963,7.011,7.0807,7.2422,7.165,7.0767,6.9849,7.1578,7.1625,6.9725,6.9708,6.9708,6.969,6.861,6.8107,6.8107,6.8107,6.7608,6.6791,6.6791,6.6791,6.6927,6.847,6.9113,6.9248,7.0714,7.1289,7.1289,7.1289,7.1289,7.1492,7.2969,7.35,7.3737,7.5202,7.5709,7.5845,7.6657,7.6927,7.713,7.7874,7.8619,7.9363,8.0006,8.0209,8.0209,8.0209,8.0209,8.0209,8.0209,8.0209,8.0209,8.0209,8.0209,8.0209,8.0209,8.0209,8.0209,8.0209,8.0209,8.0209,8.0209,8.0209,8.0209,8.0209,8.2244,8.3621,8.3621,8.5693,8.7675,8.929,8.94,9.0097,9.173,9.1803,9.1803,9.1803,9.1803,9.1803,9.1803,9.1803,9.1803,9.1803,9.1803,9.1803,5.3214,0.0,5.3214,5.3214,5.3214,5.3214,0.0,5.3214,5.3214,5.3214,5.3214,5.3214,5.3214,5.4363,5.5365,5.5585,5.6796,5.8364,6.0162,6.1471,6.3013,6.5068,6.5472,6.6145,6.7554,6.77,6.8361,6.9963,7.011,7.0807,7.2422,7.2285,7.1748,7.08,7.1921,7.1625,6.9725,6.9708,6.9708,6.969,6.7945,6.712,6.712,6.712,6.7009,6.6791,6.6791,6.6791,6.6927,6.847,6.9113,6.9248,7.0714,7.1289,7.1289,7.1289,7.1289,7.1492,7.2969,7.35,7.3737,7.5202,7.5709,7.5845,7.6657,7.7299,7.7874,7.8619,7.9363,7.9972,8.0175,8.0209,8.0209,8.0209,8.0209,8.0209,8.0209,8.0209,8.0209,8.0209,8.0209,8.0209,8.0209,8.0209,8.0209,8.0209,8.0209,8.0209,8.0209,8.0209,8.0209,8.0209,8.2244,8.3621,8.3621,8.5693,8.7675,8.929,8.94,9.0097,9.173,9.1803,9.1803,9.1803,9.1803,9.1803,9.1803,9.1803,9.1803,9.1803,9.1803,9.1803,5.3214,5.3214,5.3214,5.3214,5.3214,5.3214,5.3214,5.3214,5.3214,5.3214,5.3214,5.3324,5.3691,5.4766,5.5732,5.6088,5.7519,5.9098,6.0713,6.2365,6.387,6.5141,6.5618,6.6329,6.759,6.77,6.8214,6.9449,6.9889,7.0624,7.1857,7.1903,7.1604,7.1127,7.1588,7.093,6.9021,6.9458,6.9458,6.8984,6.7515,6.7029,6.7434,6.7009,6.6791,6.6791,6.6791,6.6791,6.6927,6.847,6.9113,6.9248,7.0714,7.1289,7.1289,7.1289,7.1492,7.1988,7.3128,7.394,7.4627,7.5439,7.5709,7.5912,7.7063,7.7671,7.8145,7.8889,7.9634,8.0209,8.0209,8.0209,8.0209,8.0209,8.0209,8.0209,8.0209,8.0209,8.0209,8.0209,8.0209,8.0209,8.0209,8.0209,8.0209,8.0209,8.0209,8.0209,8.0209,8.0209,8.0209,8.0209,8.2244,8.3621,8.3621,8.6019,8.8078,8.9326,8.9767,9.0519,9.173,9.1803,9.1803,9.1803,9.1803,9.1803,9.1803,9.1803,9.1803,9.1803,9.1803,9.1803,5.3214,5.3214,5.3214,5.3214,5.3214,5.3214,5.3214,5.3214,5.3214,5.3214,5.3214,5.3434,5.4252,5.5071,5.5879,5.6664,5.8242,5.9893,6.1374,6.3038,6.4383,6.5178,6.5999,6.6806,6.7627,6.77,6.8017,6.8862,6.9633,7.044,7.127,7.1153,7.1175,7.1302,7.1175,7.0246,6.8439,6.9259,6.9186,6.8169,6.7264,6.7223,6.795,6.7161,6.6791,6.6791,6.6791,6.6791,6.6927,6.847,6.9113,6.9248,7.0714,7.1289,7.1289,7.1289,7.1785,7.2529,7.3375,7.4559,7.5709,7.5709,7.5709,7.598,7.7536,7.8,7.8179,7.9025,7.9735,8.0209,8.0209,8.0209,8.0209,8.0209,8.0209,8.0209,8.0209,8.0209,8.0209,8.0209,8.0209,8.0209,8.0209,8.0209,8.0209,8.0209,8.0209,8.0209,8.0209,8.0209,8.0209,8.0209,8.2244,8.3621,8.3621,8.6546,8.8683,8.9363,9.017,9.0959,9.1767,9.1803,9.1803,9.1803,9.1803,9.1803,9.1803,9.1803,9.1803,9.1803,9.1803,9.1803,5.3214,5.3214,5.3214,5.3214,5.3214,5.3214,5.3214,5.3214,5.3214,5.3214,5.3214,5.3434,5.4252,5.5071,5.5879,5.6664,5.8719,6.0529,6.1484,6.3038,6.4383,6.5178,6.5999,6.6806,6.7627,6.77,6.8017,6.8862,6.9633,7.044,7.127,7.1153,7.148,7.2255,7.1511,7.0585,6.9458,6.9637,6.9186,6.8169,6.7264,6.6896,6.7009,6.6875,6.6791,6.6791,6.6791,6.6791,6.6927,6.847,6.9113,6.9248,7.0714,7.1289,7.1289,7.1289,7.1785,7.2597,7.3984,7.4999,7.5709,7.5709,7.5709,7.598,7.7536,7.8,7.828,7.9634,8.0107,8.0209,8.0209,8.0209,8.0209,8.0209,8.0209,8.0209,8.0209,8.0209,8.0209,8.0209,8.0209,8.0209,8.0209,8.0209,8.0209,8.0209,8.0209,8.0209,8.0209,8.0209,8.0209,8.0209,8.2244,8.3621,8.3621,8.7053,8.9253,8.94,9.017,9.0959,9.1767,9.1803,9.1803,9.1803,9.1803,9.1803,9.1803,9.1803,9.1803,9.1803,9.1803,9.1803,5.3214,5.3214,5.3214,5.3214,5.3214,5.3214,5.3214,5.3214,5.3214,5.3214,5.3544,5.4106,5.4913,5.5721,5.6785,5.8462,5.9685,6.0811,6.2071,6.3686,6.4897,6.5251,6.6402,6.7297,6.7664,6.77,6.7847,6.8201,6.9412,7.0257,7.0624,7.0935,7.1526,7.2467,7.1588,7.0651,6.9725,6.9708,6.8945,6.7454,6.7009,6.6791,6.6791,6.6791,6.6791,6.6791,6.6791,6.6791,6.6927,6.847,6.9113,6.9248,7.0714,7.1289,7.1391,7.2191,7.2699,7.3206,7.4695,7.5439,7.5709,7.5709,7.598,7.6555,7.7638,7.828,7.8822,7.9904,8.0209,8.0209,8.0209,8.0209,8.0209,8.0209,8.0209,8.0209,8.0209,8.0209,8.0209,8.0209,8.0209,8.0209,8.0209,8.0209,8.0209,8.0209,8.0209,8.0209,8.0209,8.0209,8.0209,8.0209,8.2244,8.3621,8.3621,8.7162,8.9767,9.0629,9.1033,9.14,9.1767,9.1803,9.1803,9.1803,9.1803,9.1803,9.1803,9.1803,9.1803,9.1803,9.1803,9.1803,5.3214,5.3214,5.3214,5.3214,5.3214,5.3214,5.3214,5.3214,5.3251,5.3434,5.3959,5.4693,5.5695,5.6675,5.8022,6.0089,6.0566,6.119,6.2609,6.4224,6.5288,6.5288,6.6733,6.77,6.77,6.77,6.77,6.77,6.9009,6.9889,7.0073,7.0351,7.1106,7.2467,7.1386,7.0434,6.9725,6.9936,6.8945,6.6791,6.6791,6.6791,6.6791,6.6791,6.6791,6.6791,6.6791,6.6893,6.7163,6.8538,6.9214,6.9485,7.0782,7.1289,7.1458,7.2935,7.35,7.3703,7.5202,7.5709,7.5709,7.5709,7.6251,7.7029,7.7773,7.8517,7.9261,8.0006,8.0209,8.0209,8.0209,8.0209,8.0209,8.0209,8.0209,8.0209,8.0209,8.0209,8.0209,8.0209,8.0209,8.0209,8.0209,8.0209,8.0209,8.0209,8.0209,8.0209,8.0209,8.0209,8.0209,8.0209,8.2244,8.3974,8.487,8.7681,9.0097,9.1693,9.1803,9.1803,9.1803,9.1803,9.1803,9.1803,9.1803,9.1803,9.1803,9.1803,9.1803,9.1803,9.1803,9.1803,5.3214,5.3214,5.3214,5.3214,5.3214,5.3214,5.3214,5.3214,5.3398,5.4179,5.4363,5.4876,5.6444,5.7985,5.9343,6.026,6.1043,6.1814,6.2683,6.4224,6.5288,6.5288,6.6733,6.77,6.77,6.77,6.77,6.77,6.8495,6.9302,7.0073,6.9205,6.9865,7.2416,7.0734,6.9778,6.9708,7.0568,6.9601,6.6791,6.6791,6.6791,6.6791,6.6791,6.6791,6.6791,6.6791,6.7184,6.7895,6.8741,6.9485,7.0195,7.1007,7.1289,7.1458,7.2935,7.35,7.3703,7.5202,7.5709,7.5709,7.5709,7.6251,7.7029,7.7773,7.8517,7.9261,8.0006,8.0209,8.0209,8.0209,8.0209,8.0209,8.0209,8.0209,8.0209,8.0209,8.0209,8.0209,8.0209,8.0209,8.0209,8.0209,8.0209,8.0209,8.0209,8.0209,8.0209,8.0209,8.0209,8.0209,8.0209,8.2244,8.508,8.8692,8.9255,9.0097,9.1693,9.1803,9.1803,9.1803,9.1803,9.1803,9.1803,9.1803,9.1803,9.1803,9.1803,9.1803,9.1803,9.1803,9.1803,5.3214,5.3214,5.3214,5.3214,5.3581,5.3959,5.3959,5.3959,5.4179,5.4997,5.5537,5.637,5.7985,5.8792,5.9636,6.0933,6.141,6.1887,6.2683,6.4224,6.5288,6.5288,6.6733,6.77,6.77,6.77,6.77,6.77,6.8458,6.9265,7.0073,6.9648,7.0313,7.2416,7.1239,7.0298,6.9708,7.0635,6.9672,6.6812,6.7393,6.7373,6.6791,6.6791,6.6791,6.6791,6.6791,6.7218,6.7963,6.8774,6.9519,7.0263,7.1007,7.1289,7.1458,7.2935,7.35,7.3703,7.5202,7.5709,7.5709,7.5709,7.6555,7.7638,7.7933,7.8822,7.9837,8.0107,8.0209,8.0209,8.0209,8.0209,8.0209,8.0209,8.0209,8.0209,8.0209,8.0209,8.0209,8.0209,8.0209,8.0209,8.0209,8.0209,8.0209,8.0209,8.0209,8.0209,8.0209,8.0209,8.0209,8.0209,8.2244,8.5177,8.9055,8.94,9.0097,9.1693,9.1803,9.1803,9.1803,9.1803,9.1803,9.1803,9.1803,9.1803,9.1803,9.1803,9.1803,9.1803,9.1803,9.1803,5.3214,5.3214,5.3214,5.3214,5.3801,5.4473,5.473,5.4766,5.5023,5.5794,5.6822,5.7875,5.9013,5.9636,6.0309,6.141,6.1814,6.2181,6.2719,6.4224,6.5288,6.5288,6.6733,6.77,6.77,6.77,6.77,6.77,6.8201,6.8862,6.9669,6.9612,7.0314,7.2063,7.1464,7.0783,7.0162,7.1079,7.0109,6.723,6.8204,6.8024,6.6791,6.6791,6.6791,6.6791,6.6791,6.7354,6.8335,6.8876,6.9654,7.0601,7.1109,7.1424,7.1819,7.3037,7.3669,7.4018,7.527,7.5709,7.5709,7.5709,7.6724,7.8,7.8,7.9025,8.0209,8.0209,8.0209,8.0209,8.0209,8.0209,8.0209,8.0209,8.0209,8.0209,8.0209,8.0209,8.0209,8.0209,8.0209,8.0209,8.0209,8.0209,8.0209,8.0209,8.0209,8.0209,8.0209,8.0209,8.0467,8.1198,8.2994,8.5574,8.9073,8.94,9.0097,9.1693,9.1803,9.1803,9.1803,9.1803,9.1803,9.1803,9.1803,9.1803,9.1803,9.1803,9.1803,9.1803,9.1803,9.1803,5.3214,5.3214,5.3214,5.3214,5.3801,5.462,5.5438,5.5622,5.5842,5.6675,5.8095,5.9196,5.9221,6.0529,6.1606,6.1606,6.2291,6.2793,6.2793,6.4224,6.5288,6.5288,6.6696,6.77,6.77,6.77,6.77,6.77,6.77,6.8054,6.8862,6.8762,6.95,7.1242,7.1189,7.1127,7.1111,7.2026,7.1043,6.8208,6.9205,6.8682,6.6791,6.6791,6.6791,6.6791,6.6791,6.7692,6.9113,6.9113,6.9992,7.1289,7.1289,7.1751,7.2496,7.3229,7.395,7.4728,7.5439,7.5709,7.5709,7.5709,7.6724,7.8,7.8,7.9025,8.0209,8.0209,8.0209,8.0209,8.0209,8.0209,8.0209,8.0209,8.0209,8.0209,8.0209,8.0209,8.0209,8.0209,8.0209,8.0209,8.0209,8.0209,8.0209,8.0209,8.0209,8.0209,8.0209,8.0234,8.1111,8.3364,8.4613,8.6421,8.9182,8.94,9.0097,9.1693,9.1803,9.1803,9.1803,9.1803,9.1803,9.1803,9.1803,9.1803,9.1803,9.1803,9.1803,9.1803,9.1803,9.1803,5.3214,5.3214,5.3324,5.3922,5.4656,5.5438,5.6271,5.6455,5.6822,5.8205,5.8866,5.9563,6.0676,6.1263,6.1777,6.2365,6.2646,6.2793,6.2793,6.3759,6.4677,6.5215,6.6219,6.7076,6.7664,6.77,6.77,6.77,6.77,6.8054,6.8862,6.9409,7.0199,7.1256,7.1824,7.1778,7.1111,7.2026,7.1043,6.8208,6.9205,6.8682,6.6791,6.6791,6.6791,6.6791,6.6791,6.7692,6.918,7.0229,7.0917,7.1289,7.1289,7.1751,7.2496,7.3229,7.395,7.4728,7.5439,7.5709,7.5709,7.5709,7.6724,7.8,7.8,7.9025,8.0209,8.0209,8.0209,8.0209,8.0209,8.0209,8.0209,8.0209,8.0209,8.0209,8.0209,8.0209,8.0209,8.0209,8.0209,8.0209,8.0209,8.0209,8.0209,8.0209,8.0209,8.0209,8.0209,8.0892,8.1945,8.345,8.5114,8.7038,8.9218,8.9913,9.0702,9.173,9.1803,9.1803,9.1803,9.1803,9.1803,9.1803,9.1803,9.1803,9.1803,9.1803,9.1803,9.1803,9.1803,9.1803,5.3214,5.3214,5.3398,5.4216,5.4997,5.5879,5.7005,5.7299,5.7618,5.8939,5.9453,6.0077,6.1374,6.1851,6.2254,6.2719,6.2793,6.2793,6.2793,6.3539,6.4383,6.5178,6.5999,6.6806,6.7627,6.77,6.77,6.77,6.77,6.7921,6.8385,6.9486,7.033,7.0807,7.1908,7.2241,7.165,7.2226,7.1255,6.8798,6.9404,6.8682,6.6791,6.6791,6.6791,6.6825,6.7434,6.8233,6.9214,7.068,7.1289,7.1289,7.1289,7.1921,7.2868,7.3364,7.4153,7.51,7.554,7.5709,7.5709,7.5709,7.6724,7.8,7.8,7.9025,8.0209,8.0209,8.0209,8.0209,8.0209,8.0209,8.0209,8.0209,8.0209,8.0209,8.0209,8.0209,8.0209,8.0209,8.0209,8.0209,8.0209,8.0209,8.0209,8.0209,8.0209,8.0209,8.0209,8.1593,8.2839,8.3536,8.5765,8.7796,8.9273,9.0134,9.0959,9.173,9.1803,9.1803,9.1803,9.1803,9.1803,9.1803,9.1803,9.1803,9.1803,9.1803,9.1803,9.1803,9.1803,9.1803,5.3214,5.3214,5.3398,5.4289,5.5181,5.6209,5.7678,5.807,5.8327,5.9159,5.993,6.075,6.1557,6.2328,6.2793,6.2793,6.2793,6.2793,6.2793,6.3466,6.431,6.5178,6.5962,6.6733,6.7627,6.77,6.77,6.77,6.77,6.77,6.77,6.9242,7.011,7.011,7.1651,7.2496,7.2496,7.2496,7.1625,6.9831,6.9743,6.872,6.6925,6.6854,6.6791,6.6893,6.8436,6.9113,6.9214,7.068,7.1289,7.1289,7.1289,7.2191,7.35,7.35,7.4424,7.5709,7.5709,7.5709,7.5709,7.5709,7.6724,7.8,7.8,7.9025,8.0209,8.0209,8.0209,8.0209,8.0209,8.0209,8.0209,8.0209,8.0209,8.0209,8.0209,8.0209,8.0209,8.0209,8.0209,8.0209,8.0209,8.0209,8.0209,8.0209,8.0209,8.0209,8.0209,8.2175,8.3621,8.3621,8.6435,8.861,8.9326,9.0207,9.1033,9.173,9.1803,9.1803,9.1803,9.1803,9.1803,9.1803,9.1803,9.1803,9.1803,9.1803,9.1803,9.1803,9.1803,9.1803,5.3214,5.3214,5.3544,5.4997,5.6429,5.7556,5.7923,5.851,5.9159,5.9967,6.0786,6.1594,6.2389,6.2683,6.2793,6.2793,6.2793,6.2793,6.2793,6.2976,6.3637,6.5105,6.5435,6.6109,6.7554,6.77,6.77,6.77,6.77,6.77,6.77,6.9242,7.011,7.011,7.1651,7.2496,7.2496,7.2496,7.1951,7.0783,7.0058,6.9058,6.7852,6.714,6.6791,6.6893,6.8436,6.9113,6.9214,7.068,7.1289,7.1289,7.1289,7.2191,7.35,7.35,7.4424,7.5709,7.5709,7.5709,7.5709,7.5709,7.6724,7.8,7.8,7.9025,8.0209,8.0209,8.0209,8.0209,8.0209,8.0209,8.0209,8.0209,8.0209,8.0209,8.0209,8.0209,8.0209,8.0209,8.0209,8.0209,8.0209,8.0209,8.0209,8.0209,8.0209,8.0209,8.0209,8.2175,8.3621,8.3621,8.6923,8.9216,8.94,9.0739,9.162,9.1803,9.1803,9.1803,9.1803,9.1803,9.1803,9.1803,9.1803,9.1803,9.1803,9.1803,9.1803,9.1803,9.1803,9.1803,5.3214,5.3214,5.3581,5.5218,5.6796,5.7997,5.7997,5.8609,5.9416,6.0236,6.1043,6.1851,6.2646,6.2793,6.2793,6.2793,6.2793,6.2793,6.2793,6.2793,6.327,6.4567,6.5081,6.5778,6.699,6.748,6.77,6.77,6.77,6.77,6.77,6.8862,6.9706,7.0073,7.1284,7.2114,7.2496,7.2496,7.2026,7.1075,7.0601,6.9619,6.815,6.7243,6.6994,6.7387,6.8571,6.9316,6.9722,7.0838,7.1289,7.1289,7.1289,7.2191,7.35,7.35,7.4424,7.5709,7.5709,7.5709,7.5709,7.5709,7.6724,7.8,7.8,7.9025,8.0209,8.0209,8.0209,8.0209,8.0209,8.0209,8.0209,8.0209,8.0209,8.0209,8.0209,8.0209,8.0209,8.0209,8.0209,8.0209,8.0209,8.0209,8.0209,8.0209,8.0209,8.0401,8.0941,8.2504,8.3832,8.437,8.7408,8.94,8.94,9.0886,9.1803,9.1803,9.1803,9.1803,9.1803,9.1803,9.1803,9.1803,9.1803,9.1803,9.1803,9.1803,9.1803,9.1803,9.1803,9.1803,5.3214,5.3398,5.3922,5.5254,5.6796,5.7997,5.7997,5.8609,5.9416,6.0236,6.1043,6.1851,6.2646,6.2793,6.2793,6.2793,6.2793,6.2793,6.2793,6.2793,6.3123,6.3992,6.4824,6.5618,6.6402,6.7223,6.77,6.77,6.77,6.77,6.77,6.8458,6.9265,7.0073,7.0866,7.1674,7.2496,7.2496,7.2101,7.1334,7.0995,6.99,6.815,6.7243,6.7218,6.7929,6.8741,6.9519,7.0263,7.1007,7.1289,7.1289,7.1424,7.2326,7.3534,7.3612,7.4525,7.5709,7.5709,7.5709,7.5709,7.5845,7.686,7.801,7.8145,7.9126,8.0209,8.0209,8.0209,8.0209,8.0209,8.0209,8.0209,8.0209,8.0209,8.0209,8.0209,8.0209,8.0209,8.0209,8.0209,8.0209,8.0209,8.0209,8.0209,8.0209,8.0209,8.0607,8.177,8.2906,8.4098,8.5362,8.7851,8.9473,8.9583,9.0959,9.1803,9.1803,9.1803,9.1803,9.1803,9.1803,9.1803,9.1803,9.1803,9.1803,9.1803,9.1803,9.1803,9.1803,9.1803,9.1803,5.3214,5.4216,5.5328,5.5548,5.6796,5.7997,5.7997,5.8609,5.9416,6.0236,6.1043,6.1851,6.2646,6.2793,6.2793,6.2793,6.2793,6.2793,6.2793,6.2793,6.3123,6.3992,6.4824,6.5618,6.6402,6.7223,6.77,6.77,6.77,6.77,6.77,6.8458,6.9265,7.0073,7.0866,7.1674,7.2496,7.2496,7.2438,7.2285,7.0651,6.9296,6.815,6.7243,6.7218,6.7929,6.8741,6.9519,7.0263,7.1007,7.1289,7.1357,7.1988,7.2766,7.3601,7.4221,7.4999,7.5709,7.5709,7.5709,7.5811,7.6521,7.7299,7.8111,7.8754,7.9532,8.0209,8.0209,8.0209,8.0209,8.0209,8.0209,8.0209,8.0209,8.0209,8.0209,8.0209,8.0209,8.0209,8.0209,8.0209,8.0209,8.0209,8.0209,8.0209,8.0209,8.0209,8.0607,8.177,8.2906,8.4311,8.6155,8.8179,8.9693,9.0391,9.1289,9.1803,9.1803,9.1803,9.1803,9.1803,9.1803,9.1803,9.1803,9.1803,9.1803,9.1803,9.1803,9.1803,9.1803,9.1803,9.1803,5.3728,5.473,5.5695,5.6161,5.7152,5.7997,5.7997,5.8253,5.8756,5.9563,6.0382,6.13,6.2572,6.2793,6.2793,6.2793,6.2793,6.2793,6.2793,6.2793,6.2939,6.3319,6.4517,6.5435,6.5778,6.6966,6.77,6.77,6.77,6.77,6.77,6.8458,6.9265,7.0073,7.0866,7.1674,7.2496,7.2496,7.2496,7.2467,7.004,6.8928,6.8984,6.7495,6.7455,6.8605,6.8944,6.9755,7.0838,7.1176,7.1289,7.1357,7.2124,7.2834,7.3601,7.4322,7.5067,7.5709,7.5709,7.5709,7.5845,7.6657,7.7401,7.8145,7.8889,7.9634,8.0209,8.0209,8.0209,8.0209,8.0209,8.0209,8.0209,8.0209,8.0209,8.0209,8.0209,8.0209,8.0209,8.0209,8.0209,8.0209,8.0209,8.0209,8.0209,8.0209,8.0209,8.0853,8.2616,8.3299,8.4574,8.7156,8.8617,8.973,9.0537,9.1326,9.1803,9.1803,9.1803,9.1803,9.1803,9.1803,9.1803,9.1803,9.1803,9.1803,9.1803,9.1803,9.1803,9.1803,9.1803,9.1803,5.4179,5.4987,5.5805,5.659,5.7409,5.7997,5.7997,5.7997,5.8217,5.9049,5.982,6.0811,6.2242,6.2646,6.2793,6.2793,6.2793,6.2793,6.2793,6.2793,6.2793,6.2793,6.4261,6.5288,6.5288,6.6769,6.77,6.77,6.77,6.77,6.77,6.8458,6.9265,7.0073,7.0866,7.1674,7.2496,7.2496,7.2496,7.2467,6.983,6.8965,6.9637,6.7696,6.7637,6.9113,6.9113,6.9958,7.1289,7.1289,7.1289,7.1391,7.2326,7.3003,7.3635,7.4525,7.5236,7.5709,7.5709,7.5709,7.5845,7.686,7.7536,7.8145,7.9092,7.9769,8.0209,8.0209,8.0209,8.0209,8.0209,8.0209,8.0209,8.0209,8.0209,8.0209,8.0209,8.0209,8.0209,8.0209,8.0209,8.0209,8.0209,8.0209,8.0209,8.0209,8.0209,8.1039,8.3321,8.3762,8.51,8.8195,8.9216,9.0024,9.0849,9.1473,9.1803,9.1803,9.1803,9.1803,9.1803,9.1803,9.1803,9.1803,9.1803,9.1803,9.1803,9.1803,9.1803,9.1803,9.1803,9.1803,5.4179,5.4987,5.5805,5.659,5.7409,5.7997,5.7997,5.7997,5.8217,5.9049,5.982,6.0676,6.152,6.2291,6.2793,6.2793,6.2793,6.2793,6.2793,6.2793,6.2793,6.2793,6.4261,6.5288,6.5288,6.6769,6.77,6.77,6.77,6.77,6.77,6.8458,6.9265,7.0073,7.0866,7.1674,7.2496,7.2496,7.2496,7.2467,7.0535,6.9654,6.9637,6.7696,6.7637,6.9113,6.9113,6.9958,7.1289,7.1289,7.1289,7.1424,7.2868,7.3466,7.3669,7.51,7.5676,7.5709,7.5709,7.5709,7.5946,7.7435,7.7967,7.8271,7.9701,8.0175,8.0209,8.0209,8.0209,8.0209,8.0209,8.0209,8.0209,8.0209,8.0209,8.0209,8.0209,8.0209,8.0209,8.0209,8.0209,8.0209,8.0209,8.0209,8.0209,8.0209,8.0209,8.1039,8.3321,8.428,8.5908,8.9019,9.006,9.0849,9.1657,9.1767,9.1803,9.1803,9.1803,9.1803,9.1803,9.1803,9.1803,9.1803,9.1803,9.1803,9.1803,9.1803,9.1803,9.1803,9.1803,9.1803,5.4961,5.5757,5.6565,5.7373,5.7776,5.7997,5.7997,5.7997,5.807,5.8364,5.9086,5.9893,6.0676,6.1912,6.2793,6.2793,6.2793,6.2793,6.2793,6.2793,6.2793,6.2793,6.4261,6.5288,6.5288,6.6769,6.77,6.77,6.77,6.77,6.77,6.8935,6.9816,7.0073,7.1394,7.2202,7.2496,7.1885,7.1885,7.2467,6.9935,6.9404,7.0518,6.7945,6.797,6.9962,6.9347,6.9958,7.1289,7.1289,7.1289,7.1424,7.2902,7.35,7.3703,7.5168,7.5709,7.5709,7.5709,7.5709,7.5946,7.7502,7.8,7.8305,7.9735,8.0209,8.0209,8.0209,8.0209,8.0209,8.0209,8.0209,8.0209,8.0209,8.0209,8.0209,8.0209,8.0209,8.0209,8.0209,8.0209,8.0209,8.0209,8.0209,8.0209,8.0209,8.0209,8.1039,8.3321,8.428,8.5674,8.8015,8.966,9.063,9.0623,9.136,9.1803,9.1803,9.1803,9.1803,9.1803,9.1803,9.1803,9.1803,9.1803,9.1803,9.1803,9.1803,9.1803,9.1803,9.1803,9.1803,5.5794,5.6381,5.7005,5.7813,5.7997,5.7997,5.7997,5.7997,5.7997,5.7997,5.8646,5.9453,6.026,6.1471,6.2499,6.2756,6.2793,6.2793,6.2793,6.2793,6.2793,6.2793,6.404,6.4995,6.5251,6.6512,6.7407,6.7664,6.77,6.77,6.77,6.9242,7.033,7.0881,7.1945,7.2496,7.2496,7.1869,7.1869,7.2467,6.99,6.953,7.0995,6.8122,6.8165,7.0445,6.9506,6.9958,7.1289,7.1289,7.1289,7.1424,7.2902,7.35,7.3703,7.5168,7.5709,7.5709,7.5709,7.5709,7.5946,7.7502,7.8,7.8305,7.9735,8.0209,8.0209,8.0209,8.0209,8.0209,8.0209,8.0209,8.0209,8.0209,8.0209,8.0209,8.0209,8.0209,8.0209,8.0209,8.0209,8.0209,8.0209,8.0209,8.0209,8.0209,8.0542,8.145,8.3364,8.4527,8.577,8.7449,8.8932,8.986,8.999,9.0735,9.1379,9.1785,9.1803,9.1803,9.1803,9.1803,9.1803,9.1803,9.1803,9.1803,9.1803,9.1803,9.1803,9.1803,9.1803,9.1803,0.0,0.0,0.0,5.7813,5.7997,5.7997,5.7997,5.7997,5.7997,5.7997,5.8609,5.9416,6.0224,6.1006,6.1814,6.2646,6.2793,6.2793,6.2793,6.2793,6.2793,6.2793,6.3576,6.442,6.5215,6.6035,6.6843,6.7627,6.77,6.77,6.77,6.9242,7.0844,7.2459,7.2496,7.2496,7.2496,7.2496,7.2496,7.2467,7.0618,7.0247,7.1027,6.8161,6.8206,7.0485,6.954,6.9958,7.1289,7.1289,7.1289,7.1424,7.2902,7.35,7.3703,7.5168,7.5709,7.5709,7.5709,7.5709,7.5946,7.7502,7.8,7.8305,7.9735,8.0209,8.0209,8.0209,8.0209,8.0209,8.0209,8.0209,8.0209,8.0209,8.0209,8.0209,8.0209,8.0209,8.0209,8.0209,8.0209,8.0209,8.0209,8.0209,8.0209,8.0209,8.1174,8.2278,8.3428,8.4923,8.6311,8.7385,8.7914,8.8667,8.9863,8.9986,9.0503,9.1712,9.1803,9.1803,9.1803,9.1803,9.1803,9.1803,9.1803,9.1803,9.1803,9.1803,9.1803,9.1803,9.1803,9.1803,5.6737,0.0,0.0,0.0,0.0,0.0,5.7997,5.7997,5.7997,5.7997,5.818,5.8572,5.938,6.0187,6.1006,6.1814,6.2426,6.2793,6.2793,6.2793,6.2793,6.2793,6.3576,6.442,6.5215,6.6035,6.6843,6.7627,6.77,6.77,6.77,6.9242,7.0844,7.2459,7.2496,7.2496,7.2496,7.2496,7.2496,7.2481,7.1271,7.1207,7.2011,6.9729,6.9708,7.1447,7.0391,7.0432,7.1289,7.1289,7.1289,7.1424,7.2902,7.35,7.3703,7.5168,7.5709,7.5709,7.5709,7.5709,7.5946,7.7502,7.8,7.8305,7.9735,8.0209,8.0209,8.0209,8.0209,8.0209,8.0209,8.0209,8.0209,8.0209,8.0209,8.0209,8.0209,8.0209,8.0209,8.0209,8.0209,8.0209,8.0209,8.0209,8.0209,8.0209,8.1174,8.2014,8.2323,8.444,8.5702,8.5142,8.6944,8.8335,8.8746,8.9516,9.0503,9.1712,9.1803,9.1803,9.1803,9.1803,9.1803,9.1803,9.1803,9.1803,9.1803,9.1803,9.1803,9.1803,9.1803,9.1803,0.0,0.0,0.0,5.7997,0.0,0.0,5.7997,5.7997,5.7997,5.7997,5.7997,5.8253,5.9049,5.96,6.026,6.141,6.1998,6.2426,6.2756,6.2793,6.2793,6.2793,6.3246,6.4016,6.5178,6.5742,6.6476,6.7627,6.77,6.7994,6.8655,6.9596,7.0844,7.2459,7.2496,7.2496,7.2496,7.2496,7.2496,7.2481,7.1542,7.1588,7.2409,7.0342,7.054,7.2442,7.0898,7.0854,7.1895,7.1479,7.1289,7.1424,7.2902,7.35,7.3703,7.5168,7.5709,7.5709,7.5709,7.5709,7.5946,7.7502,7.8,7.8305,7.9735,8.0209,8.0209,8.0209,8.0209,8.0209,8.0209,8.0209,8.0209,8.0209,8.0209,8.0209,8.0209,8.0209,8.0209,8.0209,8.0209,8.0209,8.0209,8.0209,8.0209,8.0209,8.1174,8.2014,8.2326,8.3995,8.5007,8.4602,8.6275,8.7654,8.8214,8.9327,9.0503,9.1712,9.1803,9.1803,9.1803,9.1803,9.1803,9.1803,9.1803,9.1803,9.1803,9.1803,9.1803,9.1803,9.1803,9.1803,0.0,0.0,0.0,0.0,5.7997,0.0,5.7997,5.7997,5.7997,5.7997,5.7997,5.8217,5.8939,5.9159,5.971,6.1227,6.152,6.1887,6.2683,6.2793,6.2793,6.2793,6.2793,6.3453,6.5141,6.5288,6.5962,6.759,6.77,6.8398,7.0,7.011,7.0844,7.2459,7.2496,7.2496,7.2496,7.2496,7.2496,7.2481,7.1635,7.1665,7.246,7.0664,7.1135,7.331,7.1431,7.1482,7.2714,7.183,7.1458,7.1582,7.2935,7.3567,7.3781,7.5202,7.5709,7.5709,7.5709,7.5709,7.5946,7.7502,7.8,7.8305,7.9735,8.0209,8.0209,8.0209,8.0209,8.0209,8.0209,8.0209,8.0209,8.0209,8.0209,8.0209,8.0209,8.0209,8.0209,8.0209,8.0209,8.0209,8.0209,8.0209,8.0209,8.0209,8.1174,8.2106,8.2736,8.3592,8.4319,8.4944,8.5728,8.6744,8.8088,8.9164,9.0364,9.1712,9.1803,9.1803,9.1803,9.1803,9.1803,9.1803,9.1803,9.1803,9.1803,9.1803,9.1803,9.1803,9.1803,9.1803,0.0,0.0,0.0,0.0,5.7997,0.0,5.7997,5.7997,5.7997,5.7997,5.7997,5.8033,5.8217,5.8756,5.9526,6.0493,6.119,6.1887,6.2683,6.2793,6.2793,6.2793,6.2793,6.3453,6.5141,6.5288,6.5962,6.759,6.77,6.8398,7.0,7.011,7.0844,7.2459,7.2496,7.2496,7.2496,7.2496,7.2496,7.2496,7.2299,7.2314,7.2489,7.2591,7.2891,7.3413,7.346,7.3233,7.2776,7.2582,7.2377,7.2259,7.3161,7.3849,7.4492,7.5371,7.5709,7.5709,7.5709,7.5709,7.5946,7.7502,7.8,7.8305,7.9735,8.0209,8.0209,8.0209,8.0209,8.0209,8.0209,8.0209,8.0209,8.0209,8.0209,8.0209,8.0209,8.0209,8.0209,8.0209,8.0209,8.0209,8.0209,8.0209,8.0209,8.0209,8.1174,8.1834,8.1653,8.3071,8.4038,8.3849,8.4493,8.5836,8.7998,8.8424,8.9474,9.1657,9.1803,9.1803,9.1803,9.1803,9.1803,9.1803,9.1803,9.1803,9.1803,9.1803,9.1803,9.1803,9.1803,9.1803,0.0,0.0,0.0,5.7997,0.0,0.0,0.0,5.7997,5.7997,5.7997,5.7997,5.7997,5.7997,5.8327,5.8866,5.9673,6.0493,6.1263,6.2108,6.2536,6.2793,6.2793,6.2793,6.3306,6.4567,6.5068,6.5962,6.759,6.77,6.8398,7.0,7.011,7.0844,7.2459,7.2496,7.2496,7.2496,7.2496,7.2496,7.2496,7.2496,7.2496,7.2504,7.3112,7.3691,7.4138,7.4243,7.4005,7.3512,7.3023,7.2846,7.2969,7.3364,7.395,7.4671,7.5439,7.5709,7.5709,7.5709,7.5709,7.5946,7.7502,7.8,7.8305,7.9735,8.0209,8.0209,8.0209,8.0209,8.0209,8.0209,8.0209,8.0209,8.0209,8.0209,8.0209,8.0209,8.0209,8.0209,8.0209,8.0209,8.0209,8.0209,8.0209,8.0209,8.0209,8.0681,8.1303,8.2031,8.2785,8.3753,8.5104,8.5974,8.7151,8.8928,8.9641,9.0503,9.1712,9.1803,9.1803,9.1803,9.1803,9.1803,9.1803,9.1803,9.1803,9.1803,9.1803,9.1803,9.1803,9.1803,9.1803,0.0,0.0,0.0,0.0,0.0,5.7997,0.0,0.0,0.0,5.7997,5.7997,5.7997,5.7997,5.7997,5.8217,5.8866,5.9783,6.0639,6.1263,6.2169,6.2793,6.2793,6.2793,6.3123,6.4029,6.4971,6.6145,6.759,6.77,6.8398,7.0,7.011,7.0844,7.2459,7.2496,7.2496,7.2496,7.2496,7.2496,7.2496,7.2496,7.2496,7.254,7.3322,7.4128,7.4902,7.4879,7.4757,7.4517,7.3694,7.353,7.3764,7.3592,7.4018,7.4897,7.5473,7.5709,7.5709,7.5709,7.5709,7.5946,7.7502,7.8204,7.8653,7.9837,8.0209,8.0209,8.0209,8.0209,8.0209,8.0209,8.0209,8.0209,8.0209,8.0209,8.0209,8.0209,8.0209,8.0209,8.0209,8.0209,8.0209,8.0209,8.0209,8.0209,8.0209,8.0401,8.1117,8.2784,8.3056,8.4062,8.6739,8.7763,8.8746,8.9904,9.0907,9.1565,9.1803,9.1803,9.1803,9.1803,9.1803,9.1803,9.1803,9.1803,9.1803,9.1803,9.1803,9.1803,9.1803,9.1803,9.1803,0.0,0.0,0.0,0.0,5.7997,0.0,5.7997,0.0,5.7997,5.7997,0.0,5.7997,5.7997,0.0,0.0,5.8107,5.9428,6.0419,6.0529,6.1838,6.2793,6.2793,6.2793,6.3123,6.4029,6.5485,6.6733,6.7627,6.77,6.8398,7.0,7.011,7.0844,7.2459,7.2496,7.2496,7.2496,7.2496,7.2496,7.2496,7.2496,7.2496,7.2555,7.4044,7.4777,7.4962,7.6355,7.6465,7.5614,7.551,7.5195,7.474,7.3856,7.4322,7.5574,7.5676,7.5709,7.5709,7.5709,7.5709,7.5946,7.7502,7.8855,7.9972,8.0141,8.0209,8.0209,8.0209,8.0209,8.0209,8.0209,8.0209,8.0209,8.0209,8.0209,8.0209,8.0209,8.0209,8.0209,8.0209,8.0209,8.0209,8.0209,8.0209,8.0209,8.0209,8.1053,8.2023,8.2902,8.4458,8.5873,8.6895,8.7741,8.8689,8.9904,9.0107,9.0657,9.1712,9.1803,9.1803,9.1803,9.1803,9.1803,9.1803,9.1803,9.1803,9.1803,9.1803,9.1803,9.1803,9.1803,9.1803,0.0,0.0,0.0,0.0,0.0,0.0,5.9391,0.0,5.9391,0.0,0.0,0.0,0.0,0.0,0.0,0.0,6.0346,6.108,6.108,6.2059,6.2793,6.2793,6.2793,6.3343,6.4677,6.5411,6.6329,6.759,6.77,6.8398,7.0,7.011,7.0844,7.2459,7.2496,7.2496,7.2496,7.2496,7.2496,7.2496,7.2496,7.2496,7.2569,7.4169,7.4903,7.4977,7.6592,7.6745,7.5787,7.5787,7.5868,7.5814,7.4783,7.4923,7.5709,7.5709,7.5709,7.5709,7.5709,7.5709,7.5946,7.7502,7.8991,8.0209,8.0209,8.0209,8.0209,8.0209,8.0209,8.0209,8.0209,8.0209,8.0209,8.0209,8.0209,8.0209,8.0209,8.0209,8.0209,8.0209,8.0209,8.0209,8.0209,8.0209,8.0209,8.0209,8.1174,8.2234,8.3228,8.4816,8.656,8.8209,8.8922,8.9724,9.0945,9.1022,9.1249,9.1785,9.1803,9.1803,9.1803,9.1803,9.1803,9.1803,9.1803,9.1803,9.1803,9.1803,9.1803,9.1803,9.1803,9.1803,6.1068,0.0,0.0,0.0,0.0,0.0,0.0,0.0,0.0,0.0,6.0419,0.0,0.0,0.0,0.0,0.0,0.0,6.1533,6.13,6.2132,6.2793,6.2793,6.2793,6.3453,6.5141,6.5288,6.5962,6.759,6.77,6.8398,7.0,7.011,7.0844,7.2459,7.2496,7.2496,7.2496,7.2496,7.2496,7.2496,7.2496,7.2496,7.2569,7.4169,7.4903,7.4977,7.6592,7.6872,7.6231,7.6231,7.6533,7.692,7.5849,7.5715,7.6114,7.5794,7.5709,7.5709,7.5709,7.598,7.6487,7.7662,7.8991,8.0209,8.0209,8.0209,8.0209,8.0209,8.0209,8.0209,8.0209,8.0209,8.0209,8.0209,8.0209,8.0209,8.0209,8.0209,8.0209,8.0209,8.0209,8.0209,8.0209,8.0209,8.0209,8.0209,8.1427,8.2661,8.3514,8.5498,8.7521,8.922,9.0037,9.0868,9.1749,9.1803,9.1803,9.1803,9.1803,9.1803,9.1803,9.1803,9.1803,9.1803,9.1803,9.1803,9.1803,9.1803,9.1803,9.1803,9.1803,9.1803,0.0,0.0,0.0,6.0419,0.0,0.0,0.0,0.0,6.0419,0.0,0.0,0.0,0.0,0.0,0.0,0.0,0.0,0.0,0.0,6.1802,6.2793,6.2793,6.2793,6.3453,6.5141,6.5288,6.5962,6.759,6.77,6.8398,7.0,7.011,7.0844,7.2459,7.2496,7.2496,7.2496,7.2496,7.2496,7.2496,7.2496,7.2496,7.2569,7.4169,7.4903,7.4977,7.6592,7.7273,7.7243,7.7243,7.7611,7.8027,7.6901,7.678,7.7115,7.609,7.5709,7.5709,7.5709,7.6657,7.7933,7.8,7.8991,8.0209,8.0209,8.0209,8.0209,8.0209,8.0209,8.0209,8.0209,8.0209,8.0209,8.0209,8.0209,8.0209,8.0209,8.0209,8.0209,8.0209,8.0209,8.0209,8.0209,8.0209,8.0209,8.0209,8.2106,8.3578,8.3621,8.6936,8.9328,8.9382,9.0813,9.1767,9.1803,9.1803,9.1803,9.1803,9.1803,9.1803,9.1803,9.1803,9.1803,9.1803,9.1803,9.1803,9.1803,9.1803,9.1803,9.1803,9.1803,9.1803,6.4444,6.404,6.349,6.2989,0.0,0.0,0.0,0.0,0.0,0.0,0.0,0.0,0.0,0.0,0.0,0.0,0.0,0.0,0.0,6.2462,6.2793,6.2793,6.2793,6.3233,6.4383,6.5007,6.5742,6.6806,6.7407,6.8398,7.0,7.011,7.0844,7.2459,7.2496,7.2496,7.2496,7.2496,7.2496,7.2496,7.2496,7.2496,7.2569,7.4169,7.4903,7.4977,7.6592,7.7289,7.7289,7.7289,7.8071,7.9069,7.7223,7.7724,7.9183,7.6645,7.5709,7.5709,7.5709,7.669,7.8,7.8,7.8991,8.0209,8.0209,8.0209,8.0209,8.0209,8.0209,8.0209,8.0209,8.0209,8.0209,8.0209,8.0209,8.0209,8.0209,8.0209,8.0209,8.0209,8.0209,8.0209,8.0209,8.0209,8.0209,8.0209,8.2129,8.3621,8.3621,8.6994,8.94,8.94,9.0849,9.1803,9.1803,9.1803,9.1803,9.1803,9.1803,9.1803,9.1803,9.1803,9.1803,9.1803,9.1803,9.1803,9.1803,9.1803,9.1803,9.1803,9.1803,9.1803,6.5742,6.5508,6.5178,6.464,6.453,0.0,6.382,0.0,6.3282,0.0,0.0,0.0,0.0,0.0,0.0,0.0,0.0,0.0,0.0,6.2793,6.2793,6.2793,6.2793,6.3123,6.4029,6.4824,6.5618,6.6439,6.726,6.8398,7.0,7.011,7.0844,7.2459,7.2496,7.2496,7.2496,7.2496,7.2496,7.2496,7.2496,7.2496,7.2569,7.4169,7.4903,7.4977,7.6592,7.7289,7.7289,7.7289,7.828,7.9567,7.7354,7.8203,8.0182,7.6904,7.5709,7.5743,7.6014,7.6927,7.8044,7.8314,7.9194,8.0209,8.0209,8.0209,8.0141,7.987,8.0006,8.0141,7.987,8.0006,8.0209,8.0209,8.0209,8.0209,8.0209,8.0209,8.0209,8.0209,8.0209,8.0209,8.0209,8.0209,8.0351,8.0755,8.2403,8.3769,8.4165,8.7259,8.94,8.94,9.0849,9.1803,9.1803,9.1803,9.1803,9.1803,9.1803,9.1803,9.1803,9.1803,9.1803,9.1803,9.1803,9.1803,9.1803,9.1803,9.1803,9.1803,9.1803,9.1803]}]]